[[{"header":{"parameterUnit":"m.s-1","parameterCategory":1,"la1":30.6,"la2":29.2853,"lo1":-89.7004,"lo2":-87.6739,"dy":0.0162,"dx":0.0183,"nx":112,"ny":82,"refTime":"2026-05-18T12:00:00:Z","depth":0,"parameterNumber":2,"parameterNumberName":"U-component_of_WINDS"},"data":[0.0,0.0,0.0,0.0,0.0,0.0,0.0,0.0,0.0,0.0,0.0,0.0,0.0,0.0,0.0,0.0,0.0,0.0,0.0,0.0,0.0,0.0,0.0,0.0,0.0,0.0,0.0,0.0,0.0,0.0,0.0,0.0,0.0,0.0,0.0,0.0,0.0,0.0,0.0,0.0,0.0,0.0,0.0,0.0,0.0,0.0,0.0,0.0,0.0,0.0,0.0,0.0,0.0,0.0,0.0,0.0,0.0,0.0,0.0,0.0,0.0,0.0,0.0,0.0,0.0,0.0,0.0,0.0,0.0,0.0,0.0,0.0,0.0,0.0,0.0,0.0,0.0,0.0,0.0,0.0,0.0,0.0,0.0,0.0,0.0,0.0,0.0,0.0,0.0,0.0,-6.3531,-6.6683,-7.0629,-7.2466,-7.0971,-6.8668,-6.4698,-5.8701,0.0,0.0,0.0,0.0,0.0,0.0,0.0,0.0,0.0,0.0,0.0,0.0,0.0,0.0,0.0,0.0,0.0,0.0,0.0,0.0,0.0,0.0,0.0,0.0,0.0,0.0,0.0,0.0,0.0,0.0,0.0,0.0,0.0,0.0,0.0,0.0,0.0,0.0,0.0,0.0,0.0,0.0,0.0,0.0,0.0,0.0,0.0,0.0,0.0,0.0,0.0,0.0,0.0,0.0,0.0,0.0,0.0,0.0,0.0,0.0,0.0,0.0,0.0,0.0,0.0,0.0,0.0,0.0,0.0,0.0,0.0,0.0,0.0,0.0,0.0,0.0,0.0,0.0,0.0,0.0,0.0,0.0,0.0,0.0,0.0,0.0,0.0,0.0,0.0,0.0,0.0,0.0,0.0,0.0,0.0,0.0,0.0,0.0,0.0,0.0,0.0,0.0,0.0,0.0,-6.2964,-6.878,-7.0615,-7.1126,-7.0294,-6.8561,-6.4897,-5.8672,0.0,0.0,0.0,0.0,0.0,0.0,0.0,0.0,0.0,0.0,0.0,0.0,0.0,0.0,0.0,0.0,0.0,0.0,0.0,0.0,0.0,0.0,0.0,0.0,0.0,0.0,0.0,0.0,0.0,0.0,0.0,0.0,0.0,0.0,0.0,0.0,0.0,0.0,0.0,0.0,0.0,0.0,0.0,0.0,0.0,0.0,0.0,0.0,0.0,0.0,0.0,0.0,0.0,0.0,0.0,0.0,0.0,0.0,0.0,0.0,0.0,0.0,0.0,0.0,0.0,0.0,0.0,0.0,0.0,0.0,0.0,0.0,0.0,0.0,0.0,0.0,0.0,0.0,0.0,0.0,0.0,0.0,0.0,0.0,0.0,0.0,0.0,0.0,0.0,0.0,0.0,0.0,0.0,0.0,0.0,0.0,0.0,0.0,0.0,0.0,0.0,0.0,0.0,-6.0515,-6.3282,-6.7478,-6.9433,-6.9989,-6.8822,-6.722,-6.3974,-5.8643,-5.5941,0.0,0.0,0.0,0.0,0.0,0.0,0.0,0.0,0.0,0.0,0.0,0.0,0.0,0.0,0.0,0.0,0.0,0.0,0.0,0.0,0.0,0.0,0.0,0.0,0.0,0.0,0.0,0.0,0.0,0.0,0.0,0.0,0.0,0.0,0.0,0.0,0.0,0.0,0.0,0.0,0.0,0.0,0.0,0.0,0.0,0.0,0.0,0.0,0.0,0.0,0.0,0.0,0.0,0.0,0.0,0.0,0.0,0.0,0.0,0.0,0.0,0.0,0.0,0.0,0.0,0.0,0.0,0.0,0.0,0.0,0.0,0.0,0.0,0.0,0.0,0.0,0.0,0.0,0.0,0.0,0.0,0.0,0.0,0.0,0.0,0.0,0.0,0.0,0.0,0.0,0.0,0.0,0.0,0.0,0.0,0.0,0.0,0.0,0.0,0.0,0.0,0.0,-6.1987,-6.3792,-6.5932,-6.7852,-6.8529,-6.7352,-6.5436,-6.2467,-5.8249,-5.5533,0.0,0.0,0.0,0.0,0.0,0.0,0.0,0.0,0.0,0.0,0.0,0.0,0.0,0.0,0.0,0.0,0.0,0.0,0.0,0.0,0.0,0.0,0.0,0.0,0.0,0.0,0.0,0.0,0.0,0.0,0.0,0.0,0.0,0.0,0.0,0.0,0.0,0.0,0.0,0.0,0.0,0.0,0.0,0.0,0.0,0.0,0.0,0.0,0.0,0.0,0.0,0.0,0.0,0.0,0.0,0.0,0.0,0.0,0.0,0.0,0.0,0.0,0.0,0.0,0.0,0.0,0.0,0.0,0.0,0.0,0.0,0.0,0.0,0.0,0.0,0.0,0.0,0.0,0.0,0.0,0.0,0.0,0.0,0.0,0.0,0.0,0.0,0.0,0.0,0.0,0.0,0.0,0.0,0.0,0.0,0.0,0.0,0.0,0.0,0.0,0.0,0.0,-6.1249,-6.4088,-6.5838,-6.616,-6.6282,-6.6305,-6.3585,-6.0492,-5.7289,-5.4182,0.0,0.0,0.0,0.0,0.0,0.0,0.0,0.0,0.0,0.0,0.0,0.0,0.0,0.0,0.0,0.0,0.0,0.0,0.0,0.0,0.0,0.0,0.0,0.0,0.0,0.0,0.0,0.0,0.0,0.0,0.0,0.0,0.0,0.0,0.0,0.0,0.0,0.0,0.0,0.0,0.0,0.0,0.0,0.0,0.0,0.0,0.0,0.0,0.0,0.0,0.0,0.0,0.0,0.0,0.0,0.0,0.0,0.0,0.0,0.0,0.0,0.0,0.0,0.0,0.0,0.0,0.0,0.0,0.0,0.0,0.0,0.0,0.0,0.0,0.0,0.0,0.0,0.0,0.0,0.0,0.0,0.0,0.0,0.0,0.0,0.0,0.0,0.0,0.0,0.0,0.0,0.0,0.0,0.0,0.0,0.0,0.0,0.0,0.0,0.0,0.0,0.0,-5.7869,-6.0026,-6.2374,-6.3532,-6.4271,-6.4602,-6.3136,-6.0738,-5.7228,0.0,0.0,0.0,0.0,0.0,0.0,0.0,0.0,0.0,0.0,0.0,0.0,0.0,0.0,0.0,0.0,0.0,0.0,0.0,0.0,0.0,0.0,0.0,0.0,0.0,0.0,0.0,0.0,0.0,0.0,0.0,0.0,0.0,0.0,0.0,0.0,0.0,0.0,0.0,0.0,0.0,0.0,0.0,0.0,0.0,0.0,0.0,0.0,0.0,0.0,0.0,0.0,0.0,0.0,0.0,0.0,0.0,0.0,0.0,0.0,0.0,0.0,0.0,0.0,0.0,0.0,0.0,0.0,0.0,0.0,0.0,0.0,0.0,0.0,0.0,0.0,0.0,0.0,0.0,0.0,0.0,0.0,0.0,0.0,0.0,0.0,0.0,0.0,0.0,0.0,0.0,0.0,0.0,0.0,0.0,0.0,0.0,0.0,0.0,0.0,0.0,0.0,-5.4257,-5.5965,-5.7731,-5.9783,-6.1343,-6.2386,-6.2715,-6.1721,-5.9805,-5.6774,0.0,0.0,0.0,0.0,0.0,0.0,0.0,0.0,0.0,0.0,0.0,0.0,0.0,0.0,0.0,0.0,0.0,0.0,0.0,0.0,0.0,0.0,0.0,0.0,0.0,0.0,0.0,0.0,0.0,0.0,0.0,0.0,0.0,0.0,0.0,0.0,0.0,0.0,0.0,0.0,0.0,0.0,0.0,0.0,0.0,0.0,0.0,0.0,0.0,0.0,0.0,0.0,0.0,0.0,0.0,0.0,0.0,0.0,0.0,0.0,0.0,0.0,0.0,0.0,0.0,0.0,0.0,0.0,0.0,0.0,0.0,0.0,0.0,0.0,0.0,0.0,0.0,0.0,0.0,0.0,0.0,0.0,0.0,0.0,0.0,0.0,0.0,0.0,0.0,0.0,0.0,0.0,0.0,0.0,0.0,0.0,0.0,0.0,0.0,0.0,0.0,0.0,-5.3662,-5.6136,-5.8012,-5.8704,-5.9827,-6.0544,-6.0586,-5.8891,-5.7236,0.0,0.0,0.0,0.0,0.0,0.0,0.0,0.0,0.0,0.0,0.0,0.0,0.0,0.0,0.0,0.0,0.0,0.0,0.0,0.0,0.0,0.0,0.0,0.0,0.0,0.0,0.0,0.0,0.0,0.0,0.0,0.0,0.0,0.0,0.0,0.0,0.0,0.0,0.0,0.0,0.0,0.0,0.0,0.0,0.0,0.0,0.0,0.0,0.0,0.0,0.0,0.0,0.0,0.0,0.0,0.0,0.0,0.0,0.0,0.0,0.0,0.0,0.0,0.0,0.0,0.0,0.0,0.0,0.0,0.0,0.0,0.0,0.0,0.0,0.0,0.0,0.0,0.0,0.0,0.0,0.0,0.0,0.0,0.0,0.0,0.0,0.0,0.0,0.0,0.0,0.0,0.0,0.0,0.0,0.0,0.0,0.0,0.0,0.0,0.0,0.0,0.0,0.0,-5.1434,-5.3771,-5.5821,-5.7371,-5.7854,-5.8405,-5.9258,-5.7933,-5.6301,-5.4523,0.0,0.0,0.0,0.0,0.0,0.0,0.0,0.0,0.0,0.0,0.0,0.0,0.0,0.0,0.0,0.0,0.0,0.0,0.0,0.0,0.0,0.0,0.0,0.0,0.0,0.0,0.0,0.0,0.0,0.0,0.0,0.0,0.0,0.0,0.0,0.0,0.0,0.0,0.0,0.0,0.0,0.0,0.0,0.0,0.0,0.0,0.0,0.0,0.0,0.0,0.0,0.0,0.0,0.0,0.0,0.0,0.0,0.0,0.0,0.0,0.0,0.0,0.0,0.0,0.0,0.0,0.0,0.0,0.0,0.0,0.0,0.0,0.0,0.0,0.0,0.0,0.0,0.0,0.0,0.0,0.0,0.0,0.0,0.0,0.0,0.0,0.0,0.0,0.0,0.0,0.0,0.0,0.0,0.0,0.0,0.0,0.0,0.0,0.0,0.0,0.0,0.0,-5.0389,-5.2516,-5.4428,-5.6109,-5.6704,-5.7199,-5.7628,-5.7076,-5.5641,-5.3077,0.0,0.0,0.0,0.0,0.0,0.0,0.0,0.0,0.0,0.0,0.0,0.0,0.0,0.0,0.0,0.0,0.0,0.0,0.0,0.0,0.0,0.0,0.0,0.0,0.0,0.0,0.0,0.0,0.0,0.0,0.0,0.0,0.0,0.0,0.0,0.0,0.0,0.0,0.0,0.0,0.0,0.0,0.0,0.0,0.0,0.0,0.0,0.0,0.0,0.0,0.0,0.0,0.0,0.0,0.0,0.0,0.0,0.0,0.0,0.0,0.0,0.0,0.0,0.0,0.0,0.0,0.0,0.0,0.0,0.0,0.0,0.0,0.0,0.0,0.0,0.0,0.0,0.0,0.0,0.0,0.0,0.0,0.0,0.0,0.0,0.0,0.0,0.0,0.0,0.0,0.0,0.0,0.0,0.0,0.0,0.0,0.0,0.0,0.0,0.0,0.0,0.0,-5.015,-5.2015,-5.3593,-5.488,-5.5999,-5.6415,-5.5797,-5.6091,-5.4879,-5.1622,0.0,0.0,0.0,0.0,0.0,0.0,0.0,0.0,0.0,0.0,0.0,0.0,0.0,0.0,0.0,0.0,0.0,0.0,0.0,0.0,0.0,0.0,0.0,0.0,0.0,0.0,0.0,0.0,0.0,0.0,0.0,0.0,0.0,0.0,0.0,0.0,0.0,0.0,0.0,0.0,0.0,0.0,0.0,0.0,0.0,0.0,0.0,0.0,0.0,0.0,0.0,0.0,0.0,0.0,0.0,0.0,0.0,0.0,0.0,0.0,-5.2555,-5.3041,0.0,0.0,0.0,0.0,0.0,0.0,0.0,0.0,0.0,0.0,0.0,0.0,0.0,0.0,0.0,0.0,0.0,0.0,0.0,0.0,0.0,0.0,0.0,0.0,0.0,0.0,0.0,0.0,0.0,0.0,0.0,0.0,0.0,0.0,0.0,0.0,0.0,0.0,0.0,0.0,-4.8635,-5.0919,-5.2725,-5.3533,-5.3886,-5.3941,-5.3791,-5.3395,-5.2505,-5.0963,-4.9614,0.0,0.0,0.0,0.0,0.0,0.0,0.0,0.0,0.0,0.0,0.0,0.0,0.0,0.0,0.0,0.0,0.0,0.0,0.0,0.0,0.0,0.0,0.0,0.0,0.0,0.0,0.0,0.0,0.0,0.0,0.0,0.0,0.0,0.0,0.0,0.0,0.0,0.0,0.0,0.0,0.0,0.0,0.0,0.0,0.0,0.0,0.0,0.0,0.0,0.0,0.0,0.0,0.0,0.0,0.0,0.0,0.0,0.0,0.0,-5.1635,-5.181,0.0,0.0,0.0,0.0,0.0,0.0,0.0,0.0,0.0,0.0,0.0,0.0,0.0,0.0,0.0,0.0,0.0,0.0,0.0,0.0,0.0,0.0,0.0,0.0,0.0,0.0,0.0,0.0,0.0,0.0,0.0,0.0,0.0,0.0,0.0,0.0,0.0,0.0,0.0,0.0,-4.8117,-5.0301,-5.1828,-5.2161,-5.22,-5.1833,-5.0832,-5.0435,-4.9863,-4.9089,-4.776,0.0,0.0,0.0,0.0,0.0,0.0,0.0,0.0,0.0,0.0,0.0,0.0,0.0,0.0,0.0,0.0,0.0,0.0,0.0,0.0,0.0,0.0,0.0,0.0,0.0,0.0,0.0,0.0,0.0,0.0,0.0,0.0,0.0,0.0,0.0,0.0,0.0,0.0,0.0,0.0,0.0,0.0,0.0,0.0,0.0,0.0,0.0,0.0,0.0,0.0,0.0,0.0,0.0,-5.1615,-5.1966,-5.1966,-5.1966,-5.2296,-5.2647,-5.0617,-5.0419,-5.1455,-5.0375,0.0,0.0,0.0,0.0,0.0,0.0,0.0,0.0,0.0,0.0,0.0,0.0,0.0,0.0,0.0,0.0,0.0,0.0,0.0,0.0,0.0,0.0,-4.5302,-4.4888,-4.5567,-4.5567,-4.2998,0.0,0.0,0.0,0.0,0.0,0.0,0.0,0.0,0.0,0.0,0.0,-4.7718,-4.9436,-5.0427,-5.0399,-5.0383,-4.9694,-4.8104,-4.7944,-4.7661,-4.7042,-4.5844,-4.5578,0.0,0.0,0.0,0.0,0.0,0.0,0.0,0.0,0.0,0.0,0.0,0.0,0.0,0.0,0.0,0.0,0.0,0.0,0.0,0.0,0.0,0.0,0.0,0.0,0.0,0.0,0.0,0.0,0.0,0.0,0.0,0.0,-5.0574,-5.0519,0.0,0.0,0.0,0.0,0.0,0.0,0.0,0.0,0.0,0.0,0.0,0.0,0.0,-4.9488,-5.0036,-4.9852,-4.9787,-4.9812,-5.0879,-5.1387,-5.1387,-5.1387,-5.1438,-5.1554,-5.1184,0.0,-5.1971,-5.0794,0.0,0.0,0.0,0.0,0.0,0.0,0.0,0.0,0.0,0.0,0.0,0.0,0.0,0.0,0.0,0.0,0.0,0.0,0.0,0.0,0.0,0.0,-4.6209,-4.4382,-4.4046,-4.4,-4.3081,-4.3267,-4.323,-4.1819,-4.1813,-4.1928,0.0,0.0,0.0,0.0,0.0,0.0,-4.6391,-4.7178,-4.761,-4.7624,-4.7652,-4.7521,-4.7232,-4.7232,-4.6952,-4.6278,-4.5536,-4.5473,-4.6194,-4.4369,0.0,0.0,0.0,0.0,0.0,0.0,0.0,0.0,0.0,0.0,0.0,0.0,0.0,0.0,0.0,0.0,0.0,0.0,0.0,0.0,0.0,0.0,0.0,0.0,0.0,0.0,0.0,0.0,0.0,-5.0436,-5.1115,-4.9906,-5.0288,-4.9801,0.0,0.0,0.0,0.0,0.0,0.0,0.0,0.0,0.0,-5.028,-4.9744,-4.9808,-5.0704,-5.0922,-5.1021,-5.1021,-5.1825,-5.2201,-5.2201,-5.2201,-5.2201,-5.2201,-5.2201,-5.2155,-5.2067,-5.1023,-5.0318,-4.9764,0.0,0.0,0.0,0.0,-4.887,-4.8897,-4.9693,-4.9831,-4.9666,-4.9391,0.0,0.0,0.0,0.0,0.0,0.0,0.0,-4.4962,-4.4626,-4.5103,-4.538,-4.449,-4.4518,-4.4518,-4.3639,-4.3259,-4.2838,-4.2035,-4.2535,-4.2749,-4.1619,-4.1695,0.0,0.0,0.0,-4.4359,-4.5052,-4.5934,-4.6377,-4.5976,-4.5925,-4.5608,-4.4833,-4.4779,-4.4996,-4.5444,-4.4879,-4.5033,-4.6126,-4.462,-4.4123,0.0,0.0,0.0,0.0,0.0,0.0,0.0,0.0,0.0,0.0,0.0,0.0,0.0,0.0,0.0,0.0,0.0,0.0,0.0,0.0,0.0,0.0,0.0,0.0,0.0,0.0,0.0,0.0,-5.0555,-5.1056,-4.9367,-5.03,-4.9978,0.0,0.0,0.0,0.0,0.0,0.0,-4.7933,-4.8485,-4.9339,-5.0619,-5.0519,-5.0921,-5.19,-5.2176,-5.2327,-5.2327,-5.2729,-5.2929,-5.2929,-5.2929,-5.2929,-5.2929,-5.2929,-5.2528,-5.1817,-5.1023,-5.039,-4.9863,-4.9653,-4.9311,-4.8989,-4.9418,-4.9392,-4.9338,-5.0771,-5.104,-5.0658,-5.0098,-4.9021,-4.7675,-4.6114,0.0,0.0,0.0,0.0,-4.4141,-4.4658,-4.4704,-4.4618,-4.4618,-4.4844,-4.4819,-4.3991,-4.3363,-4.2891,-4.2397,-4.2982,-4.3089,-4.1699,-4.161,0.0,-4.1406,-4.2445,-4.3487,-4.4135,-4.4888,-4.5074,-4.4537,-4.4481,-4.4071,-4.3073,-4.2986,-4.3436,-4.4427,-4.409,-4.4415,-4.5768,-4.4788,-4.4449,-4.4947,0.0,0.0,0.0,0.0,0.0,0.0,0.0,0.0,0.0,0.0,0.0,0.0,0.0,0.0,0.0,0.0,0.0,0.0,0.0,0.0,0.0,0.0,0.0,0.0,0.0,0.0,0.0,0.0,0.0,-4.8863,-4.9783,0.0,0.0,0.0,0.0,-4.709,-4.8158,-4.924,-5.0193,-5.0795,-5.185,-5.3432,-5.303,-5.303,-5.3582,-5.313,-5.2879,-5.2879,-5.2904,-5.2929,-5.2929,-5.2929,-5.2929,-5.2929,-5.2929,-5.2327,-5.1272,-5.066,-5.0122,-4.9467,-4.7893,-4.7237,-4.7212,-4.7262,-4.754,-4.803,-4.8106,-4.8484,-4.8838,-4.8257,-4.697,-4.5557,-4.4843,-4.3967,0.0,0.0,-4.386,-4.3954,-4.4508,-4.4626,-4.4618,-4.4618,-4.4242,-4.3865,-4.3815,-4.3363,-4.2841,-4.2292,-4.1818,-4.1406,-4.1398,0.0,-4.2468,-4.3088,-4.3138,-4.3335,-4.4019,-4.355,-4.3159,-4.3073,-4.3073,-4.3073,-4.3042,-4.2986,-4.3042,-4.3073,-4.3048,-4.3661,-4.4995,-4.4415,-4.4162,-4.4339,-4.3125,0.0,0.0,0.0,0.0,0.0,0.0,0.0,0.0,0.0,0.0,0.0,0.0,0.0,0.0,0.0,0.0,0.0,0.0,0.0,0.0,0.0,0.0,0.0,0.0,0.0,0.0,0.0,0.0,-5.0368,-5.1046,0.0,-4.8887,-4.9213,-4.9289,-4.8761,-4.9766,-5.087,-5.1975,-5.2226,-5.2929,-5.421,-5.3381,-5.3181,-5.3683,-5.3181,-5.2929,-5.2929,-5.2929,-5.2929,-5.2929,-5.2929,-5.2929,-5.2929,-5.2929,-5.2503,-5.1774,-5.1197,-5.0419,-4.954,-4.8937,-4.851,-4.8234,-4.8586,-4.8611,-4.851,-4.8862,-4.8887,-4.856,-4.728,-4.625,-4.5372,-4.4794,-4.4342,-4.4091,-4.4267,-4.4593,-4.492,-4.5121,-4.5447,-4.5522,-4.4794,-4.4468,-4.4141,-4.3413,-4.3112,-4.2911,-4.2766,-4.2233,-4.1767,-4.1408,-4.1486,-4.1644,-4.1491,-4.2084,-4.2585,-4.2843,-4.2941,-4.2986,-4.2986,-4.2986,-4.2986,-4.2986,-4.2986,-4.2986,-4.2986,-4.2986,-4.3184,-4.3713,-4.3508,-4.3434,-4.3576,-4.2366,-4.1028,0.0,0.0,0.0,0.0,0.0,0.0,0.0,0.0,0.0,0.0,0.0,0.0,0.0,0.0,0.0,0.0,0.0,0.0,0.0,0.0,0.0,0.0,0.0,0.0,0.0,-4.9352,-5.0845,-5.1247,-5.2251,-5.2201,-5.0343,-5.0996,-5.1222,-5.0494,-5.1297,-5.2226,-5.313,-5.3181,-5.3607,-5.4536,-5.3658,-5.3356,-5.3708,-5.3181,-5.2929,-5.2929,-5.2929,-5.2929,-5.2929,-5.2929,-5.2829,-5.2653,-5.2653,-5.2226,-5.1498,-5.1147,-5.0444,-4.959,-4.959,-4.9364,-4.9088,-4.9464,-4.9364,-4.9063,-4.9264,-4.8837,-4.8033,-4.6954,-4.6225,-4.5698,-4.5296,-4.5196,-4.5196,-4.5196,-4.5472,-4.5773,-4.5773,-4.5748,-4.5547,-4.4794,-4.4342,-4.3865,-4.3137,-4.2986,-4.2986,-4.2986,-4.274,-4.2313,-4.1706,-4.1756,-4.1706,-4.1153,-4.1856,-4.2489,-4.2489,-4.276,-4.2986,-4.2986,-4.2986,-4.2986,-4.2986,-4.2811,-4.2766,-4.2766,-4.2534,-4.2434,-4.2434,-4.2434,-4.2392,-4.232,-4.0626,-3.9064,-3.7731,0.0,0.0,0.0,0.0,0.0,0.0,0.0,0.0,0.0,0.0,0.0,0.0,0.0,0.0,0.0,0.0,0.0,0.0,0.0,0.0,0.0,0.0,0.0,-4.6441,-4.9327,-5.1189,-5.1281,-5.3187,-5.3638,-5.1574,-5.2779,-5.3256,-5.2201,-5.2628,-5.3155,-5.3683,-5.3683,-5.3959,-5.4536,-5.3984,-5.3683,-5.3708,-5.3181,-5.2929,-5.2929,-5.2929,-5.2929,-5.2904,-5.2904,-5.2603,-5.2076,-5.2076,-5.1448,-5.0419,-5.0419,-5.0092,-4.959,-4.959,-4.959,-4.959,-4.959,-4.959,-4.949,-4.8937,-4.8033,-4.7068,-4.7043,-4.6753,-4.6301,-4.6301,-4.6301,-4.6301,-4.6301,-4.6301,-4.6301,-4.6276,-4.5472,-4.4644,-4.4593,-4.379,-4.3011,-4.2986,-4.2986,-4.2961,-4.2961,-4.2961,-4.2841,-4.2313,-4.2665,-4.2816,-4.2288,-4.269,0.0,-4.2986,-4.2986,-4.2986,-4.2986,-4.2986,-4.2986,-4.2986,-4.2539,-4.2213,-4.2213,-4.163,-4.1275,-4.1275,-4.1275,-4.0971,-4.0392,-3.7895,-3.609,-3.4993,0.0,0.0,0.0,0.0,0.0,0.0,0.0,0.0,0.0,0.0,0.0,0.0,0.0,0.0,0.0,0.0,0.0,0.0,0.0,0.0,0.0,-4.265,-4.4539,-4.564,-4.7067,-4.8729,-5.0718,-5.1753,-5.2498,-5.2992,-5.3432,-5.3432,-5.2754,-5.2854,-5.3155,-5.3683,-5.3356,-5.3582,-5.4536,-5.3632,-5.3331,-5.3708,-5.3181,-5.2929,-5.2929,-5.2929,-5.2729,-5.2327,-5.2327,-5.2026,-5.1498,-5.1498,-5.1096,-5.0419,-5.0419,-5.0092,-4.959,-4.959,-4.959,-4.959,-4.959,-4.9339,-4.8912,-4.8335,-4.7707,-4.7079,-4.6677,-4.6426,-4.6301,-4.6301,-4.6301,-4.6301,-4.6301,-4.6301,-4.6225,-4.5824,-4.5472,-4.5045,-4.4217,-4.379,-4.3463,-4.3062,-4.2986,-4.2861,-4.2514,-4.2439,-4.2389,-4.2238,-4.2338,-4.2389,-4.2238,-4.269,-4.2986,-4.2986,-4.2986,-4.2986,-4.2986,-4.2986,-4.2986,-4.2986,-4.2539,-4.2213,-4.2213,-4.163,-4.1275,-4.1275,-4.0305,-3.9117,-3.7897,-3.6039,-3.4873,0.0,0.0,0.0,0.0,0.0,0.0,0.0,0.0,0.0,0.0,0.0,0.0,0.0,0.0,0.0,0.0,0.0,0.0,0.0,0.0,0.0,0.0,-4.183,-4.3067,-4.3531,-4.55,-4.7868,-5.0458,-5.1198,-5.2067,-5.3548,-5.3708,-5.3482,-5.298,-5.2119,-5.18,-5.2165,-5.1097,-5.1148,-5.2656,-5.1172,-5.1003,-5.2094,-5.1003,-5.0314,-5.0169,-5.0962,-5.1039,-5.0591,-5.1387,-5.1448,-5.0921,-5.0921,-5.0594,-5.0067,-5.0067,-4.9891,-4.959,0.0,0.0,0.0,0.0,-4.8887,-4.8335,-4.7782,-4.723,-4.6728,-4.6426,-4.6301,-4.6301,-4.6301,-4.6301,-4.6301,-4.6301,-4.615,-4.5899,-4.5573,-4.5146,-4.4618,-4.3966,-4.3639,-4.3363,-4.3037,-4.2986,-4.2811,-4.2313,-4.1982,0.0,-4.1505,-4.1656,-4.1882,-4.2162,-4.2233,-4.2384,-4.261,-4.2434,-4.2138,-4.1724,-4.1692,-4.1484,-4.1052,-4.0322,0.0,0.0,0.0,-3.8785,-3.8785,-3.7942,0.0,0.0,0.0,0.0,0.0,0.0,0.0,0.0,-3.3046,-3.3325,0.0,0.0,0.0,0.0,0.0,0.0,0.0,0.0,0.0,0.0,0.0,0.0,0.0,0.0,0.0,0.0,-4.0958,-4.0723,-4.1113,-4.4193,-4.7281,-4.9712,-5.0519,-5.1367,-5.2837,-5.3163,-5.2989,-5.2308,-5.0857,-4.989,-4.9677,-4.7999,0.0,0.0,0.0,-4.7854,-4.9677,-4.7927,-4.6805,-4.6406,-4.8027,-4.8565,-4.8159,-4.9824,-5.0381,-4.9965,-4.9965,-4.9821,-4.959,-4.959,-4.9461,-4.9307,-4.9525,-4.959,-4.954,-4.8987,-4.841,-4.7832,-4.7305,0.0,0.0,-4.6301,-4.6301,-4.6301,-4.6301,-4.6301,-4.6301,-4.6301,-4.5924,-4.5472,-4.5422,-4.4593,-4.379,-4.3714,-4.3338,-4.2986,-4.2986,-4.2986,-4.2785,-4.2238,-4.1681,-4.11,-4.0526,-4.0824,-4.1404,-4.1961,-4.1605,-4.1505,-4.2062,-4.1468,-4.072,-3.9801,-3.9543,0.0,-3.8118,-3.7193,-3.6598,-3.6598,-3.5804,-3.5233,-3.5068,-3.5068,-3.4958,-3.4792,-3.3529,-3.2851,-3.2851,-3.1596,-3.0937,-3.0918,-3.2132,-3.2448,0.0,0.0,0.0,0.0,0.0,0.0,0.0,0.0,0.0,0.0,0.0,0.0,0.0,0.0,0.0,-4.0301,-4.0698,-4.1074,-4.1172,-4.183,-4.3116,-4.5181,-4.5739,-4.6655,-4.8182,-4.9747,-5.0009,-4.8289,-4.932,-4.932,-4.7686,-4.7175,-4.7175,-4.754,-4.7175,-4.7175,-4.7563,-4.7175,-4.6805,-4.6384,-4.6744,0.0,-4.5618,-4.5966,-4.6651,-4.7521,-4.7521,-4.8289,-4.959,-4.959,-4.8698,-4.7509,-4.9023,-4.959,-4.954,-4.8987,-4.841,-4.7832,-4.7305,-4.6778,-4.6301,-4.6301,-4.6301,-4.6301,-4.6301,-4.6301,0.0,-4.6301,-4.5924,-4.5372,-4.492,-4.4292,-4.3689,-4.3237,-4.3062,-4.2986,-4.2986,-4.2986,-4.2685,-4.1681,-4.1351,-4.0974,-4.0023,-4.03,-4.0701,-4.0827,-4.1128,-4.1326,-4.148,-4.0354,-3.9458,-3.9276,-3.8189,-3.736,-3.7164,-3.6612,-3.6218,-3.6218,-3.5624,-3.4792,-3.3564,-3.3529,-3.2985,-3.1767,-3.1498,-3.1325,-3.1325,-3.1348,-3.123,-3.0898,-3.1482,-3.1538,0.0,0.0,0.0,0.0,0.0,0.0,0.0,0.0,0.0,0.0,0.0,-4.1947,-4.0747,0.0,-4.1018,-4.0896,-4.1035,-4.1172,-4.1172,-4.1172,-4.1907,-4.3869,-4.4285,-4.5083,-4.6831,-4.7904,-4.8506,-4.8506,-4.7613,-4.7029,-4.7029,-4.5127,-4.4548,-4.55,-4.4623,-4.4548,-4.5574,-4.439,-4.353,-4.3163,-4.3837,-4.3773,-4.3149,-4.4058,-4.4822,-4.5524,-4.6398,-4.6822,-4.6846,-4.6846,-4.6288,-4.5524,-4.6489,-4.7377,-4.8093,-4.7311,-4.7354,-4.7782,-4.7004,-4.6552,-4.6301,-4.6301,-4.6301,-4.6301,-4.6301,-4.6301,-4.625,-4.5974,-4.5497,-4.492,-4.4367,-4.379,-4.3313,-4.3037,-4.2986,-4.2986,-4.2986,-4.276,-4.2308,-4.1451,-4.0488,-3.9511,-3.8704,-3.8195,-3.846,-4.0265,-4.0526,-4.0336,-3.9864,-3.8918,-3.7841,-3.6511,-3.5738,-3.51,-3.4597,-3.4101,-3.3744,-3.3512,-3.3224,-3.2758,-3.2035,-3.1977,-3.1652,-3.0898,-3.0898,-3.0898,-3.0898,-3.1309,-3.1309,-3.0918,-3.1543,-3.1504,0.0,0.0,0.0,0.0,0.0,0.0,0.0,-4.1594,-4.0636,-4.109,-4.1606,-4.1664,-4.0875,-4.084,-4.1113,-4.1816,-4.1641,-4.1426,-4.1426,-4.1426,-4.1971,-4.3504,-4.3553,-4.4172,-4.5723,-4.6219,-4.6955,-4.8217,-4.5701,-4.4602,-4.5797,-4.2866,-4.1907,-4.3511,-4.2062,-4.1985,-4.3511,-4.1546,-4.0312,-3.9883,-4.1,-4.1234,-4.085,-4.2312,-4.3218,-4.3703,-4.5457,-4.5457,-4.4116,-4.4116,-4.391,-4.3565,-4.3565,-4.4436,-4.5655,-4.5332,-4.6133,-4.7234,-4.6165,-4.5793,-4.5793,-4.5793,-4.5793,-4.5853,-4.618,-4.6301,-4.62,-4.5648,-4.507,-4.4377,-4.3572,-4.2967,-4.2544,-4.2544,-4.2319,-4.215,-4.2432,-4.1973,-4.1232,-4.0537,-3.9097,-3.7809,-3.7197,-3.6108,-3.6246,-3.9062,-3.9139,-3.8571,-3.7807,-3.7068,-3.5863,-3.379,-3.3335,-3.2822,-3.2015,-3.1601,-3.125,-3.0918,-3.0898,-3.0898,-3.0898,-3.0898,-3.0898,-3.0898,-3.0898,-3.0898,-3.0898,-3.1406,-3.1387,-3.0918,-3.1758,-3.1719,-3.674,-3.7055,-3.7696,-3.87,-3.8556,-3.878,0.0,-4.0946,-4.0636,-4.1089,-4.1817,-4.221,-4.1699,-4.1973,-4.2246,-4.2344,-4.2324,-4.2285,-4.2285,-4.2285,-4.2228,-4.2073,-4.1777,-4.1618,-4.185,-4.3435,-4.3815,-4.2273,-4.3359,-4.3435,-4.1907,-4.1463,-4.1327,-4.154,-4.1327,-4.1327,-4.154,-4.0819,-4.0312,-3.9883,-3.9637,-3.9332,-3.8918,-3.9136,-4.0105,-4.1749,-4.3611,-4.4322,-4.4116,-4.4116,-4.3149,-4.1608,-4.1608,-4.1749,-4.2183,-4.4414,-4.53,-4.535,-4.4338,-4.3979,-4.3979,-4.3979,-4.3979,-4.4312,-4.5853,-4.6301,-4.62,-4.5648,-4.507,-4.412,-4.2166,-4.1287,-4.088,-4.088,-3.9756,-3.9111,-4.0534,-3.9709,-3.8335,-3.7383,-3.7042,-3.659,-3.5721,-3.5398,-3.5421,-3.5817,-3.5827,-3.5749,-3.5653,-3.4425,-3.3473,-3.3197,-3.2001,-3.1152,-3.1035,-3.0996,-3.0937,-3.0898,-3.0898,-3.0898,-3.0898,-3.0898,-3.0898,-3.0898,-3.0898,-3.0898,-3.0898,-3.1699,-3.168,-3.0918,-3.1758,-3.1719,-3.7715,-3.791,-3.8184,-3.8789,-3.918,-3.9746,-4.0898,-4.1035,-4.1094,-4.1758,-4.2383,-4.2754,-4.2578,-4.2676,-4.2812,-4.2812,-4.2598,-4.2422,-4.2422,-4.2422,-4.2266,-4.1855,-4.1641,-4.1445,-4.1191,-4.1907,-4.256,-4.2846,-4.256,-4.256,-4.2846,-4.183,-4.1172,-4.1172,-4.1172,-4.1172,-4.1172,-4.0488,-4.0078,-3.9883,-3.918,-3.875,-3.8574,-3.8574,-3.9602,-4.1255,-4.0992,-4.1488,-4.2382,-4.1347,-4.0443,-3.9746,-3.9746,-3.9746,-3.9912,-4.1532,-4.277,-4.3556,-4.2545,-4.2264,-4.2264,-4.2264,-4.2264,-4.2391,-4.3107,-4.3357,-4.3192,-4.2367,-4.1966,-4.1409,-3.9936,-3.939,-3.9229,-3.9229,-3.8698,-3.8402,-3.9053,-3.8245,-3.718,-3.6755,-3.5536,-3.4466,-3.4078,-3.3304,-3.2758,-3.2758,-3.4202,-3.5013,-3.4125,-3.3473,-3.2758,-3.192,-3.1267,-3.0898,-3.0898,-3.0898,-3.0898,-3.0898,-3.0898,-3.0898,-3.0898,-3.0898,-3.0898,-3.0898,-3.0898,-3.0898,-3.0898,-3.1504,-3.1484,-3.0898,-3.1504,-3.1465,-3.8164,-3.8398,-3.8711,-3.9258,-3.9961,-4.0664,-4.1211,-4.1426,-4.1719,-4.2461,-4.2949,-4.3242,-4.3242,-4.3242,-4.3242,-4.3242,-4.2988,-4.2773,-4.2773,-4.2676,-4.2682,-4.2783,-4.2702,-4.2443,-4.2024,-4.154,-4.1753,-4.3228,-4.1985,-4.183,-4.3207,-4.1985,-4.1172,-4.1172,-4.1172,-4.1172,-4.1172,-4.0332,-3.9902,-3.9883,-3.9004,-3.8574,-3.8574,-3.8574,-3.9333,-4.0514,-3.9208,-3.9333,-4.0443,-3.9136,-3.8574,-3.8574,-3.8574,-3.8574,-3.8675,-3.9039,-4.0303,-4.1705,-4.0957,-4.0582,-4.0472,-4.0472,-4.0472,-4.0602,-4.1052,-4.1091,-4.08,-3.9949,-3.959,-3.9176,-3.7907,-3.7566,-3.7566,-3.7566,-3.7205,-3.7023,-3.7445,-3.655,-3.5589,-3.546,-3.3928,-3.2617,-3.2493,-3.1614,-3.0898,-3.0898,-3.2721,-3.3698,-3.2644,-3.2473,-3.2092,-3.0995,-3.0898,-3.0898,-3.0898,-3.0898,-3.0898,-3.0898,-3.0898,-3.0898,-3.0898,-3.0898,-3.0898,-3.0898,-3.0898,-3.0898,-3.0898,-3.1309,-3.1309,-3.0898,-3.1328,-3.1348,-3.7441,-3.7949,-3.8789,-3.9648,-4.0195,-4.0742,-4.1582,-4.209,-4.2519,-4.2969,-4.3398,-4.3691,-4.3691,-4.3691,-4.3691,-4.3691,-4.3672,-4.3672,-4.3672,-4.332,-4.3598,-4.5076,-4.4907,-4.4426,-4.4063,-4.235,-4.125,-4.125,-4.125,-4.125,-4.125,-4.125,-4.1172,-4.1172,-4.1172,-4.1172,-4.1172,-4.0332,-3.9902,-3.9883,-3.9004,-3.8574,-3.8574,-3.8574,-3.8647,-3.872,-3.8647,-3.8647,-3.8647,-3.8647,-3.8574,-3.8574,-3.8574,-3.8574,-3.8476,-3.7688,-3.8505,-3.9899,-3.9416,-3.9042,-3.8663,-3.8663,-3.8663,-3.8993,-4.0666,-4.0908,-4.0415,-3.9837,-3.9344,-3.8548,-3.6401,-3.5867,-3.5867,-3.5867,-3.4674,-3.3965,-3.556,-3.4329,-3.2779,-3.2429,-3.1917,-3.1426,-3.1015,-3.0957,-3.0898,-3.0898,-3.1015,-3.0995,-3.0937,-3.0937,-3.0937,-3.0898,-3.0898,-3.0898,-3.0898,-3.0898,-3.0898,-3.0898,-3.0898,-3.0898,-3.0898,-3.0898,-3.0898,-3.0898,-3.0898,-3.0898,-3.0898,-3.1309,-3.1309,-3.0898,-3.1328,-3.1504,-3.8027,-3.8555,-3.9199,-4.0098,-4.0625,-4.1172,-4.2031,-4.2324,-4.2558,-4.2988,-4.3183,-4.3203,-4.291,-4.3086,-4.3281,-4.3281,-4.3516,-4.3711,-4.3711,-4.3574,-4.3467,-4.344,-4.3279,-4.2899,-4.2276,-4.389,-4.4548,-4.3228,-4.3151,-4.3151,-4.3151,-4.1907,-4.1172,-4.1172,-4.1172,-4.1035,-4.0742,-4.0176,-3.9746,-3.9434,-3.8848,-3.8574,-3.8574,-3.8574,-3.8574,-3.8574,-3.8574,-3.8574,-3.8574,-3.8574,-3.8574,-3.8574,-3.8574,-3.8574,-3.8496,-3.793,-3.7873,-3.8057,-3.7337,-3.6977,-3.6856,-3.6856,-3.6856,-3.6991,-3.7575,-3.7652,-3.7386,-3.6606,-3.6277,-3.5863,-3.4564,-3.4195,-3.4195,-3.4195,-3.3776,-3.3466,-3.3773,-3.3087,-3.2246,-3.1816,-3.1387,-3.1055,-3.0918,-3.0898,-3.0898,-3.0898,-3.0898,-3.0898,-3.0898,-3.0898,-3.0898,-3.0898,-3.0898,-3.0898,-3.0898,-3.0898,-3.0898,-3.0898,-3.0898,-3.0898,-3.0898,-3.0898,-3.0898,-3.0898,-3.0898,-3.0898,-3.0898,-3.1035,-3.1035,-3.0898,-3.1035,-3.1094,-3.834,-3.8887,-3.9414,-4.0293,-4.084,-4.1348,-4.2051,-4.2207,-4.2285,-4.2558,-4.2617,-4.2539,-4.2246,-4.2422,-4.2715,-4.3027,-4.3301,-4.3535,-4.3691,-4.3437,-4.3271,-4.342,-4.3218,-4.2797,-4.2333,-4.5127,-4.5945,-4.3283,-4.3718,-4.3794,-4.3075,-4.1907,-4.1172,-4.1172,-4.1016,-4.0801,-4.0527,-3.9941,-3.9414,-3.8965,-3.8711,-3.8574,-3.8574,-3.8574,-3.8574,-3.8574,-3.8574,-3.8574,-3.8574,-3.8574,-3.8574,-3.8574,-3.8574,-3.8476,-3.8301,-3.7851,-3.7441,-3.6992,-3.6445,-3.6152,-3.6016,-3.6016,-3.6016,-3.6016,-3.6016,-3.5801,-3.543,-3.4863,-3.4473,-3.4121,-3.3574,-3.3418,-3.3418,-3.3418,-3.3301,-3.3125,-3.2851,-3.2344,-3.1855,-3.1562,-3.1172,-3.0898,-3.0898,-3.0898,-3.0898,-3.0898,-3.0898,-3.0898,-3.0898,-3.0898,-3.0898,-3.0898,-3.0898,-3.0898,-3.0898,-3.0898,-3.0898,-3.0898,-3.0898,-3.0898,-3.0898,-3.0898,-3.0898,-3.0898,-3.0898,-3.0898,-3.0898,-3.0898,-3.0898,-3.0898,-3.0898,-3.0976,-3.8379,-3.8926,-3.9453,-4.0312,-4.082,-4.123,-4.166,-4.1758,-4.1738,-4.1738,-4.1738,-4.1738,-4.1699,-4.1738,-4.2031,-4.2871,-4.3047,-4.3223,-4.3652,-4.3008,-4.3181,-4.5076,-4.4496,-4.4008,-4.3987,-4.5723,-4.5276,-4.1463,-4.2999,-4.3283,-4.1463,-4.125,-4.1172,-4.1172,-4.0742,-4.0508,-4.0488,-3.9609,-3.8965,-3.8574,-3.8574,-3.8574,-3.8574,-3.8574,-3.8574,-3.8574,-3.8574,-3.8574,-3.8574,-3.8574,-3.8574,-3.8574,-3.8574,-3.8301,-3.7871,-3.7461,-3.7031,-3.666,-3.6641,-3.6367,-3.6016,-3.6016,-3.6016,-3.6016,-3.5996,-3.5391,-3.4726,-3.4687,-3.4082,-3.3457,-3.3437,-3.3418,-3.3418,-3.3418,-3.3105,-3.2793,-3.2773,-3.2109,-3.1504,-3.1484,-3.1172,-3.0898,-3.0898,-3.0898,-3.0898,-3.0898,-3.0898,-3.0898,-3.0898,-3.0898,-3.0898,-3.0898,-3.0898,-3.0898,-3.0898,-3.0898,-3.0898,-3.0898,-3.0898,-3.0898,-3.0898,-3.0898,-3.0898,-3.0898,-3.0898,-3.0898,-3.0898,-3.0898,-3.0898,-3.0898,-3.0898,-3.1094,-3.8906,-3.9375,-3.9844,-4.0391,-4.0371,-4.041,-4.1172,-4.1074,-4.084,-4.084,-4.084,-4.0742,-4.043,-4.0898,-4.1504,-4.2031,-4.2656,-4.3223,-4.3652,-4.3516,-4.3425,-4.3657,-4.3201,-4.2723,-4.2405,-4.385,-4.3815,-4.1405,-4.2999,-4.3869,-4.3359,-4.1985,-4.1172,-4.1172,-4.0742,-4.0371,-4.0059,-3.918,-3.8691,-3.8574,-3.8574,-3.8574,-3.8574,-3.8574,-3.8574,-3.8574,-3.8574,-3.8574,-3.8574,-3.8574,-3.8574,-3.8574,-3.8574,-3.8301,-3.7871,-3.7461,-3.7031,-3.6621,-3.6289,-3.6113,-3.6016,-3.6016,-3.6016,-3.5957,-3.5644,-3.5391,-3.5078,-3.4414,-3.4082,-3.3828,-3.3496,-3.3418,-3.3418,-3.3418,-3.3105,-3.2715,-3.2402,-3.1894,-3.1426,-3.1113,-3.0957,-3.0898,-3.0898,-3.0898,-3.0898,-3.0898,-3.0898,-3.0898,-3.0898,-3.0898,-3.0898,-3.0898,-3.0898,-3.0898,-3.0898,-3.0898,-3.0898,-3.0898,-3.0898,-3.0898,-3.0898,-3.0898,-3.0898,-3.0898,-3.0898,-3.0898,-3.0898,-3.0898,-3.0898,-3.0898,-3.0898,-3.0937,-3.9141,-3.9551,-3.9902,-3.9941,-3.9922,-3.9961,-4.0254,-4.0117,-3.9844,-3.9453,-3.9375,-3.9316,-3.9062,-3.9726,-4.0566,-4.1387,-4.2226,-4.3008,-4.3613,-4.3555,-4.334,-4.3105,-4.2695,-4.2266,-4.1836,-4.2539,-4.2551,-4.1327,-4.2999,-4.3718,-4.2846,-4.1753,-4.1094,-4.0898,-4.0469,-3.9941,-3.9316,-3.8828,-3.8574,-3.8574,-3.8574,-3.8574,-3.8574,-3.8574,-3.8574,-3.8574,-3.8574,-3.8574,-3.8574,-3.8574,-3.8574,-3.8555,-3.8359,-3.8027,-3.7598,-3.7187,-3.6758,-3.6348,-3.6094,-3.6016,-3.6016,-3.6016,-3.6016,-3.5937,-3.5527,-3.5254,-3.4941,-3.4258,-3.3945,-3.373,-3.3496,-3.3418,-3.3418,-3.3418,-3.2969,-3.2461,-3.2226,-3.168,-3.1172,-3.0937,-3.0898,-3.0898,-3.0898,-3.0898,-3.0898,-3.0898,-3.0898,-3.0898,-3.0898,-3.0898,-3.0898,-3.0898,-3.0898,-3.0898,-3.0898,-3.0898,-3.0898,-3.0898,-3.0898,-3.0898,-3.0898,-3.0898,-3.0898,-3.0898,-3.0898,-3.0898,-3.0898,-3.0898,-3.0898,-3.0898,-3.1074,-3.1172,-3.9375,-3.9629,-3.9805,-3.9394,-3.9512,-3.9609,-3.9199,-3.9082,-3.8809,-3.8008,-3.7832,-3.7832,-3.7832,-3.8535,-3.9551,-4.0879,-4.1797,-4.2656,-4.3574,-4.3398,-4.3164,-4.3164,-4.2773,-4.2344,-4.1933,-4.1836,-4.1621,-4.1211,-4.279,-4.2999,-4.1327,-4.1172,-4.0957,-4.0449,-4.0019,-3.9414,-3.8574,-3.8574,-3.8574,-3.8574,-3.8574,-3.8574,-3.8574,-3.8574,-3.8574,-3.8574,-3.8574,-3.8574,-3.8574,-3.8574,-3.8574,-3.8535,-3.8086,-3.7676,-3.7246,-3.6816,-3.6387,-3.6016,-3.6016,-3.6016,-3.6016,-3.6016,-3.6016,-3.5937,-3.5449,-3.5019,-3.4609,-3.4121,-3.3711,-3.3418,-3.3418,-3.3418,-3.3418,-3.3418,-3.2832,-3.2307,-3.2187,-3.1504,-3.0898,-3.0898,-3.0898,-3.0898,-3.0898,-3.0898,-3.0898,-3.0898,-3.0898,-3.0898,-3.0898,-3.0898,-3.0898,-3.0898,-3.0898,-3.0898,-3.0898,-3.0898,-3.0898,-3.0898,-3.0898,-3.0898,-3.0898,-3.0898,-3.0898,-3.0898,-3.0898,-3.0898,-3.0898,-3.0898,-3.0918,-3.0976,-3.1348,-3.1543,-4.0293,-4.0098,-3.9883,-3.9805,-3.9297,-3.8789,-3.8691,-3.8398,-3.8008,-3.75,-3.7402,-3.7402,-3.7402,-3.8105,-3.9121,-4.043,-4.1348,-4.2324,-4.3535,-4.3633,-4.3594,-4.3594,-4.3223,-4.2793,-4.2363,-4.2012,-4.1621,-4.1211,-4.154,-4.154,-4.125,-4.1172,-4.082,-4.0019,-3.9551,-3.9082,-3.8574,-3.8574,-3.8574,-3.8574,-3.8574,-3.8574,-3.8574,-3.8574,-3.8574,-3.8574,-3.8574,-3.8574,-3.8574,-3.8574,-3.8574,-3.8535,-3.8086,-3.7676,-3.7246,-3.6816,-3.6387,-3.6016,-3.6016,-3.6016,-3.6016,-3.6016,-3.6016,-3.5879,-3.5059,-3.4766,-3.4531,-3.375,-3.3476,-3.3418,-3.3418,-3.3418,-3.3418,-3.3418,-3.3047,-3.2598,-3.2246,-3.1504,-3.0898,-3.0898,-3.0898,-3.0898,-3.0898,-3.0898,-3.0898,-3.0898,-3.0898,-3.0898,-3.0898,-3.0898,-3.0898,-3.0898,-3.0898,-3.0898,-3.0898,-3.0898,-3.0898,-3.0898,-3.0898,-3.0898,-3.0898,-3.0898,-3.0898,-3.0898,-3.0898,-3.0898,-3.0898,-3.0898,-3.1074,-3.1406,-3.1484,-3.1719,-4.2084,-4.2064,-4.1617,-4.1224,-4.0776,-4.0072,-3.8334,-3.7754,-3.7422,-3.6777,-3.6641,-3.6641,-3.6641,-3.7324,-3.8262,-3.9336,-4.0234,-4.1328,-4.2832,-4.3047,-4.3203,-4.3652,-4.3535,-4.3144,-4.25,-4.2246,-4.1855,-4.123,-4.1172,-4.1172,-4.1172,-4.0957,-4.0547,-3.9922,-3.9453,-3.9004,-3.8574,-3.8574,-3.8574,-3.8574,-3.8574,-3.8574,-3.8574,-3.8574,-3.8574,-3.8574,-3.8574,-3.8574,-3.8574,-3.8574,-3.8574,-3.8516,-3.7851,-3.748,-3.7226,-3.6562,-3.6191,-3.6016,-3.6016,-3.6016,-3.6016,-3.6016,-3.6016,-3.5898,-3.5254,-3.4883,-3.457,-3.3945,-3.3594,-3.3418,-3.3418,-3.3418,-3.3418,-3.3418,-3.293,-3.2363,-3.1914,-3.1328,-3.0898,-3.0898,-3.0898,-3.0898,-3.0898,-3.0898,-3.0898,-3.0898,-3.0898,-3.0898,-3.0898,-3.0898,-3.0898,-3.0898,-3.0898,-3.0898,-3.0898,-3.0898,-3.0898,-3.0898,-3.0898,-3.0898,-3.0898,-3.0898,-3.0898,-3.0898,-3.0898,-3.0898,-3.0898,-3.0898,-3.1113,-3.1523,-3.1758,-3.209,-4.376,-4.4177,-4.4037,-4.312,-4.2555,-4.1397,-3.8548,-3.7566,-3.7051,-3.6191,-3.6016,-3.6016,-3.6016,-3.6641,-3.748,-3.8418,-3.9238,-4.0351,-4.2051,-4.2363,-4.2715,-4.3476,-4.3574,-4.3262,-4.25,-4.2344,-4.1973,-4.123,-4.1172,-4.1172,-4.1172,-4.0762,-4.0371,-4.0039,-3.9492,-3.9043,-3.8711,-3.8613,-3.8574,-3.8574,-3.8574,-3.8574,-3.8574,-3.8574,-3.8574,-3.8574,-3.8574,-3.8574,-3.8574,-3.8574,-3.8574,-3.8496,-3.7637,-3.7305,-3.7187,-3.6328,-3.6016,-3.6016,-3.6016,-3.6016,-3.6016,-3.6016,-3.6016,-3.5937,-3.5527,-3.5078,-3.4609,-3.4199,-3.375,-3.3418,-3.3418,-3.3418,-3.3418,-3.3418,-3.2773,-3.207,-3.1738,-3.125,-3.0898,-3.0898,-3.0898,-3.0898,-3.0898,-3.0898,-3.0898,-3.0898,-3.0898,-3.0898,-3.0898,-3.0898,-3.0898,-3.0898,-3.0898,-3.0898,-3.0898,-3.0898,-3.0898,-3.0898,-3.0898,-3.0898,-3.0898,-3.0898,-3.0898,-3.0898,-3.0898,-3.0898,-3.0898,-3.0976,-3.125,-3.166,-3.2109,-3.2519,-4.4201,-4.5435,-4.6569,-4.5538,-4.3701,-4.1754,-4.018,-3.8505,-3.7051,-3.6191,-3.6016,-3.6016,-3.6016,-3.6406,-3.7129,-3.8379,-3.8965,-3.9863,-4.1621,-4.2187,-4.2598,-4.3086,-4.3144,-4.2949,-4.248,-4.207,-4.166,-4.1211,-4.1172,-4.1172,-4.1172,-4.0762,-4.0508,-4.0469,-3.9648,-3.918,-3.9141,-3.8769,-3.8574,-3.8574,-3.8574,-3.8574,-3.8574,-3.8574,-3.8574,-3.8574,-3.8574,-3.8574,-3.8574,-3.8574,-3.8574,-3.8496,-3.7637,-3.7305,-3.7187,-3.6328,-3.6016,-3.6016,-3.6016,-3.6016,-3.6016,-3.6016,-3.6016,-3.5937,-3.5527,-3.5078,-3.4609,-3.4199,-3.375,-3.3418,-3.3418,-3.3418,-3.3418,-3.3418,-3.2773,-3.2209,-3.2109,-3.1465,-3.0898,-3.0898,-3.0898,-3.0898,-3.0898,-3.0898,-3.0898,-3.0898,-3.0898,-3.0898,-3.0898,-3.0898,-3.0898,-3.0898,-3.0898,-3.0898,-3.0898,-3.0898,-3.0898,-3.0898,-3.0898,-3.0898,-3.0898,-3.0898,-3.0898,-3.0898,-3.0898,-3.0898,-3.0898,-3.1269,-3.168,-3.2129,-3.2539,-3.2969,-4.546,-4.6662,-4.7236,-4.7699,-4.691,-4.5319,-4.2742,-4.0515,-3.8725,-3.7759,-3.6722,-3.6016,-3.6016,-3.6152,-3.6621,-3.7637,-3.7949,-3.8672,-4.041,-4.0801,-4.1348,-4.2539,-4.2461,-4.2344,-4.2422,-4.2051,-4.1621,-4.1211,-4.1172,-4.1172,-4.1172,-4.1016,-4.0801,-4.0527,-4.0176,-3.9746,-3.9199,-3.9043,-3.8828,-3.8574,-3.8574,-3.8574,-3.8574,-3.8574,-3.8574,-3.8574,-3.8574,-3.8574,-3.8574,-3.8574,-3.8418,-3.8125,-3.7519,-3.7148,-3.6836,-3.625,-3.6016,-3.6016,-3.6016,-3.6016,-3.6016,-3.6016,-3.6016,-3.5937,-3.5527,-3.5078,-3.4609,-3.4199,-3.375,-3.3418,-3.3418,-3.3418,-3.3418,-3.3418,-3.2773,-3.2229,-3.2229,-3.1504,-3.0898,-3.0898,-3.0898,-3.0898,-3.0898,-3.0898,-3.0898,-3.0898,-3.0898,-3.0898,-3.0898,-3.0898,-3.0898,-3.0898,-3.0898,-3.0898,-3.0898,-3.0898,-3.0898,-3.0898,-3.0898,-3.0898,-3.0898,-3.0898,-3.0898,-3.0898,-3.0898,-3.0898,-3.0898,-3.1309,-3.1738,-3.2187,-3.2598,-3.3027,-4.7124,-4.8542,-4.9151,-4.9926,-4.9304,-4.7782,-4.493,-4.2526,-4.0387,-3.8919,-3.7642,-3.6606,-3.6084,-3.6016,-3.6269,-3.6992,-3.7226,-3.7812,-3.9297,-3.9726,-4.0391,-4.1699,-4.1601,-4.1582,-4.2012,-4.1797,-4.1484,-4.1191,-4.1172,-4.1172,-4.1172,-4.1172,-4.1035,-4.0723,-4.0586,-4.0156,-3.9414,-3.9277,-3.8984,-3.8574,-3.8574,-3.8574,-3.8574,-3.8574,-3.8574,-3.8574,-3.8574,-3.8574,-3.8574,-3.8574,-3.8398,-3.8066,-3.7519,-3.7109,-3.6797,-3.623,-3.6016,-3.6016,-3.6016,-3.6016,-3.6016,-3.6016,-3.5937,-3.5742,-3.5312,-3.4961,-3.4609,-3.4199,-3.375,-3.3418,-3.3418,-3.3418,-3.3398,-3.3262,-3.2695,-3.2129,-3.2012,-3.1406,-3.0898,-3.0898,-3.0898,-3.0898,-3.0898,-3.0898,-3.0898,-3.0898,-3.0898,-3.0898,-3.0898,-3.0898,-3.0898,-3.0898,-3.0898,-3.0898,-3.0898,-3.0898,-3.0898,-3.0898,-3.0898,-3.0898,-3.0898,-3.0898,-3.0898,-3.0898,-3.0898,-3.0957,-3.1074,-3.1504,-3.1934,-3.2363,-3.2793,-3.3144,-4.9106,-5.1324,-5.3362,-5.2309,-5.0313,-4.8124,-4.655,-4.4325,-4.1817,-3.9184,-3.8597,-3.8021,-3.6336,-3.6016,-3.6172,-3.6601,-3.7031,-3.7598,-3.8457,-3.9336,-4.0059,-4.0488,-4.0547,-4.0703,-4.1152,-4.1191,-4.1172,-4.1172,-4.1172,-4.1172,-4.1172,-4.1172,-4.1172,-4.1172,-4.0742,-4.0312,-3.9883,-3.9434,-3.8984,-3.8574,-3.8574,-3.8574,-3.8574,-3.8574,-3.8574,-3.8574,-3.8574,-3.8574,-3.8574,-3.8574,-3.8574,-3.8476,-3.7637,-3.7305,-3.7187,-3.6328,-3.6016,-3.6016,-3.6016,-3.6016,-3.6016,-3.6016,-3.5742,-3.5312,-3.4844,-3.4707,-3.4609,-3.4199,-3.375,-3.3418,-3.3418,-3.3418,-3.332,-3.2891,-3.248,-3.2051,-3.1621,-3.1191,-3.0898,-3.0898,-3.0898,-3.0898,-3.0898,-3.0898,-3.0898,-3.0898,-3.0898,-3.0898,-3.0898,-3.0898,-3.0898,-3.0898,-3.0898,-3.0898,-3.0898,-3.0898,-3.0898,-3.0898,-3.0898,-3.0898,-3.0898,-3.0898,-3.0898,-3.0898,-3.0898,-3.1094,-3.1504,-3.1953,-3.2383,-3.2793,-3.3223,-3.3418,-4.7014,-4.8687,-5.0186,-5.0764,-5.0398,-4.9504,-4.8244,-4.6175,-4.372,-4.093,-3.9453,-3.8088,-3.6336,-3.6016,-3.625,-3.6973,-3.7207,-3.7598,-3.8457,-3.9062,-3.9687,-4.043,-4.1035,-4.1348,-4.1191,-4.1172,-4.1172,-4.1172,-4.1172,-4.1172,-4.1172,-4.1172,-4.1172,-4.1172,-4.1035,-4.0625,-3.9902,-3.9746,-3.9297,-3.8574,-3.8574,-3.8574,-3.8574,-3.8574,-3.8574,-3.8574,-3.8574,-3.8574,-3.8555,-3.8262,-3.7969,-3.7656,-3.709,-3.668,-3.6387,-3.6113,-3.6016,-3.6016,-3.6016,-3.6016,-3.5976,-3.5684,-3.5508,-3.5254,-3.4512,-3.4277,-3.418,-3.375,-3.3535,-3.3418,-3.3418,-3.3418,-3.332,-3.2891,-3.248,-3.2051,-3.1621,-3.1191,-3.0898,-3.0898,-3.0898,-3.0898,-3.0898,-3.0898,-3.0898,-3.0898,-3.0898,-3.0898,-3.0898,-3.0898,-3.0898,-3.0898,-3.0898,-3.0898,-3.0898,-3.0898,-3.0898,-3.0898,-3.0898,-3.0898,-3.0898,-3.0898,-3.0898,-3.0898,-3.0898,-3.1094,-3.1523,-3.1953,-3.2539,-3.3223,-3.3359,-3.3418,-4.7226,-4.8428,-4.9193,-4.9566,-4.9421,-4.8682,-4.7126,-4.5527,-4.3525,-4.08,-3.945,-3.8228,-3.6375,-3.6016,-3.6191,-3.6719,-3.6953,-3.7305,-3.7988,-3.8594,-3.9297,-4.0176,-4.0898,-4.1211,-4.0957,-4.1074,-4.1172,-4.1172,-4.1172,-4.1172,-4.1172,-4.1172,-4.1172,-4.1172,-4.1016,-4.0586,-3.9902,-3.9726,-3.9277,-3.8574,-3.8574,-3.8574,-3.8574,-3.8574,-3.8574,-3.8574,-3.8574,-3.8574,0.0,-3.8105,-3.7773,-3.748,-3.6894,-3.6504,-3.625,-3.6074,-3.6016,-3.6016,-3.6016,-3.6016,-3.5957,-3.5527,-3.5176,-3.4766,-3.4043,-3.3828,-3.3769,-3.3496,-3.3418,-3.3418,-3.3418,-3.3418,-3.3281,-3.2695,-3.2363,-3.2012,-3.1406,-3.1074,-3.0898,-3.0898,-3.0898,-3.0898,-3.0898,-3.0898,-3.0898,-3.0898,-3.0898,-3.0898,-3.0898,-3.0898,-3.0898,-3.0898,-3.0898,-3.0898,-3.0898,-3.0898,-3.0898,-3.0898,-3.0898,-3.0898,-3.0898,-3.0898,-3.0898,-3.0898,-3.1055,-3.1348,-3.1758,-3.2344,-3.291,-3.3418,-3.3418,-3.3418,0.0,-4.9621,-4.9925,-4.8579,-4.7551,-4.6229,-4.3848,-4.2906,0.0,-3.9184,-3.8866,-3.8517,-3.6414,-3.6016,-3.6035,-3.6055,-3.6406,-3.6836,-3.7285,-3.8105,-3.9004,-3.9883,-4.0332,-4.0566,-4.0566,-4.0937,-4.1172,-4.1133,-4.1133,-4.1113,-4.1094,-4.1113,-4.1113,-4.1094,-4.0684,-4.0293,-3.9902,-3.9434,-3.8984,-3.8574,-3.8574,-3.8574,-3.8574,-3.8574,-3.8574,-3.8574,-3.8574,-3.8574,-3.8535,-3.8066,-3.7871,-3.7793,-3.6953,-3.6621,-3.6582,-3.6172,-3.6016,-3.6016,-3.6016,-3.5996,-3.5898,-3.5449,-3.4726,-3.3945,-3.3535,-3.3418,-3.3418,-3.3418,-3.3418,-3.3418,-3.3418,-3.3418,-3.3203,-3.2363,-3.2229,-3.1934,-3.1074,-3.0898,-3.0898,-3.0898,-3.0898,-3.0898,-3.0898,-3.0898,-3.0898,-3.0898,-3.0898,-3.0898,-3.0898,-3.0898,-3.0898,-3.0898,-3.0898,-3.0898,-3.0898,-3.0898,-3.0898,-3.0898,-3.0898,-3.0898,-3.0898,-3.0898,-3.0898,-3.0937,-3.1367,-3.1816,-3.2207,-3.3027,-3.3418,-3.3418,-3.3418,-3.3418,-4.354,0.0,-4.8031,-4.603,-4.5667,-4.5167,0.0,-4.2232,-4.1462,-3.912,-3.8681,-3.8212,-3.6355,-3.6016,-3.6133,-3.6465,-3.6601,-3.6934,-3.7676,-3.8828,-3.9902,-4.0781,-4.0957,-4.1016,-4.1016,-4.1113,-4.1035,-4.0703,-4.0684,-4.0527,-4.0215,-4.0508,-4.0527,-4.0215,-4.0098,-4.0,-3.9902,-3.9434,-3.8984,-3.8574,-3.8574,-3.8574,-3.8574,-3.8574,-3.8574,-3.8574,-3.8574,-3.8574,-3.8516,-3.7754,-3.7441,-3.7363,-3.6504,-3.6172,-3.6152,-3.6055,-3.6016,-3.6016,-3.6016,-3.5801,-3.541,-3.4629,-3.4023,-3.3555,-3.3457,-3.3418,-3.3418,-3.3418,-3.3418,-3.3418,-3.3418,-3.3418,-3.3203,-3.2363,-3.2229,-3.1934,-3.1074,-3.0898,-3.0898,-3.0898,-3.0898,-3.0898,-3.0898,-3.0898,-3.0898,-3.0898,-3.0898,-3.0898,-3.0898,-3.0898,-3.0898,-3.0898,-3.0898,-3.0898,-3.0898,-3.0898,-3.0898,-3.0898,-3.0898,-3.0898,-3.0898,-3.0898,-3.1035,-3.1367,-3.2109,-3.2539,-3.2656,-3.3164,-3.3418,-3.3418,-3.3418,-3.3418,-4.1559,-4.3692,-4.535,-4.3528,-4.3129,-4.2683,-4.0575,-3.9855,-3.9164,-3.7724,-3.7604,-3.7368,-3.6191,-3.6191,-3.6328,-3.6367,-3.6699,-3.7246,-3.8105,-3.9004,-3.9902,-4.0781,-4.0879,-4.0879,-4.0879,-4.0879,-4.0703,-4.0273,-4.0234,-4.0137,-3.9902,-4.0117,-4.0137,-3.9902,-3.9687,-3.957,-3.957,-3.9141,-3.8809,-3.8574,-3.8574,-3.8574,-3.8574,-3.8574,-3.8574,-3.8574,-3.8574,-3.8574,-3.8516,-3.7656,-3.7305,-3.7207,-3.6348,-3.6016,-3.6016,-3.6016,-3.6016,-3.5996,-3.5801,-3.5312,-3.4707,-3.4219,-3.3769,-3.3418,-3.3418,-3.3418,-3.3418,-3.3418,-3.3418,-3.3418,-3.3418,-3.3418,-3.3203,-3.2363,-3.2229,-3.1934,-3.1074,-3.0898,-3.0898,-3.0898,-3.0898,-3.0898,-3.0898,-3.0898,-3.0898,-3.0898,-3.0898,-3.0898,-3.0898,-3.0898,-3.0898,-3.0898,-3.0898,-3.0898,-3.0898,-3.0898,-3.0898,-3.0898,-3.0898,-3.0898,-3.0898,-3.1074,-3.1465,-3.209,-3.2559,-3.2891,-3.3086,-3.332,-3.3418,-3.3418,-3.3418,-3.3418,-4.0495,-4.1506,-4.2283,-4.1165,-4.0738,-4.0041,-3.8062,-3.709,-3.6465,-3.6094,-3.6309,-3.6465,-3.6094,-3.6367,-3.6543,-3.6172,-3.6836,-3.7695,-3.8555,-3.9043,-3.9629,-4.0527,-4.0566,-4.0527,-4.0527,-4.0469,-4.0254,-3.9824,-3.9785,-3.9766,-3.9687,-3.9766,-3.9766,-3.9687,-3.9375,-3.918,-3.9101,-3.875,-3.8574,-3.8574,-3.8574,-3.8574,-3.8574,-3.8574,-3.8574,-3.8574,-3.8574,-3.8535,-3.8418,-3.7617,-3.7266,-3.7129,-3.6328,-3.6016,-3.6016,-3.6016,-3.6016,-3.5957,-3.5469,-3.4746,-3.4062,-3.4004,-3.373,-3.3418,-3.3418,-3.3418,-3.3418,-3.3418,-3.3418,-3.3418,-3.3418,-3.3418,-3.3203,-3.2363,-3.2229,-3.1934,-3.1074,-3.0898,-3.0898,-3.0898,-3.0898,-3.0898,-3.0898,-3.0898,-3.0898,-3.0898,-3.0898,-3.0898,-3.0898,-3.0898,-3.0898,-3.0898,-3.0898,-3.0898,-3.0898,-3.0898,-3.0898,-3.0898,-3.0898,-3.0918,-3.0976,-3.1387,-3.1992,-3.2773,-3.2851,-3.3066,-3.3418,-3.3418,-3.3418,-3.3418,-3.3418,-3.3418,-3.7248,-3.8307,-3.9231,-3.9057,-3.9495,-3.9351,-3.6877,-3.6211,-3.6094,-3.6035,-3.6074,-3.6094,-3.6035,-3.6367,-3.6641,-3.6582,-3.7285,-3.8125,-3.8984,-3.9492,-4.0117,-4.0976,-4.0742,-4.0527,-4.0527,-4.0195,-3.9805,-3.9336,-3.9316,-3.916,-3.8809,-3.9121,-3.9141,-3.8789,-3.9062,-3.9023,-3.8672,-3.8613,-3.8574,-3.8574,-3.8574,-3.8574,-3.8574,-3.8574,-3.8574,-3.8574,-3.8574,-3.8359,-3.7988,-3.75,-3.709,-3.6719,-3.6211,-3.6016,-3.6016,-3.6016,-3.6016,-3.5898,-3.5098,-3.4492,-3.4004,-3.3633,-3.3476,-3.3418,-3.3418,-3.3418,-3.3418,-3.3418,-3.3418,-3.3418,-3.3418,-3.3418,-3.3203,-3.2363,-3.2229,-3.1934,-3.1074,-3.0898,-3.0898,-3.0898,-3.0898,-3.0898,-3.0898,-3.0898,-3.0898,-3.0898,-3.0898,-3.0898,-3.0898,-3.0898,-3.0898,-3.0898,-3.0898,-3.0898,-3.0898,-3.0898,-3.0898,-3.0898,-3.0898,-3.1055,-3.1406,-3.1836,-3.2305,-3.2793,-3.3144,-3.3359,-3.3418,-3.3418,-3.3418,-3.3418,-3.3418,-3.3418,-3.6269,-3.7246,-3.8184,-3.7955,-3.8929,-3.951,-3.8085,-3.7383,-3.6914,-3.6465,-3.6367,-3.6289,-3.6055,-3.6562,-3.7246,-3.793,-3.8359,-3.8848,-3.9492,-3.9551,-3.9766,-4.041,-4.0078,-3.9805,-3.9805,-3.9629,-3.9336,-3.8887,-3.8867,-3.8789,-3.8594,-3.875,-3.8769,-3.8574,-3.8769,-3.8769,-3.8574,-3.8574,-3.8574,-3.8574,-3.8574,-3.8574,-3.8574,-3.8574,-3.8574,-3.8555,-3.832,-3.8105,-3.7871,-3.7226,-3.6855,-3.6621,-3.6191,-3.6016,-3.6016,-3.6016,-3.5723,-3.5254,-3.4844,-3.4277,-3.3691,-3.3496,-3.3418,-3.3418,-3.3418,-3.3418,-3.3418,-3.3418,-3.3418,-3.3418,-3.3418,-3.3418,-3.3262,-3.2656,-3.25,-3.2266,-3.1406,-3.123,-3.1172,-3.0937,-3.0898,-3.0898,-3.0898,-3.0898,-3.0898,-3.0898,-3.0898,-3.0898,-3.0898,-3.0898,-3.0898,-3.0898,-3.0898,-3.0898,-3.0898,-3.0898,-3.0898,-3.0898,-3.1094,-3.1426,-3.1855,-3.2285,-3.2695,-3.3125,-3.332,-3.3418,-3.3418,-3.3418,-3.3418,-3.3418,-3.3418,-3.3418,-3.6152,-3.6953,-3.7734,-3.75,-3.8437,-3.9375,-3.9121,-3.8398,-3.7617,-3.707,-3.6973,-3.6797,-3.6269,-3.6875,-3.7793,-3.8887,-3.9238,-3.9492,-3.9844,-3.959,-3.9492,-3.9863,-3.9492,-3.9199,-3.9199,-3.9101,-3.8926,-3.8594,-3.8574,-3.8574,-3.8574,-3.8574,-3.8574,-3.8574,-3.8574,-3.8574,-3.8574,-3.8574,-3.8574,-3.8574,-3.8574,-3.8574,-3.8574,-3.8476,-3.8418,-3.8398,-3.7969,-3.7715,-3.7578,-3.6934,-3.6621,-3.6484,-3.6152,-3.6016,-3.6016,-3.6016,-3.5527,-3.4844,-3.4746,-3.4199,-3.3555,-3.3457,-3.3418,-3.3418,-3.3418,-3.3418,-3.3418,-3.3418,-3.3418,-3.3418,-3.3418,-3.3418,-3.332,-3.2891,-3.2793,-3.2559,-3.1699,-3.1523,-3.1387,-3.0976,-3.0898,-3.0898,-3.0898,-3.0898,-3.0898,-3.0898,-3.0898,-3.0898,-3.0898,-3.0898,-3.0898,-3.0898,-3.0898,-3.0937,-3.1035,-3.1035,-3.1074,-3.1191,-3.1484,-3.1875,-3.2305,-3.2617,-3.2988,-3.3418,-3.3418,-3.3418,-3.3418,-3.3418,-3.3418,-3.3418,-3.3418,-3.3418,-3.6504,-3.6973,-3.7422,-3.7793,-3.7969,-3.8164,-3.8535,-3.7949,-3.7441,-3.7773,-3.7832,-3.7598,-3.6777,-3.7305,-3.8047,-3.8535,-3.9316,-3.9863,-3.9883,-3.9863,-3.9863,-3.9883,-3.9492,-3.9199,-3.9199,-3.8848,-3.8613,-3.8574,-3.8574,-3.8574,-3.8574,-3.8574,-3.8574,-3.8574,-3.8574,-3.8574,-3.8574,-3.8574,-3.8574,-3.8574,-3.8574,-3.8574,-3.8555,-3.8164,-3.7969,-3.7949,-3.7519,-3.7129,-3.6758,-3.6699,-3.6426,-3.6055,-3.6035,-3.6016,-3.6016,-3.6016,-3.5742,-3.5293,-3.4844,-3.4394,-3.3965,-3.3555,-3.3418,-3.3418,-3.3418,-3.3418,-3.3418,-3.3418,-3.3418,-3.3418,-3.3418,-3.3418,-3.332,-3.2891,-3.2793,-3.2559,-3.1699,-3.1523,-3.1387,-3.0976,-3.0898,-3.0898,-3.0898,-3.0898,-3.0898,-3.0898,-3.0898,-3.0898,-3.0898,-3.0898,-3.0898,-3.0898,-3.0898,-3.1055,-3.1445,-3.1465,-3.1641,-3.2051,-3.2109,-3.2305,-3.2734,-3.2773,-3.2988,-3.3418,-3.3418,-3.3418,-3.3418,-3.3418,-3.3418,-3.3418,-3.3418,-3.3418,-3.584,-3.6387,-3.6953,-3.7109,-3.7344,-3.7793,-3.875,-3.8711,-3.8457,-3.8359,-3.832,-3.8066,-3.7226,-3.7754,-3.8379,-3.8555,-3.9316,-3.9902,-3.9902,-3.9648,-3.9453,-3.9453,-3.9082,-3.8809,-3.8809,-3.8672,-3.8574,-3.8574,-3.8574,-3.8574,-3.8574,-3.8574,-3.8574,-3.8574,-3.8574,-3.8574,-3.8574,-3.8574,-3.8574,-3.8574,-3.8574,-3.8574,-3.8555,-3.8125,-3.793,-3.7891,-3.7207,-3.6816,-3.6641,-3.6387,-3.6172,-3.6016,-3.6016,-3.6016,-3.6016,-3.6016,-3.5762,-3.5332,-3.4863,-3.4434,-3.4004,-3.3555,-3.3418,-3.3418,-3.3418,-3.3418,-3.3418,-3.3418,-3.3418,-3.3418,-3.3418,-3.3418,-3.3379,-3.3223,-3.3184,-3.2949,-3.2109,-3.2129,-3.2109,-3.1426,-3.1504,-3.1601,-3.1328,-3.1269,-3.1191,-3.0937,-3.1113,-3.1269,-3.1269,-3.1523,-3.168,-3.168,-3.168,-3.1641,-3.1523,-3.2012,-3.2383,-3.2559,-3.2559,-3.2637,-3.2793,-3.3047,-3.3262,-3.3418,-3.3418,-3.3418,-3.3418,-3.3418,-3.3418,-3.3418,-3.3418,-3.3418,-3.5391,-3.5918,-3.6504,-3.6641,-3.6894,-3.7441,-3.8711,-3.9004,-3.9004,-3.8984,-3.8652,-3.8184,-3.7598,-3.7969,-3.8418,-3.8555,-3.9316,-3.9844,-3.9707,-3.9394,-3.9141,-3.9023,-3.875,-3.8574,-3.8574,-3.8574,-3.8574,-3.8574,-3.8574,-3.8574,-3.8574,-3.8574,-3.8574,-3.8574,-3.8574,-3.8574,-3.8574,-3.8437,-3.8359,-3.8359,-3.8242,-3.832,-3.8555,-3.7988,-3.7734,-3.7676,-3.6836,-3.6465,-3.6445,-3.6152,-3.6016,-3.6016,-3.6016,-3.6016,-3.6016,-3.6016,-3.584,-3.5508,-3.4902,-3.4512,-3.418,-3.3613,-3.3418,-3.3418,-3.3418,-3.3418,-3.3418,-3.3418,-3.3418,-3.3418,-3.3418,-3.3418,-3.3418,-3.3418,-3.3418,-3.3223,-3.2519,-3.2598,-3.2578,-3.1855,-3.1953,-3.207,-3.1777,-3.1601,-3.1465,-3.1328,-3.1426,-3.1562,-3.1699,-3.1992,-3.2229,-3.2229,-3.2229,-3.2109,-3.1934,-3.2461,-3.2851,-3.2988,-3.2988,-3.2988,-3.2988,-3.3262,-3.3418,-3.3418,-3.3418,-3.3418,-3.3418,-3.3418,-3.3418,-3.3418,-3.3418,-3.3418,-3.5391,-3.5684,-3.6113,-3.6543,-3.666,-3.7012,-3.8281,-3.8574,-3.8828,-3.9707,-3.8848,-3.793,-3.793,-3.793,-3.8066,-3.8496,-3.9316,-3.9726,-3.9258,-3.9199,-3.9043,-3.8633,-3.8574,-3.8574,-3.8574,-3.8574,-3.8574,-3.8574,-3.8574,-3.8574,-3.8574,-3.8574,-3.8574,-3.8574,-3.8574,-3.8574,-3.8574,-3.8144,-3.793,-3.791,-3.75,-3.7734,-3.8535,-3.7676,-3.7285,-3.7246,-3.6387,-3.6016,-3.6016,-3.6016,-3.6016,-3.6016,-3.6016,-3.6016,-3.6016,-3.6016,-3.6016,-3.5879,-3.5,-3.4707,-3.4551,-3.3691,-3.3418,-3.3418,-3.3418,-3.3418,-3.3418,-3.3418,-3.3418,-3.3418,-3.3418,-3.3418,-3.3418,-3.3418,-3.3418,-3.3301,-3.2891,-3.2793,-3.2676,-3.2246,-3.2187,-3.2187,-3.2229,-3.1816,-3.168,-3.2109,-3.1797,-3.168,-3.2129,-3.2187,-3.2187,-3.2229,-3.2187,-3.2344,-3.2754,-3.2793,-3.2988,-3.3398,-3.3418,-3.3418,-3.3418,-3.3418,-3.3418,-3.3418,-3.3418,-3.3418,-3.3418,-3.3418,-3.3418,-3.3418,-3.3418,-3.3418,-3.4551,-3.5,-3.5605,-3.5742,-3.6445,-3.7285,-3.7969,-3.8359,-3.873,-3.9297,-3.8867,-3.8281,-3.7988,-3.8164,-3.832,-3.8144,-3.8594,-3.8926,-3.8789,-3.8769,-3.8711,-3.8594,-3.8574,-3.8574,-3.8574,-3.8574,-3.8574,-3.8574,-3.8574,-3.8574,-3.8574,-3.8574,-3.8574,-3.8574,-3.8574,-3.8574,-3.8574,-3.8144,-3.793,-3.791,-3.75,-3.7441,-3.7656,-3.7109,-3.6855,-3.6816,-3.6269,-3.6016,-3.6016,-3.6016,-3.6016,-3.6016,-3.6016,-3.6016,-3.6016,-3.6016,-3.584,-3.5488,-3.4902,-3.4512,-3.416,-3.3594,-3.3418,-3.3418,-3.3418,-3.3418,-3.3418,-3.3418,-3.3418,-3.3418,-3.3418,-3.3418,-3.3418,-3.3418,-3.3418,-3.3301,-3.2891,-3.3027,-3.3105,-3.2695,-3.2851,-3.2949,-3.2656,-3.2246,-3.2012,-3.2148,-3.2051,-3.2246,-3.2949,-3.3047,-3.293,-3.2637,-3.2871,-3.2988,-3.2812,-3.3066,-3.3281,-3.3418,-3.3418,-3.3418,-3.3418,-3.3418,-3.3418,-3.3418,-3.3418,-3.3418,-3.3418,-3.3418,-3.3418,-3.3418,-3.3418,-3.3418,-3.4609,-3.5234,-3.5937,-3.6113,-3.6855,-3.7656,-3.8086,-3.8516,-3.8887,-3.9141,-3.8867,-3.8496,-3.8223,-3.8262,-3.8281,-3.8203,-3.8398,-3.8574,-3.8574,-3.8574,-3.8574,-3.8574,-3.8574,-3.8574,-3.8574,-3.8574,-3.8574,-3.8574,-3.8574,-3.8574,-3.8574,-3.8574,-3.8574,-3.8574,-3.8574,-3.8496,-3.832,-3.7891,-3.7598,-3.7422,-3.6992,-3.6797,-3.6777,-3.6719,-3.668,-3.6641,-3.6211,-3.6016,-3.6016,-3.6016,-3.6016,-3.6016,-3.6016,-3.6016,-3.6016,-3.6016,-3.5762,-3.5332,-3.4863,-3.4434,-3.4004,-3.3555,-3.3418,-3.3418,-3.3418,-3.3418,-3.3418,-3.3418,-3.3418,-3.3418,-3.3418,-3.3418,-3.3418,-3.3418,-3.3418,-3.3359,-3.3105,-3.3242,-3.334,-3.3086,-3.3242,-3.334,-3.3086,-3.2695,-3.248,-3.2637,-3.2656,-3.2851,-3.3359,-3.3418,-3.332,-3.3066,-3.3262,-3.332,-3.3066,-3.3281,-3.3418,-3.3418,-3.3418,-3.3418,-3.3418,-3.3418,-3.3418,-3.3418,-3.3418,-3.3418,-3.3418,-3.3418,-3.3418,-3.3418,-3.3418,-3.3418,-3.5195,-3.5957,-3.6719,-3.7187,-3.7637,-3.8014,-3.8258,-3.8627,-3.8918,-3.9141,-3.8848,-3.8574,-3.8574,-3.8242,-3.8105,-3.8516,-3.8574,-3.8574,-3.8574,-3.8574,-3.8574,-3.8574,-3.8574,-3.8574,-3.8574,-3.8574,-3.8574,-3.8574,-3.8574,-3.8574,-3.8574,-3.8574,-3.8574,-3.8574,-3.8574,-3.8359,-3.793,-3.75,-3.709,-3.666,-3.623,-3.6016,-3.6035,-3.6426,-3.6621,-3.6582,-3.6191,-3.6016,-3.6016,-3.6016,-3.6016,-3.6016,-3.6016,-3.5996,-3.5957,-3.5957,-3.5664,-3.5215,-3.4785,-3.4375,-3.3945,-3.3555,-3.3418,-3.3418,-3.3418,-3.3418,-3.3418,-3.3418,-3.3418,-3.3418,-3.3418,-3.3418,-3.3418,-3.3418,-3.3418,-3.3418,-3.3418,-3.3418,-3.3418,-3.3418,-3.3418,-3.3418,-3.3418,-3.3066,-3.293,-3.3301,-3.3398,-3.3418,-3.3418,-3.3418,-3.3418,-3.3418,-3.3418,-3.3418,-3.3418,-3.3418,-3.3418,-3.3418,-3.3418,-3.3418,-3.3418,-3.3418,-3.3418,-3.3418,-3.3418,-3.3418,-3.3418,-3.3418,-3.3418,-3.3418,-3.3418,-3.3437,-3.4726,-3.5488,-3.6348,-3.7109,-3.7871,-3.8074,-3.6553,-3.6256,-3.6775,-3.8399,-3.8633,-3.8574,-3.8574,-3.8496,-3.8476,-3.8555,-3.8574,-3.8574,-3.8574,-3.8574,-3.8574,-3.8574,-3.8574,-3.8574,-3.8574,-3.8574,-3.8574,-3.8574,-3.8574,-3.8574,-3.8574,-3.8574,-3.8574,-3.8574,-3.8574,-3.8359,-3.793,-3.75,-3.709,-3.666,-3.623,-3.6016,-3.6016,-3.6113,-3.6152,-3.6152,-3.6055,-3.6016,-3.6016,-3.6016,-3.6016,-3.6016,-3.6016,-3.582,-3.5527,-3.5527,-3.5039,-3.4336,-3.4238,-3.3926,-3.3535,-3.3457,-3.3418,-3.3418,-3.3418,-3.3418,-3.3418,-3.3418,-3.3418,-3.3418,-3.3418,-3.3418,-3.3418,-3.3418,-3.3418,-3.3418,-3.3418,-3.3418,-3.3418,-3.3418,-3.3418,-3.3418,-3.3418,-3.3066,-3.2832,-3.291,-3.3203,-3.3418,-3.3418,-3.3418,-3.3418,-3.3418,-3.3418,-3.3418,-3.3418,-3.3418,-3.3418,-3.3418,-3.3418,-3.3418,-3.3418,-3.3418,-3.3418,-3.3418,-3.3418,-3.3418,-3.3418,-3.3418,-3.3418,-3.3418,-3.3418,-3.3613,-3.4531,-3.4796,-3.5135,-3.6149,-3.6786,-3.6811,-3.5738,-3.5497,-3.5812,-3.6885,-3.7106,-3.7419,-3.8428,-3.8574,-3.8574,-3.8574,-3.8574,-3.8574,-3.8574,-3.8574,-3.8574,-3.8574,-3.8574,-3.8574,-3.8574,-3.8574,-3.8574,-3.8574,-3.8574,-3.8574,-3.8574,-3.8379,-3.8262,-3.8262,-3.8066,-3.7754,-3.7324,-3.7109,-3.6777,-3.6348,-3.6133,-3.6016,-3.6016,-3.6016,-3.6016,-3.6016,-3.6016,-3.6016,-3.6016,-3.6016,-3.6016,-3.5996,-3.5801,-3.5586,-3.5371,-3.5137,-3.4648,-3.4082,-3.4082,-3.3789,-3.3418,-3.3418,-3.3418,-3.3418,-3.3418,-3.3418,-3.3418,-3.3418,-3.3418,-3.3418,-3.3418,-3.3418,-3.3418,-3.3418,-3.3418,-3.3418,-3.3418,-3.3418,-3.3418,-3.3418,-3.3418,-3.3418,-3.3418,-3.3242,-3.3105,-3.3105,-3.3281,-3.3418,-3.3418,-3.3418,-3.3418,-3.3418,-3.3418,-3.3418,-3.3418,-3.3418,-3.3418,-3.3418,-3.3418,-3.3418,-3.3418,-3.3418,-3.3418,-3.3418,-3.3418,-3.3418,-3.3418,-3.3418,-3.3418,-3.3437,-3.3633,-3.3848,-3.4303,-3.4071,-3.3875,-3.5118,-3.5163,-3.49,-3.4509,-3.4751,-3.4975,-3.4975,-3.5515,-3.6571,-3.8263,-3.8574,-3.8574,-3.8574,-3.8574,-3.8574,-3.8574,-3.8574,-3.8574,-3.8574,-3.8574,-3.8574,-3.8574,-3.8574,-3.8574,-3.8574,-3.8574,-3.8535,-3.8476,-3.8125,-3.7891,-3.7812,-3.748,-3.709,-3.668,-3.668,-3.6445,-3.6016,-3.6016,-3.6016,-3.6016,-3.6016,-3.6016,-3.6016,-3.6016,-3.6016,-3.6016,-3.6016,-3.6016,-3.5976,-3.5566,-3.5351,-3.5215,-3.4766,-3.4316,-3.3965,-3.3965,-3.373,-3.3418,-3.3418,-3.3418,-3.3418,-3.3418,-3.3418,-3.3418,-3.3418,-3.3418,-3.3418,-3.3418,-3.3418,-3.3418,-3.3418,-3.3418,-3.3418,-3.3418,-3.3418,-3.3418,-3.3418,-3.3418,-3.3418,-3.3418,-3.3418,-3.3418,-3.3418,-3.3418,-3.3418,-3.3418,-3.3418,-3.3418,-3.3418,-3.3418,-3.3418,-3.3418,-3.3418,-3.3418,-3.3418,-3.3418,-3.3418,-3.3418,-3.3418,-3.3418,-3.3418,-3.3418,-3.3418,-3.3418,-3.3418,-3.3418,-3.3437,-3.3867,-3.4121,-3.3717,-3.3554,-3.3803,-3.472,-3.3908,-3.2413,-3.0654,-3.1574,-3.2868,-3.2868,-3.5756,-3.8263,-3.8574,-3.8574,-3.8574,-3.8574,-3.8574,-3.8574,-3.8574,-3.8574,-3.8574,-3.8574,-3.8574,-3.8574,-3.8574,-3.8574,-3.8574,-3.8574,-3.8574,-3.8418,-3.8027,-3.7949,-3.7754,-3.7402,-3.7324,-3.709,-3.668,-3.668,-3.6445,-3.6016,-3.6016,-3.6016,-3.6016,-3.6016,-3.6016,-3.6016,-3.6016,-3.6016,-3.6016,-3.6016,-3.6016,-3.5976,-3.5566,-3.5137,-3.4746,-3.4316,-3.3887,-3.3516,-3.3516,-3.3476,-3.3418,-3.3418,-3.3418,-3.3418,-3.3418,-3.3418,-3.3418,-3.3418,-3.3418,-3.3418,-3.3418,-3.3418,-3.3418,-3.3418,-3.3418,-3.3418,-3.3418,-3.3418,-3.3418,-3.3418,-3.3418,-3.3418,-3.3418,-3.3418,-3.3418,-3.3418,-3.3418,-3.3418,-3.3418,-3.3418,-3.3418,-3.3418,-3.3418,-3.3418,-3.3418,-3.3418,-3.3418,-3.3418,-3.3418,-3.3418,-3.3418,-3.3418,-3.3418,-3.3418,-3.3418,-3.3418,-3.3418,-3.3418,-3.3418,-3.3437,-3.3867,-3.4258,-3.2758,-3.2741,-3.3036,-3.3137,-3.1851,-3.0665,-3.1083,-3.1819,-3.2809,-3.3926,-3.6516,-3.8574,-3.8574,-3.8574,-3.8574,-3.8574,-3.8574,-3.8574,-3.8574,-3.8574,-3.8574,-3.8574,-3.8574,-3.8574,-3.8574,-3.8574,-3.8574,-3.8574,-3.8574,-3.8379,-3.7949,-3.7695,-3.7383,-3.6953,-3.6699,-3.6484,-3.6309,-3.6309,-3.6211,-3.6016,-3.6016,-3.6016,-3.6016,-3.6016,-3.6016,-3.6016,-3.6016,-3.6016,-3.6016,-3.6016,-3.5879,-3.5625,-3.5176,-3.4726,-3.4297,-3.3867,-3.3594,-3.3418,-3.3418,-3.3418,-3.3418,-3.3418,-3.3418,-3.3418,-3.3418,-3.3418,-3.3418,-3.3418,-3.3418,-3.3418,-3.3418,-3.3418,-3.3418,-3.3418,-3.3418,-3.3418,-3.3418,-3.3418,-3.3418,-3.3418,-3.3418,-3.3418,-3.3418,-3.3418,-3.3418,-3.3418,-3.3418,-3.3418,-3.3418,-3.3418,-3.3418,-3.3418,-3.3418,-3.3418,-3.3418,-3.3418,-3.3418,-3.3418,-3.3418,-3.3418,-3.3418,-3.3418,-3.3418,-3.3418,-3.3418,-3.3418,-3.3418,-3.3418,-3.3555,-3.3789,-3.4219,-3.4668,-3.2676,-3.2438,-3.2295,-3.1415,-2.9993,-2.9154,-3.0543,-3.1678,-3.2961,-3.4451,-3.6811,-3.8574,-3.8574,-3.8574,-3.8574,-3.8574,-3.8574,-3.8574,-3.8574,-3.8574,-3.8574,-3.8574,-3.8574,-3.8574,-3.8574,-3.8574,-3.8574,-3.8574,-3.8574,-3.8379,-3.7949,-3.7519,-3.7109,-3.668,-3.625,-3.6016,-3.6016,-3.6016,-3.6016,-3.6016,-3.6016,-3.6016,-3.6016,-3.6016,-3.6016,-3.6016,-3.6016,-3.6016,-3.6016,-3.5898,-3.5684,-3.5332,-3.4766,-3.4336,-3.4023,-3.3574,-3.3418,-3.3418,-3.3418,-3.3418,-3.3418,-3.3418,-3.3418,-3.3418,-3.3418,-3.3418,-3.3418,-3.3418,-3.3418,-3.3418,-3.3418,-3.3418,-3.3418,-3.3418,-3.3418,-3.3418,-3.3418,-3.3418,-3.3418,-3.3418,-3.3418,-3.3418,-3.3418,-3.3418,-3.3418,-3.3418,-3.3418,-3.3418,-3.3418,-3.3418,-3.3418,-3.3418,-3.3418,-3.3418,-3.3418,-3.3418,-3.3418,-3.3418,-3.3418,-3.3418,-3.3418,-3.3418,-3.3418,-3.3418,-3.3418,-3.3418,-3.3418,-3.3418,-3.3652,-3.4082,-3.4512,-3.4941,-3.4433,-3.3454,-3.2142,-3.0136,-2.8956,-2.7932,-2.6666,-2.9532,-3.2505,-3.2657,-3.583,-3.8574,-3.8574,-3.8574,-3.8574,-3.8574,-3.8574,-3.8574,-3.8574,-3.8574,-3.8574,-3.8574,-3.8574,-3.8574,-3.8574,-3.8574,-3.8574,-3.8574,-3.8574,-3.8379,-3.7949,-3.7519,-3.7109,-3.668,-3.625,-3.6016,-3.6016,-3.6016,-3.6016,-3.6016,-3.6016,-3.6016,-3.6016,-3.6016,-3.6016,-3.6016,-3.6016,-3.6016,-3.5996,-3.5586,-3.541,-3.5312,-3.4434,-3.4082,-3.4023,-3.3574,-3.3418,-3.3418,-3.3418,-3.3418,-3.3418,-3.3418,-3.3418,-3.3418,-3.3418,-3.3418,-3.3418,-3.3418,-3.3418,-3.3418,-3.3418,-3.3418,-3.3418,-3.3418,-3.3418,-3.3418,-3.3418,-3.3418,-3.3418,-3.3418,-3.3418,-3.3418,-3.3418,-3.3418,-3.3418,-3.3418,-3.3418,-3.3418,-3.3418,-3.3418,-3.3418,-3.3418,-3.3418,-3.3418,-3.3418,-3.3418,-3.3418,-3.3418,-3.3418,-3.3418,-3.3418,-3.3418,-3.3418,-3.3418,-3.3418,-3.3418,-3.3418,-3.3418,-3.3652,-3.4082,-3.4512,-3.4941,-3.7219,-3.4522,-3.1927,-3.2221,-2.9691,-2.7509,-2.8786,-2.9712,-3.0646,-3.1916,-3.3546,-3.4694,-3.4694,-3.683,-3.8652,-3.8926,-3.875,-3.8672,-3.8945,-3.875,-3.8574,-3.8574,-3.8574,-3.8574,-3.8574,-3.8574,-3.8574,-3.8574,-3.8574,-3.8379,-3.7949,-3.7773,-3.7383,-3.6699,-3.6523,-3.6309,-3.6016,-3.6016,-3.6016,-3.6016,-3.6016,-3.6016,-3.6016,-3.6016,-3.6016,-3.6016,-3.6016,-3.6016,-3.5996,-3.5566,-3.5215,-3.4883,-3.4297,-3.3906,-3.3633,-3.3476,-3.3418,-3.3418,-3.3418,-3.3418,-3.3418,-3.3418,-3.3418,-3.3418,-3.3418,-3.3418,-3.3418,-3.3418,-3.3418,-3.3418,-3.3418,-3.3418,-3.3418,-3.3418,-3.3418,-3.3418,-3.3418,-3.3418,-3.3418,-3.3418,-3.3418,-3.3418,-3.3418,-3.3418,-3.3418,-3.3418,-3.3418,-3.3418,-3.3418,-3.3418,-3.3418,-3.3418,-3.3418,-3.3418,-3.3418,-3.3418,-3.3418,-3.3418,-3.3418,-3.3418,-3.3418,-3.3418,-3.3418,-3.3418,-3.3418,-3.3418,-3.3418,-3.3418,-3.3789,-3.4473,-3.4629,-3.5098,-3.9145,-3.6599,-3.4219,-3.3677,-3.1088,-2.8846,-2.9673,-2.9613,-2.966,-3.0755,-3.169,-3.2357,-3.2472,-3.4694,-3.6608,-3.6942,-3.6812,-3.6998,-3.7817,-3.7796,-3.7977,-3.8521,-3.8574,-3.8574,-3.8574,-3.8574,-3.8574,-3.8574,-3.8574,-3.8457,-3.8164,-3.7871,-3.7324,-3.6484,-3.6445,-3.6309,-3.6016,-3.6016,-3.6016,-3.6016,-3.6016,-3.6016,-3.6016,-3.6016,-3.6016,-3.6016,-3.6016,-3.6016,-3.5976,-3.5391,-3.498,-3.4648,-3.4082,-3.3672,-3.3418,-3.3418,-3.3418,-3.3418,-3.3418,-3.3418,-3.3418,-3.3418,-3.3418,-3.3418,-3.3418,-3.3418,-3.3418,-3.3418,-3.3418,-3.3418,-3.3418,-3.3418,-3.3418,-3.3418,-3.3418,-3.3418,-3.3418,-3.3418,-3.3418,-3.3418,-3.3418,-3.3418,-3.3418,-3.3418,-3.3418,-3.3418,-3.3418,-3.3418,-3.3418,-3.3418,-3.3418,-3.3418,-3.3418,-3.3418,-3.3418,-3.3418,-3.3418,-3.3418,-3.3418,-3.3418,-3.3418,-3.3418,-3.3418,-3.3418,-3.3418,-3.3418,-3.3418,-3.3574,-3.4004,-3.4707,-3.4863,-3.5312,0.0,0.0,0.0,-3.4207,-3.2812,-3.1764,-2.8716,-2.9033,-2.9801,-2.9079,-3.0502,-3.1877,-3.2254,-3.2337,-3.2337,-3.2353,-3.2632,-3.3499,-3.5196,-3.5725,-3.6511,-3.8321,-3.8501,-3.8501,-3.8574,-3.8574,-3.8574,-3.8574,-3.8574,-3.8574,-3.8574,-3.7754,-3.6914,-3.6074,-3.6035,-3.6016,-3.6016,-3.6016,-3.6016,-3.6016,-3.6016,-3.6016,-3.6016,-3.6016,-3.6016,-3.6016,-3.6016,-3.5996,-3.5937,-3.5059,-3.4687,-3.459,-3.375,-3.3418,-3.3418,-3.3418,-3.3418,-3.3418,-3.3418,-3.3418,-3.3418,-3.3418,-3.3418,-3.3418,-3.3418,-3.3418,-3.3418,-3.3418,-3.3418,-3.3418,-3.3418,-3.3418,-3.3418,-3.3418,-3.3418,-3.3418,-3.3418,-3.3418,-3.3418,-3.3418,-3.3418,-3.3418,-3.3418,-3.3418,-3.3418,-3.3418,-3.3418,-3.3418,-3.3418,-3.3418,-3.3418,-3.3418,-3.3418,-3.3418,-3.3418,-3.3418,-3.3418,-3.3418,-3.3418,-3.3418,-3.3418,-3.3418,-3.3418,-3.3418,-3.3418,-3.3418,-3.3418,-3.3867,-3.4297,-3.4707,-3.5195,-3.5625,-4.256,0.0,0.0,0.0,0.0,0.0,-3.1531,-2.929,-2.7393,-2.773,-2.7361,-2.7169,-2.7711,-2.7825,-2.7897,-2.8033,-3.0593,-3.2856,-3.3618,-3.3593,-3.4215,-3.6127,-3.6349,-3.6959,-3.8428,-3.8574,-3.8574,-3.8574,-3.8574,-3.8574,-3.8574,-3.7754,-3.7051,-3.6504,-3.6191,-3.6016,-3.6016,-3.6016,-3.6016,-3.6016,-3.6016,-3.6016,-3.6016,-3.6016,-3.6016,-3.5996,-3.5703,-3.5566,-3.5527,-3.4941,-3.4531,-3.4199,-3.3633,-3.3418,-3.3418,-3.3418,-3.3418,-3.3418,-3.3418,-3.3418,-3.3418,-3.3418,-3.3418,-3.3418,-3.3418,-3.3418,-3.3418,-3.3418,-3.3418,-3.3418,-3.3418,-3.3418,-3.3418,-3.3418,-3.3418,-3.3418,-3.3418,-3.3418,-3.3418,-3.3418,-3.3418,-3.3418,-3.3418,-3.3418,-3.3418,-3.3418,-3.3418,-3.3418,-3.3418,-3.3418,-3.3418,-3.3418,-3.3418,-3.3418,-3.3418,-3.3418,-3.3418,-3.3418,-3.3418,-3.3418,-3.3418,-3.3418,-3.3418,-3.3418,-3.3418,-3.3418,-3.3418,-3.3867,-3.4297,-3.4726,-3.5488,-3.5898,-4.2834,-4.1928,-4.0869,-3.9766,0.0,0.0,-3.4184,-3.1275,-2.8875,-2.9347,-2.8232,-2.7186,-2.7002,-2.6976,-2.6843,-2.6316,-2.8264,-3.0253,-3.1573,-3.154,-3.2183,-3.415,-3.5082,-3.5961,-3.7198,-3.8117,-3.8574,-3.8574,-3.8574,-3.8418,-3.8066,-3.7578,-3.7031,-3.6426,-3.6152,-3.6016,-3.6016,-3.6016,-3.6016,-3.6016,-3.6016,-3.6016,-3.6016,-3.584,-3.5762,-3.5742,-3.5293,-3.5,-3.4824,-3.4551,-3.4297,-3.4023,-3.3594,-3.3418,-3.3418,-3.3418,-3.3418,-3.3418,-3.3418,-3.3418,-3.3418,-3.3418,-3.3418,-3.3418,-3.3418,-3.3418,-3.3418,-3.3418,-3.3418,-3.3418,-3.3418,-3.3418,-3.3418,-3.3418,-3.3418,-3.3418,-3.3418,-3.3418,-3.3418,-3.3418,-3.3418,-3.3418,-3.3418,-3.3418,-3.3418,-3.3418,-3.3418,-3.3418,-3.3418,-3.3418,-3.3418,-3.3418,-3.3418,-3.3418,-3.3418,-3.3418,-3.3418,-3.3418,-3.3418,-3.3418,-3.3418,-3.3418,-3.3418,-3.3418,-3.3418,-3.3516,-3.3691,-3.4121,-3.4648,-3.5254,-3.5781,-3.6016,-4.1936,-4.2398,-4.2614,-3.979,-3.9145,0.0,-3.6513,-3.4166,-3.2508,-3.2722,-3.1375,-2.9916,-2.8977,-2.867,-2.7982,-2.6438,-2.6162,-2.7028,-2.9178,-2.9503,-3.0275,-3.2272,-3.3888,-3.4975,-3.5422,-3.7198,-3.8336,-3.8574,-3.8535,-3.8144,-3.7344,-3.7246,-3.6855,-3.6035,-3.6016,-3.6016,-3.6016,-3.6016,-3.5996,-3.5957,-3.5957,-3.5918,-3.5859,-3.5488,-3.5312,-3.5293,-3.4824,-3.4414,-3.4062,-3.4023,-3.4004,-3.3965,-3.3574,-3.3418,-3.3418,-3.3418,-3.3418,-3.3418,-3.3418,-3.3418,-3.3418,-3.3418,-3.3418,-3.3418,-3.3418,-3.3418,-3.3418,-3.3418,-3.3418,-3.3418,-3.3418,-3.3418,-3.3418,-3.3418,-3.3418,-3.3418,-3.3418,-3.3418,-3.3418,-3.3418,-3.3418,-3.3418,-3.3418,-3.3418,-3.3418,-3.3418,-3.3418,-3.3418,-3.3418,-3.3418,-3.3418,-3.3418,-3.3418,-3.3418,-3.3418,-3.3418,-3.3418,-3.3418,-3.3418,-3.3418,-3.3418,-3.3418,-3.3418,-3.3418,-3.3418,-3.3652,-3.4141,-3.4512,-3.5137,-3.5957,-3.5996,-3.6016,-4.164,-4.1789,-4.1842,-4.1203,-3.9465,0.0,-3.7664,-3.5627,-3.3877,-3.4509,-3.2607,-3.0895,-3.1185,-3.0169,-2.8806,-2.7276,-2.7418,-2.7616,-2.7162,-2.7086,-2.7861,-2.9849,-3.0392,-3.1863,-3.5199,-3.5886,-3.6811,-3.8501,-3.8242,-3.7832,-3.7324,-3.6973,-3.6562,-3.6035,-3.6016,-3.6016,-3.6016,-3.6016,-3.5859,-3.5508,-3.5508,-3.5312,-3.4961,-3.4863,-3.4824,-3.4805,-3.4375,-3.4141,-3.4043,-3.3691,-3.3555,-3.3535,-3.3457,-3.3418,-3.3418,-3.3418,-3.3418,-3.3418,-3.3418,-3.3418,-3.3418,-3.3418,-3.3418,-3.3418,-3.3418,-3.3418,-3.3418,-3.3418,-3.3418,-3.3418,-3.3418,-3.3418,-3.3418,-3.3418,-3.3418,-3.3418,-3.3418,-3.3418,-3.3418,-3.3418,-3.3418,-3.3418,-3.3418,-3.3418,-3.3418,-3.3418,-3.3418,-3.3418,-3.3418,-3.3418,-3.3418,-3.3418,-3.3418,-3.3418,-3.3418,-3.3418,-3.3418,-3.3418,-3.3418,-3.3418,-3.3418,-3.3418,-3.3418,-3.3418,-3.3418,-3.3809,-3.457,-3.4668,-3.498,-3.5527,-3.5859,-3.6016,-4.072,-4.1119,-4.1468,-4.0794,-4.0084,0.0,0.0,-3.7621,-3.6327,-3.7228,-3.561,-3.3928,-3.3521,-3.2767,-3.1558,-2.9514,-2.9595,-2.9495,-2.8312,-2.715,-2.6822,-2.7973,-2.8851,-3.0577,-3.37,-3.49,-3.6349,-3.8428,-3.8164,-3.7734,-3.7324,-3.6894,-3.6465,-3.6035,-3.6016,-3.6016,-3.6016,-3.6016,-3.5801,-3.5391,-3.5391,-3.5156,-3.4687,-3.4473,-3.4394,-3.4355,-3.3926,-3.375,-3.373,-3.3516,-3.3418,-3.3418,-3.3418,-3.3418,-3.3418,-3.3418,-3.3418,-3.3418,-3.3418,-3.3418,-3.3418,-3.3418,-3.3418,-3.3418,-3.3418,-3.3418,-3.3418,-3.3418,-3.3418,-3.3418,-3.3418,-3.3418,-3.3418,-3.3418,-3.3418,-3.3418,-3.3418,-3.3418,-3.3418,-3.3418,-3.3418,-3.3418,-3.3418,-3.3418,-3.3418,-3.3418,-3.3418,-3.3418,-3.3418,-3.3418,-3.3418,-3.3418,-3.3418,-3.3418,-3.3418,-3.3418,-3.3418,-3.3418,-3.3418,-3.3418,-3.3418,-3.3418,-3.3418,-3.3418,-3.3418,-3.373,-3.4394,-3.459,-3.5039,-3.5703,-3.5918,-3.6016,-4.0124,-4.0696,-4.1151,-4.0081,-4.0542,-4.1049,0.0,0.0,0.0,-3.9611,-3.8606,-3.7161,-3.5943,-3.5526,-3.4533,-3.2125,-3.2114,-3.193,-3.0416,-2.8639,-2.7572,-2.7518,-2.889,-3.0714,-3.2768,-3.4723,-3.6643,-3.8482,-3.7949,-3.748,-3.7305,-3.6816,-3.6387,-3.6035,-3.6016,-3.6016,-3.6016,-3.6016,-3.5762,-3.5254,-3.5254,-3.498,-3.4453,-3.4101,-3.3945,-3.3926,-3.3574,-3.3418,-3.3418,-3.3418,-3.3418,-3.3418,-3.3418,-3.3418,-3.3418,-3.3418,-3.3418,-3.3418,-3.3418,-3.3418,-3.3418,-3.3418,-3.3418,-3.3418,-3.3418,-3.3418,-3.3418,-3.3418,-3.3418,-3.3418,-3.3418,-3.3418,-3.3418,-3.3418,-3.3418,-3.3418,-3.3418,-3.3418,-3.3418,-3.3418,-3.3418,-3.3418,-3.3418,-3.3418,-3.3418,-3.3418,-3.3418,-3.3418,-3.3418,-3.3418,-3.3418,-3.3418,-3.3418,-3.3418,-3.3418,-3.3418,-3.3418,-3.3418,-3.3418,-3.3418,-3.3418,-3.3418,-3.3418,-3.3418,-3.3496,-3.375,-3.4199,-3.4629,-3.5195,-3.5898,-3.5976,-3.6016,-4.1125,-4.0883,-4.0557,-4.0478,-4.0153,-3.9903,-3.9824,0.0,-4.0262,-4.0386,0.0,-3.8648,-3.8503,0.0,0.0,-3.4527,-3.4737,-3.4221,-3.1599,-3.1461,-3.1253,-3.0251,-3.0979,-3.2309,-3.4404,-3.6096,-3.754,-3.8516,-3.7129,-3.6543,-3.7266,-3.6523,-3.6074,-3.6016,-3.6016,-3.6016,-3.6016,-3.6016,-3.5605,-3.4785,-3.4785,-3.4355,-3.3574,-3.3516,-3.3496,-3.3496,-3.3437,-3.3418,-3.3418,-3.3418,-3.3418,-3.3418,-3.3418,-3.3418,-3.3418,-3.3418,-3.3418,-3.3418,-3.3418,-3.3418,-3.3418,-3.3418,-3.3418,-3.3418,-3.3418,-3.3418,-3.3418,-3.3418,-3.3418,-3.3418,-3.3418,-3.3418,-3.3418,-3.3418,-3.3418,-3.3418,-3.3418,-3.3418,-3.3418,-3.3418,-3.3418,-3.3418,-3.3418,-3.3418,-3.3418,-3.3418,-3.3418,-3.3418,-3.3418,-3.3418,-3.3418,-3.3418,-3.3418,-3.3418,-3.3418,-3.3418,-3.3418,-3.3418,-3.3418,-3.3418,-3.3418,-3.3418,-3.3418,-3.3418,-3.3809,-3.4199,-3.4629,-3.5098,-3.5371,-3.5469,-3.584,-3.6016,-4.0852,-4.0701,-4.045,-4.0124,-4.0099,-4.0099,-3.9772,-3.9873,-4.0049,-4.0049,0.0,0.0,0.0,0.0,0.0,0.0,-3.7363,-3.7204,-3.5149,-3.5799,-3.4929,-3.0655,-3.0533,-3.1677,-3.4324,-3.6209,-3.7539,-3.8144,-3.6855,-3.6289,-3.6894,-3.6348,-3.6016,-3.6016,-3.6016,-3.6016,-3.6016,-3.5781,-3.5332,-3.4687,-3.4453,-3.4023,-3.3418,-3.3418,-3.3418,-3.3418,-3.3418,-3.3418,-3.3418,-3.3418,-3.3418,-3.3418,-3.3418,-3.3418,-3.3418,-3.3418,-3.3418,-3.3418,-3.3418,-3.3418,-3.3418,-3.3418,-3.3418,-3.3418,-3.3418,-3.3418,-3.3418,-3.3418,-3.3418,-3.3418,-3.3418,-3.3418,-3.3418,-3.3418,-3.3418,-3.3418,-3.3418,-3.3418,-3.3418,-3.3418,-3.3418,-3.3418,-3.3418,-3.3418,-3.3418,-3.3418,-3.3418,-3.3418,-3.3418,-3.3418,-3.3418,-3.3418,-3.3418,-3.3418,-3.3418,-3.3418,-3.3418,-3.3418,-3.3418,-3.3418,-3.3418,-3.3418,-3.3418,-3.3418,-3.3848,-3.4277,-3.4707,-3.5176,-3.5527,-3.5762,-3.5937,-3.6016,-4.0752,-4.0626,-4.0425,-4.0023,-4.0099,-4.0199,-3.9798,-3.9798,-3.9923,-3.9923,-4.0049,0.0,0.0,0.0,-3.9882,-3.911,0.0,-3.9584,-3.8217,-3.8939,-3.7797,-3.2973,-3.2205,-3.2788,-3.4603,-3.5845,-3.6855,-3.7539,-3.6387,-3.5957,-3.6641,-3.625,-3.6016,-3.6016,-3.6016,-3.6016,-3.6016,-3.5723,-3.5273,-3.4687,-3.4394,-3.3965,-3.3418,-3.3418,-3.3418,-3.3418,-3.3418,-3.3418,-3.3418,-3.3418,-3.3418,-3.3418,-3.3418,-3.3418,-3.3418,-3.3418,-3.3418,-3.3418,-3.3418,-3.3418,-3.3418,-3.3418,-3.3418,-3.3418,-3.3418,-3.3418,-3.3418,-3.3418,-3.3418,-3.3418,-3.3418,-3.3418,-3.3418,-3.3418,-3.3418,-3.3418,-3.3418,-3.3418,-3.3418,-3.3418,-3.3418,-3.3418,-3.3418,-3.3418,-3.3418,-3.3418,-3.3418,-3.3418,-3.3418,-3.3418,-3.3418,-3.3418,-3.3418,-3.3418,-3.3418,-3.3418,-3.3418,-3.3418,-3.3418,-3.3418,-3.3418,-3.3418,-3.3418,-3.3418,-3.3965,-3.4394,-3.4707,-3.5273,-3.5723,-3.6016,-3.6016,-3.6016,-4.125,-4.0927,-4.0501,-4.0501,-4.0099,-3.9722,-3.9697,-4.0099,-4.0501,-4.0501,-4.0902,-4.1225,-4.1225,-4.1225,-4.1225,-4.1197,-4.1222,0.0,0.0,-3.9741,-3.9511,-3.8714,-3.7996,-3.7151,-3.6084,-3.5226,-3.5312,-3.6621,-3.5488,-3.5312,-3.6601,-3.625,-3.6016,-3.6016,-3.6016,-3.6016,-3.6016,-3.6016,-3.5566,-3.4707,-3.4687,-3.4238,-3.3418,-3.3418,-3.3418,-3.3418,-3.3418,-3.3418,-3.3418,-3.3418,-3.3418,-3.3418,-3.3418,-3.3418,-3.3418,-3.3418,-3.3418,-3.3418,-3.3418,-3.3418,-3.3418,-3.3418,-3.3418,-3.3418,-3.3418,-3.3418,-3.3418,-3.3418,-3.3418,-3.3418,-3.3418,-3.3418,-3.3418,-3.3418,-3.3418,-3.3418,-3.3418,-3.3418,-3.3418,-3.3418,-3.3418,-3.3418,-3.3418,-3.3418,-3.3418,-3.3418,-3.3418,-3.3418,-3.3418,-3.3418,-3.3418,-3.3418,-3.3418,-3.3418,-3.3418,-3.3418,-3.3418,-3.3418,-3.3418,-3.3418,-3.3418,-3.3418,-3.3418,-3.3418,-3.4258,-3.4687,-3.4707,-3.5566,-3.6016,-3.6016,-3.6016,-3.6016,-4.0701,-4.0874,-4.0824,-4.0149,-4.0375,-4.0601,-3.9848,-4.0124,-4.0526,-4.0526,-4.0953,-4.1275,-4.1275,-4.1275,-4.1275,-4.1275,-4.1656,-4.1643,0.0,-4.0794,-4.0634,-4.0071,-3.9405,-3.8316,-3.6852,-3.6742,-3.6587,-3.624,-3.5566,-3.5469,-3.6191,-3.6094,-3.6016,-3.6016,-3.6016,-3.6016,-3.6016,-3.5449,-3.5,-3.4687,-3.4121,-3.3711,-3.3418,-3.3418,-3.3418,-3.3418,-3.3418,-3.3418,-3.3418,-3.3418,-3.3418,-3.3418,-3.3418,-3.3418,-3.3418,-3.3418,-3.3418,-3.3418,-3.3418,-3.3418,-3.3418,-3.3418,-3.3418,-3.3418,-3.3418,-3.3418,-3.3418,-3.3418,-3.3418,-3.3418,-3.3418,-3.3418,-3.3418,-3.3418,-3.3418,-3.3418,-3.3418,-3.3418,-3.3418,-3.3418,-3.3418,-3.3418,-3.3418,-3.3418,-3.3418,-3.3418,-3.3418,-3.3418,-3.3418,-3.3418,-3.3418,-3.3418,-3.3418,-3.3418,-3.3418,-3.3418,-3.3535,-3.3828,-3.3574,-3.3555,-3.3848,-3.3574,-3.3418,-3.3418,-3.3984,-3.4414,-3.4707,-3.5312,-3.5742,-3.6016,-3.6016,-3.6016,-4.0425,-4.0724,-4.0927,-4.04,-4.0802,-4.11,-4.045,-4.0701,-4.1103,-4.1103,-4.153,-4.1932,-4.1932,-4.1932,-4.1856,-4.1656,-4.1932,-4.1957,0.0,-4.1505,-4.1499,-4.1169,-4.0259,-3.9091,-3.7924,-3.7255,-3.6825,-3.669,-3.5567,-3.5234,-3.5976,-3.6016,-3.6016,-3.6016,-3.6016,-3.6016,-3.6016,-3.5312,-3.4863,-3.4687,-3.3984,-3.3574,-3.3418,-3.3418,-3.3418,-3.3418,-3.3418,-3.3418,-3.3418,-3.3418,-3.3418,-3.3418,-3.3418,-3.3418,-3.3418,-3.3418,-3.3418,-3.3418,-3.3418,-3.3418,-3.3418,-3.3418,-3.3418,-3.3418,-3.3418,-3.3418,-3.3418,-3.3418,-3.3418,-3.3418,-3.3418,-3.3418,-3.3418,-3.3418,-3.3418,-3.3418,-3.3418,-3.3418,-3.3418,-3.3418,-3.3418,-3.3418,-3.3418,-3.3418,-3.3418,-3.3418,-3.3418,-3.3418,-3.3418,-3.3418,-3.3418,-3.3418,-3.3418,-3.3418,-3.3418,-3.3418,-3.3613,-3.4043,-3.3672,-3.3613,-3.4062,-3.3652,-3.3418,-3.3418,-3.4004,-3.4434,-3.4707,-3.5312,-3.5762,-3.6016,-3.6016,-3.6016]},{"header":{"parameterUnit":"m.s-1","parameterCategory":1,"la1":30.6,"la2":29.2853,"lo1":-89.7004,"lo2":-87.6739,"dy":0.0162,"dx":0.0183,"nx":112,"ny":82,"refTime":"2026-05-18T12:00:00:Z","depth":0,"parameterNumber":3,"parameterNumberName":"V-component_of_WINDS"},"data":[0.0,0.0,0.0,0.0,0.0,0.0,0.0,0.0,0.0,0.0,0.0,0.0,0.0,0.0,0.0,0.0,0.0,0.0,0.0,0.0,0.0,0.0,0.0,0.0,0.0,0.0,0.0,0.0,0.0,0.0,0.0,0.0,0.0,0.0,0.0,0.0,0.0,0.0,0.0,0.0,0.0,0.0,0.0,0.0,0.0,0.0,0.0,0.0,0.0,0.0,0.0,0.0,0.0,0.0,0.0,0.0,0.0,0.0,0.0,0.0,0.0,0.0,0.0,0.0,0.0,0.0,0.0,0.0,0.0,0.0,0.0,0.0,0.0,0.0,0.0,0.0,0.0,0.0,0.0,0.0,0.0,0.0,0.0,0.0,0.0,0.0,0.0,0.0,0.0,0.0,2.6478,2.5098,2.4406,2.3721,2.2889,2.5589,2.713,2.652,0.0,0.0,0.0,0.0,0.0,0.0,0.0,0.0,0.0,0.0,0.0,0.0,0.0,0.0,0.0,0.0,0.0,0.0,0.0,0.0,0.0,0.0,0.0,0.0,0.0,0.0,0.0,0.0,0.0,0.0,0.0,0.0,0.0,0.0,0.0,0.0,0.0,0.0,0.0,0.0,0.0,0.0,0.0,0.0,0.0,0.0,0.0,0.0,0.0,0.0,0.0,0.0,0.0,0.0,0.0,0.0,0.0,0.0,0.0,0.0,0.0,0.0,0.0,0.0,0.0,0.0,0.0,0.0,0.0,0.0,0.0,0.0,0.0,0.0,0.0,0.0,0.0,0.0,0.0,0.0,0.0,0.0,0.0,0.0,0.0,0.0,0.0,0.0,0.0,0.0,0.0,0.0,0.0,0.0,0.0,0.0,0.0,0.0,0.0,0.0,0.0,0.0,0.0,0.0,2.9864,2.8402,2.8351,2.7481,2.5238,2.6748,2.7463,2.6584,0.0,0.0,0.0,0.0,0.0,0.0,0.0,0.0,0.0,0.0,0.0,0.0,0.0,0.0,0.0,0.0,0.0,0.0,0.0,0.0,0.0,0.0,0.0,0.0,0.0,0.0,0.0,0.0,0.0,0.0,0.0,0.0,0.0,0.0,0.0,0.0,0.0,0.0,0.0,0.0,0.0,0.0,0.0,0.0,0.0,0.0,0.0,0.0,0.0,0.0,0.0,0.0,0.0,0.0,0.0,0.0,0.0,0.0,0.0,0.0,0.0,0.0,0.0,0.0,0.0,0.0,0.0,0.0,0.0,0.0,0.0,0.0,0.0,0.0,0.0,0.0,0.0,0.0,0.0,0.0,0.0,0.0,0.0,0.0,0.0,0.0,0.0,0.0,0.0,0.0,0.0,0.0,0.0,0.0,0.0,0.0,0.0,0.0,0.0,0.0,0.0,0.0,0.0,3.0254,3.0015,2.9955,2.9473,2.8544,2.6937,2.8188,2.8316,2.6648,2.9666,0.0,0.0,0.0,0.0,0.0,0.0,0.0,0.0,0.0,0.0,0.0,0.0,0.0,0.0,0.0,0.0,0.0,0.0,0.0,0.0,0.0,0.0,0.0,0.0,0.0,0.0,0.0,0.0,0.0,0.0,0.0,0.0,0.0,0.0,0.0,0.0,0.0,0.0,0.0,0.0,0.0,0.0,0.0,0.0,0.0,0.0,0.0,0.0,0.0,0.0,0.0,0.0,0.0,0.0,0.0,0.0,0.0,0.0,0.0,0.0,0.0,0.0,0.0,0.0,0.0,0.0,0.0,0.0,0.0,0.0,0.0,0.0,0.0,0.0,0.0,0.0,0.0,0.0,0.0,0.0,0.0,0.0,0.0,0.0,0.0,0.0,0.0,0.0,0.0,0.0,0.0,0.0,0.0,0.0,0.0,0.0,0.0,0.0,0.0,0.0,0.0,0.0,3.1414,3.1027,3.1536,3.0743,2.9797,2.8676,2.9735,2.9545,2.7317,2.9683,0.0,0.0,0.0,0.0,0.0,0.0,0.0,0.0,0.0,0.0,0.0,0.0,0.0,0.0,0.0,0.0,0.0,0.0,0.0,0.0,0.0,0.0,0.0,0.0,0.0,0.0,0.0,0.0,0.0,0.0,0.0,0.0,0.0,0.0,0.0,0.0,0.0,0.0,0.0,0.0,0.0,0.0,0.0,0.0,0.0,0.0,0.0,0.0,0.0,0.0,0.0,0.0,0.0,0.0,0.0,0.0,0.0,0.0,0.0,0.0,0.0,0.0,0.0,0.0,0.0,0.0,0.0,0.0,0.0,0.0,0.0,0.0,0.0,0.0,0.0,0.0,0.0,0.0,0.0,0.0,0.0,0.0,0.0,0.0,0.0,0.0,0.0,0.0,0.0,0.0,0.0,0.0,0.0,0.0,0.0,0.0,0.0,0.0,0.0,0.0,0.0,0.0,3.5006,3.5616,3.4091,3.3892,3.2957,3.0743,3.1184,3.0905,2.919,2.9879,0.0,0.0,0.0,0.0,0.0,0.0,0.0,0.0,0.0,0.0,0.0,0.0,0.0,0.0,0.0,0.0,0.0,0.0,0.0,0.0,0.0,0.0,0.0,0.0,0.0,0.0,0.0,0.0,0.0,0.0,0.0,0.0,0.0,0.0,0.0,0.0,0.0,0.0,0.0,0.0,0.0,0.0,0.0,0.0,0.0,0.0,0.0,0.0,0.0,0.0,0.0,0.0,0.0,0.0,0.0,0.0,0.0,0.0,0.0,0.0,0.0,0.0,0.0,0.0,0.0,0.0,0.0,0.0,0.0,0.0,0.0,0.0,0.0,0.0,0.0,0.0,0.0,0.0,0.0,0.0,0.0,0.0,0.0,0.0,0.0,0.0,0.0,0.0,0.0,0.0,0.0,0.0,0.0,0.0,0.0,0.0,0.0,0.0,0.0,0.0,0.0,0.0,3.7045,3.8241,3.7109,3.6128,3.4715,3.2474,3.2256,3.1366,2.9395,0.0,0.0,0.0,0.0,0.0,0.0,0.0,0.0,0.0,0.0,0.0,0.0,0.0,0.0,0.0,0.0,0.0,0.0,0.0,0.0,0.0,0.0,0.0,0.0,0.0,0.0,0.0,0.0,0.0,0.0,0.0,0.0,0.0,0.0,0.0,0.0,0.0,0.0,0.0,0.0,0.0,0.0,0.0,0.0,0.0,0.0,0.0,0.0,0.0,0.0,0.0,0.0,0.0,0.0,0.0,0.0,0.0,0.0,0.0,0.0,0.0,0.0,0.0,0.0,0.0,0.0,0.0,0.0,0.0,0.0,0.0,0.0,0.0,0.0,0.0,0.0,0.0,0.0,0.0,0.0,0.0,0.0,0.0,0.0,0.0,0.0,0.0,0.0,0.0,0.0,0.0,0.0,0.0,0.0,0.0,0.0,0.0,0.0,0.0,0.0,0.0,0.0,3.5151,3.8016,3.9863,3.9476,3.8053,3.6474,3.5032,3.3599,3.205,3.0346,0.0,0.0,0.0,0.0,0.0,0.0,0.0,0.0,0.0,0.0,0.0,0.0,0.0,0.0,0.0,0.0,0.0,0.0,0.0,0.0,0.0,0.0,0.0,0.0,0.0,0.0,0.0,0.0,0.0,0.0,0.0,0.0,0.0,0.0,0.0,0.0,0.0,0.0,0.0,0.0,0.0,0.0,0.0,0.0,0.0,0.0,0.0,0.0,0.0,0.0,0.0,0.0,0.0,0.0,0.0,0.0,0.0,0.0,0.0,0.0,0.0,0.0,0.0,0.0,0.0,0.0,0.0,0.0,0.0,0.0,0.0,0.0,0.0,0.0,0.0,0.0,0.0,0.0,0.0,0.0,0.0,0.0,0.0,0.0,0.0,0.0,0.0,0.0,0.0,0.0,0.0,0.0,0.0,0.0,0.0,0.0,0.0,0.0,0.0,0.0,0.0,0.0,3.4848,3.8043,4.0621,4.12,3.9693,3.8663,3.8597,3.5473,3.3129,0.0,0.0,0.0,0.0,0.0,0.0,0.0,0.0,0.0,0.0,0.0,0.0,0.0,0.0,0.0,0.0,0.0,0.0,0.0,0.0,0.0,0.0,0.0,0.0,0.0,0.0,0.0,0.0,0.0,0.0,0.0,0.0,0.0,0.0,0.0,0.0,0.0,0.0,0.0,0.0,0.0,0.0,0.0,0.0,0.0,0.0,0.0,0.0,0.0,0.0,0.0,0.0,0.0,0.0,0.0,0.0,0.0,0.0,0.0,0.0,0.0,0.0,0.0,0.0,0.0,0.0,0.0,0.0,0.0,0.0,0.0,0.0,0.0,0.0,0.0,0.0,0.0,0.0,0.0,0.0,0.0,0.0,0.0,0.0,0.0,0.0,0.0,0.0,0.0,0.0,0.0,0.0,0.0,0.0,0.0,0.0,0.0,0.0,0.0,0.0,0.0,0.0,0.0,3.8059,4.1447,4.371,4.3036,4.2517,4.1756,4.0537,3.8801,3.6737,3.4152,0.0,0.0,0.0,0.0,0.0,0.0,0.0,0.0,0.0,0.0,0.0,0.0,0.0,0.0,0.0,0.0,0.0,0.0,0.0,0.0,0.0,0.0,0.0,0.0,0.0,0.0,0.0,0.0,0.0,0.0,0.0,0.0,0.0,0.0,0.0,0.0,0.0,0.0,0.0,0.0,0.0,0.0,0.0,0.0,0.0,0.0,0.0,0.0,0.0,0.0,0.0,0.0,0.0,0.0,0.0,0.0,0.0,0.0,0.0,0.0,0.0,0.0,0.0,0.0,0.0,0.0,0.0,0.0,0.0,0.0,0.0,0.0,0.0,0.0,0.0,0.0,0.0,0.0,0.0,0.0,0.0,0.0,0.0,0.0,0.0,0.0,0.0,0.0,0.0,0.0,0.0,0.0,0.0,0.0,0.0,0.0,0.0,0.0,0.0,0.0,0.0,0.0,3.9369,4.2717,4.5067,4.4731,4.4103,4.32,4.1965,4.0525,3.842,3.5381,0.0,0.0,0.0,0.0,0.0,0.0,0.0,0.0,0.0,0.0,0.0,0.0,0.0,0.0,0.0,0.0,0.0,0.0,0.0,0.0,0.0,0.0,0.0,0.0,0.0,0.0,0.0,0.0,0.0,0.0,0.0,0.0,0.0,0.0,0.0,0.0,0.0,0.0,0.0,0.0,0.0,0.0,0.0,0.0,0.0,0.0,0.0,0.0,0.0,0.0,0.0,0.0,0.0,0.0,0.0,0.0,0.0,0.0,0.0,0.0,0.0,0.0,0.0,0.0,0.0,0.0,0.0,0.0,0.0,0.0,0.0,0.0,0.0,0.0,0.0,0.0,0.0,0.0,0.0,0.0,0.0,0.0,0.0,0.0,0.0,0.0,0.0,0.0,0.0,0.0,0.0,0.0,0.0,0.0,0.0,0.0,0.0,0.0,0.0,0.0,0.0,0.0,3.9358,4.2404,4.497,4.605,4.4744,4.3583,4.3105,4.1222,3.8964,3.6398,0.0,0.0,0.0,0.0,0.0,0.0,0.0,0.0,0.0,0.0,0.0,0.0,0.0,0.0,0.0,0.0,0.0,0.0,0.0,0.0,0.0,0.0,0.0,0.0,0.0,0.0,0.0,0.0,0.0,0.0,0.0,0.0,0.0,0.0,0.0,0.0,0.0,0.0,0.0,0.0,0.0,0.0,0.0,0.0,0.0,0.0,0.0,0.0,0.0,0.0,0.0,0.0,0.0,0.0,0.0,0.0,0.0,0.0,0.0,0.0,4.0784,3.7572,0.0,0.0,0.0,0.0,0.0,0.0,0.0,0.0,0.0,0.0,0.0,0.0,0.0,0.0,0.0,0.0,0.0,0.0,0.0,0.0,0.0,0.0,0.0,0.0,0.0,0.0,0.0,0.0,0.0,0.0,0.0,0.0,0.0,0.0,0.0,0.0,0.0,0.0,0.0,0.0,4.0181,4.2443,4.4242,4.492,4.4618,4.4367,4.4243,4.3431,4.1671,3.8753,3.7557,0.0,0.0,0.0,0.0,0.0,0.0,0.0,0.0,0.0,0.0,0.0,0.0,0.0,0.0,0.0,0.0,0.0,0.0,0.0,0.0,0.0,0.0,0.0,0.0,0.0,0.0,0.0,0.0,0.0,0.0,0.0,0.0,0.0,0.0,0.0,0.0,0.0,0.0,0.0,0.0,0.0,0.0,0.0,0.0,0.0,0.0,0.0,0.0,0.0,0.0,0.0,0.0,0.0,0.0,0.0,0.0,0.0,0.0,0.0,4.6391,4.4055,0.0,0.0,0.0,0.0,0.0,0.0,0.0,0.0,0.0,0.0,0.0,0.0,0.0,0.0,0.0,0.0,0.0,0.0,0.0,0.0,0.0,0.0,0.0,0.0,0.0,0.0,0.0,0.0,0.0,0.0,0.0,0.0,0.0,0.0,0.0,0.0,0.0,0.0,0.0,0.0,4.0375,4.2208,4.3973,4.5443,4.5577,4.5757,4.6173,4.5912,4.4505,4.1465,4.0253,0.0,0.0,0.0,0.0,0.0,0.0,0.0,0.0,0.0,0.0,0.0,0.0,0.0,0.0,0.0,0.0,0.0,0.0,0.0,0.0,0.0,0.0,0.0,0.0,0.0,0.0,0.0,0.0,0.0,0.0,0.0,0.0,0.0,0.0,0.0,0.0,0.0,0.0,0.0,0.0,0.0,0.0,0.0,0.0,0.0,0.0,0.0,0.0,0.0,0.0,0.0,0.0,0.0,5.4036,5.4403,5.4403,5.4403,5.4629,5.4995,5.2991,5.2097,5.1793,4.8435,0.0,0.0,0.0,0.0,0.0,0.0,0.0,0.0,0.0,0.0,0.0,0.0,0.0,0.0,0.0,0.0,0.0,0.0,0.0,0.0,0.0,0.0,4.6504,4.6686,4.7496,4.7496,4.4819,0.0,0.0,0.0,0.0,0.0,0.0,0.0,0.0,0.0,0.0,0.0,4.0665,4.2503,4.4516,4.6588,4.6777,4.7055,4.7686,4.7736,4.6632,4.406,4.2938,4.0859,0.0,0.0,0.0,0.0,0.0,0.0,0.0,0.0,0.0,0.0,0.0,0.0,0.0,0.0,0.0,0.0,0.0,0.0,0.0,0.0,0.0,0.0,0.0,0.0,0.0,0.0,0.0,0.0,0.0,0.0,0.0,0.0,5.0244,5.0409,0.0,0.0,0.0,0.0,0.0,0.0,0.0,0.0,0.0,0.0,0.0,0.0,0.0,5.3888,5.4604,5.6971,5.8164,5.8194,5.944,6.0034,6.0034,6.0034,6.0093,6.0096,5.9796,0.0,5.2656,5.1128,0.0,0.0,0.0,0.0,0.0,0.0,0.0,0.0,0.0,0.0,0.0,0.0,0.0,0.0,0.0,0.0,0.0,0.0,0.0,0.0,0.0,0.0,5.0428,5.1168,5.1457,5.1291,5.033,4.65,4.2948,4.1819,4.127,4.0313,0.0,0.0,0.0,0.0,0.0,0.0,4.2231,4.477,4.6684,4.7005,4.7032,4.7108,4.7232,4.7232,4.685,4.5976,4.5338,4.4008,4.1867,4.039,0.0,0.0,0.0,0.0,0.0,0.0,0.0,0.0,0.0,0.0,0.0,0.0,0.0,0.0,0.0,0.0,0.0,0.0,0.0,0.0,0.0,0.0,0.0,0.0,0.0,0.0,0.0,0.0,0.0,5.0768,5.2129,5.259,5.1735,5.09,0.0,0.0,0.0,0.0,0.0,0.0,0.0,0.0,0.0,5.5965,5.6598,5.7424,5.8457,6.0019,6.0805,6.0805,6.1762,6.2211,6.2211,6.2211,6.2211,6.2211,6.2211,6.0662,5.7826,5.5076,5.349,5.267,0.0,0.0,0.0,0.0,4.9406,4.9433,5.0129,5.0378,5.0321,4.9933,0.0,0.0,0.0,0.0,0.0,0.0,0.0,4.7587,4.8594,5.0534,5.2319,5.267,5.3054,5.3054,5.2007,4.9764,4.7264,4.4978,4.3854,4.2656,4.0632,4.0441,0.0,0.0,0.0,4.3024,4.3601,4.5436,4.7091,4.8132,4.8289,4.8589,4.9357,4.9406,4.8997,4.7992,4.7397,4.6329,4.4738,4.3372,4.1689,0.0,0.0,0.0,0.0,0.0,0.0,0.0,0.0,0.0,0.0,0.0,0.0,0.0,0.0,0.0,0.0,0.0,0.0,0.0,0.0,0.0,0.0,0.0,0.0,0.0,0.0,0.0,0.0,5.3158,5.4512,5.4948,5.4414,5.3594,0.0,0.0,0.0,0.0,0.0,0.0,5.7124,5.7782,5.88,6.0326,6.0206,6.0685,6.1852,6.2181,6.2361,6.2361,6.2839,6.3079,6.3079,6.3079,6.3079,6.3079,6.3079,6.26,6.1616,5.8438,5.6705,5.5867,5.3363,5.2077,5.1736,5.219,5.2162,5.2105,5.3384,5.3667,5.3383,5.2677,5.1544,5.0129,4.8594,0.0,0.0,0.0,0.0,4.9455,5.0145,5.1767,5.3174,5.3174,5.3443,5.3414,5.2426,5.1678,5.0441,4.7921,4.6497,4.511,4.3087,4.2901,0.0,4.1678,4.3287,4.4836,4.5405,4.6686,4.8125,4.9572,4.9727,5.0143,5.1105,5.1229,5.0745,4.9776,4.9291,4.847,4.7085,4.6077,4.4546,4.2467,0.0,0.0,0.0,0.0,0.0,0.0,0.0,0.0,0.0,0.0,0.0,0.0,0.0,0.0,0.0,0.0,0.0,0.0,0.0,0.0,0.0,0.0,0.0,0.0,0.0,0.0,0.0,0.0,0.0,5.7975,5.8936,0.0,0.0,0.0,0.0,5.5995,5.7139,5.8423,5.9817,6.0535,6.1792,6.3677,6.3199,6.3199,6.3857,6.3318,6.3019,6.3019,6.3049,6.3079,6.3079,6.3079,6.3079,6.3079,6.3079,6.2361,6.1104,6.0241,5.9469,5.8692,5.6698,5.5922,5.5893,5.5952,5.6281,5.6735,5.6825,5.7272,5.769,5.7004,5.5483,5.3814,5.3088,5.1935,0.0,0.0,5.1924,5.2151,5.2808,5.3066,5.3174,5.3174,5.2725,5.2276,5.2217,5.1678,5.0943,5.0179,4.9507,4.8267,4.5776,0.0,4.5642,4.3751,4.5657,4.7499,4.8038,4.9769,5.0981,5.1105,5.1105,5.1105,5.1182,5.1229,5.1182,5.1105,5.1075,5.0449,4.9104,4.847,4.6946,4.4436,4.3219,0.0,0.0,0.0,0.0,0.0,0.0,0.0,0.0,0.0,0.0,0.0,0.0,0.0,0.0,0.0,0.0,0.0,0.0,0.0,0.0,0.0,0.0,0.0,0.0,0.0,0.0,0.0,0.0,6.0027,6.0835,0.0,5.8261,5.865,5.874,5.8112,5.9308,6.0625,6.1942,6.2241,6.3079,6.4605,6.3617,6.3378,6.3977,6.3378,6.3079,6.3079,6.3079,6.3079,6.3079,6.3079,6.3079,6.3079,6.3079,6.257,6.1702,6.1014,6.0086,5.9039,5.8321,5.7812,5.7483,5.7902,5.7932,5.7812,5.8231,5.8261,5.7872,5.6346,5.5119,5.4072,5.3384,5.2845,5.2546,5.2755,5.3144,5.3533,5.3773,5.4162,5.4251,5.3384,5.2995,5.2606,5.1738,5.1379,5.1139,5.0853,5.0331,4.9447,4.8162,4.8147,4.7906,4.6794,4.8093,4.9314,4.9503,5.05,5.1229,5.1229,5.1229,5.1229,5.1229,5.1229,5.1229,5.1229,5.1229,5.1011,5.0508,5.0271,4.8986,4.6424,4.6743,4.5267,0.0,0.0,0.0,0.0,0.0,0.0,0.0,0.0,0.0,0.0,0.0,0.0,0.0,0.0,0.0,0.0,0.0,0.0,0.0,0.0,0.0,0.0,0.0,0.0,0.0,5.9603,6.0595,6.1074,6.2271,6.2211,5.9997,6.0775,6.1044,6.0176,6.1134,6.2241,6.3318,6.3378,6.3887,6.4994,6.3947,6.3588,6.4006,6.3378,6.3079,6.3079,6.3079,6.3079,6.3079,6.3079,6.2959,6.275,6.275,6.2241,6.1373,6.0954,6.0116,5.9099,5.9099,5.883,5.8501,5.8949,5.883,5.8471,5.871,5.8201,5.7244,5.5957,5.5089,5.4461,5.3982,5.3862,5.3862,5.3862,5.4192,5.4551,5.4551,5.4521,5.4281,5.3384,5.2845,5.2276,5.1409,5.1229,5.1229,5.1229,5.0823,5.0315,4.9703,4.9763,4.9703,4.9045,4.9883,5.0524,5.0524,5.096,5.1229,5.1229,5.1229,5.1229,5.1229,5.102,5.0853,5.0853,5.069,5.0571,5.0571,5.0571,4.9634,4.7729,4.8416,4.7074,4.3596,0.0,0.0,0.0,0.0,0.0,0.0,0.0,0.0,0.0,0.0,0.0,0.0,0.0,0.0,0.0,0.0,0.0,0.0,0.0,0.0,0.0,0.0,0.0,6.1212,6.1186,6.1276,6.125,6.3526,6.4065,6.1463,6.2899,6.3468,6.2211,6.272,6.3348,6.3977,6.3977,6.4306,6.4994,6.4336,6.3977,6.4006,6.3378,6.3079,6.3079,6.3079,6.3079,6.3049,6.3049,6.269,6.2061,6.2061,6.1313,6.0086,6.0086,5.9697,5.9099,5.9099,5.9099,5.9099,5.9099,5.9099,5.8979,5.8321,5.7244,5.6218,5.6188,5.5718,5.5179,5.5179,5.5179,5.5179,5.5179,5.5179,5.5179,5.5149,5.4192,5.3204,5.3144,5.2187,5.1259,5.1229,5.1229,5.1199,5.1199,5.1199,5.0943,5.0315,5.0734,5.0913,5.0285,5.0764,0.0,5.1229,5.1229,5.1229,5.1229,5.1229,5.1229,5.1229,5.0584,5.0196,5.0196,4.9613,4.9299,4.9299,4.9299,4.9044,4.8459,4.807,4.7246,4.6019,0.0,0.0,0.0,0.0,0.0,0.0,0.0,0.0,0.0,0.0,0.0,0.0,0.0,0.0,0.0,0.0,0.0,0.0,0.0,0.0,0.0,6.264,6.3757,6.3984,6.4931,6.5405,6.4771,6.5796,6.5704,6.3434,6.3677,6.3677,6.2869,6.2989,6.3348,6.3977,6.3588,6.3857,6.4994,6.3917,6.3558,6.4006,6.3378,6.3079,6.3079,6.3079,6.2839,6.2361,6.2361,6.2002,6.1373,6.1373,6.0894,6.0086,6.0086,5.9697,5.9099,5.9099,5.9099,5.9099,5.9099,5.88,5.8291,5.7603,5.6855,5.6107,5.5628,5.5329,5.5179,5.5179,5.5179,5.5179,5.5179,5.5179,5.5089,5.461,5.4192,5.3683,5.2695,5.2187,5.1798,5.1319,5.1229,5.1079,5.0554,5.0465,5.0405,5.0226,5.0345,5.0405,5.0226,5.0764,5.1229,5.1229,5.1229,5.1229,5.1229,5.1229,5.1229,5.1229,5.0584,5.0196,5.0196,4.9613,4.9299,4.9299,4.9995,5.0634,5.1214,4.9718,4.8777,0.0,0.0,0.0,0.0,0.0,0.0,0.0,0.0,0.0,0.0,0.0,0.0,0.0,0.0,0.0,0.0,0.0,0.0,0.0,0.0,0.0,0.0,6.5659,6.6954,6.7677,6.7456,6.6953,6.6206,6.6722,6.6344,6.4242,6.4006,6.3737,6.3139,6.3649,6.411,6.4418,6.4671,6.4881,6.5025,6.4911,6.4696,6.4475,6.4696,6.469,6.4358,6.3781,6.3168,6.2475,6.1924,6.1313,6.0685,6.0685,6.0296,5.9668,5.9668,5.9458,5.9099,0.0,0.0,0.0,0.0,5.8261,5.7603,5.6944,5.6286,5.5688,5.5329,5.5179,5.5179,5.5179,5.5179,5.5179,5.5179,5.4999,5.47,5.4311,5.3803,5.3174,5.2396,5.2007,5.1678,5.1289,5.1229,5.102,5.0315,5.0032,0.0,4.9464,4.9643,4.9912,5.0136,5.0331,5.0511,5.078,5.0571,5.0665,5.141,5.1486,5.1804,5.2544,5.1726,0.0,0.0,0.0,4.9755,4.9755,5.0351,0.0,0.0,0.0,0.0,0.0,0.0,0.0,0.0,4.8763,4.8715,0.0,0.0,0.0,0.0,0.0,0.0,0.0,0.0,0.0,0.0,0.0,0.0,0.0,0.0,0.0,0.0,6.8674,7.0534,7.121,6.9202,6.7368,6.6573,6.7042,6.6641,6.4525,6.4206,6.3996,6.3595,6.4512,6.5165,6.5328,6.6522,0.0,0.0,0.0,6.6627,6.5328,6.6574,6.6844,6.6121,6.4905,6.3867,6.3047,6.194,6.0982,6.021,6.021,5.9771,5.9099,5.9099,5.9207,5.9285,5.9153,5.9099,5.9039,5.8381,5.7693,5.7004,5.6376,0.0,0.0,5.5179,5.5179,5.5179,5.5179,5.5179,5.5179,5.5179,5.473,5.4192,5.4132,5.3144,5.2187,5.2097,5.1648,5.1229,5.1229,5.1229,5.099,5.0226,4.9673,4.909,4.8297,4.876,4.9344,4.9897,4.9583,4.9464,5.0016,4.9749,5.0061,5.1636,5.1883,0.0,5.4186,5.3117,5.2389,5.2389,5.1133,5.0435,5.055,5.055,5.0627,5.0741,5.1631,5.2065,5.2065,5.3109,5.3585,5.3416,4.9836,4.9257,0.0,0.0,0.0,0.0,0.0,0.0,0.0,0.0,0.0,0.0,0.0,0.0,0.0,0.0,0.0,6.8247,6.9961,7.1142,7.1312,7.0837,7.0016,6.8748,6.9269,6.8844,6.6775,6.5569,6.532,6.6312,6.5598,6.5598,6.6699,6.7061,6.7061,6.6803,6.7061,6.7061,6.6835,6.7061,6.6844,6.6089,6.5835,0.0,6.3807,6.3558,6.2473,6.0824,6.0824,6.0167,5.9099,5.9099,5.9736,6.0536,5.9469,5.9099,5.9039,5.8381,5.7693,5.7004,5.6376,5.5748,5.5179,5.5179,5.5179,5.5179,5.5179,5.5179,0.0,5.5179,5.473,5.4072,5.3533,5.2785,5.2067,5.1528,5.1319,5.1229,5.1229,5.1229,5.087,4.9673,4.9389,4.894,4.7698,4.8027,4.8506,4.8656,4.9015,4.9359,4.9434,5.0056,5.0617,5.0955,5.1727,5.2377,5.2707,5.2045,5.1605,5.1605,5.0877,5.0741,5.1561,5.1631,5.2026,5.287,5.3076,5.3179,5.3179,5.4024,5.4093,5.3518,5.3313,5.3143,0.0,0.0,0.0,0.0,0.0,0.0,0.0,0.0,0.0,0.0,0.0,6.4748,6.6657,0.0,6.8775,7.0478,7.1075,7.1312,7.1312,7.1312,7.0791,6.9361,6.9514,6.9092,6.735,6.6543,6.6154,6.6154,6.6751,6.7164,6.7164,6.8503,6.8927,6.8256,6.8879,6.8927,6.8206,6.8518,6.8328,6.7589,6.6546,6.5511,6.4424,6.3806,6.2984,6.1946,6.1294,6.102,6.1051,6.1051,6.1426,6.1946,6.1274,6.064,5.9923,5.8948,5.7958,5.6944,5.6017,5.5478,5.5179,5.5179,5.5179,5.5179,5.5179,5.5179,5.5119,5.479,5.4221,5.3533,5.2875,5.2187,5.1618,5.1289,5.1229,5.1229,5.1229,5.096,5.0421,4.9509,4.9444,4.923,4.8225,4.8778,4.9116,4.8413,4.8297,4.8607,4.9448,4.9701,5.033,5.1782,5.2365,5.303,5.3917,5.3399,5.284,5.2478,5.2152,5.217,5.2662,5.2697,5.2939,5.3518,5.3518,5.3518,5.3518,5.4228,5.4228,5.3551,5.4634,5.4566,0.0,0.0,0.0,0.0,0.0,0.0,0.0,6.4511,6.5349,6.6078,6.6908,6.8157,7.0265,7.0737,7.121,7.2428,7.2124,7.1751,7.1751,7.1751,7.1253,6.996,6.9699,6.9169,6.8107,6.7723,6.7215,6.6365,6.8074,6.8846,6.8057,7.0123,7.0791,6.9633,7.0699,7.0745,6.9633,7.0006,6.9823,6.9079,6.7235,6.5989,6.5215,6.423,6.3623,6.3292,6.1995,6.1995,6.3004,6.3004,6.3148,6.3387,6.3387,6.2731,6.1558,5.9749,5.8388,5.7299,5.6003,5.5551,5.5551,5.5551,5.5551,5.5501,5.528,5.5179,5.5059,5.4401,5.3713,5.3121,5.2623,5.2008,5.1496,5.1496,5.1681,5.1819,5.1588,5.1258,5.0803,5.0059,5.0155,5.0061,4.925,4.9813,5.0003,4.8889,4.8225,4.8382,4.9719,4.964,5.0278,5.2532,5.296,5.3692,5.5173,5.4735,5.4126,5.3551,5.3518,5.3518,5.3518,5.3518,5.3518,5.3518,5.3518,5.3518,5.3518,5.4397,5.4363,5.3551,5.5006,5.4938,6.2999,6.3539,6.4476,6.5699,6.5783,6.6331,0.0,6.9861,6.968,7.0456,7.1705,7.2561,7.2225,7.2699,7.3172,7.3341,7.3308,7.324,7.324,7.324,7.2957,7.2144,7.1457,7.1007,7.087,6.968,6.9442,7.0528,6.9727,6.968,7.0791,7.1098,7.1222,7.1052,7.1222,7.1222,7.1052,7.0523,6.9823,6.9079,6.8138,6.7275,6.6567,6.644,6.5767,6.4597,6.3307,6.2859,6.3004,6.3004,6.3671,6.4688,6.4688,6.4597,6.4034,6.0435,5.9037,5.8702,5.7263,5.68,5.68,5.68,5.68,5.659,5.5501,5.5179,5.5059,5.4401,5.3713,5.3284,5.3607,5.3203,5.2678,5.2678,5.3483,5.3956,5.2945,5.342,5.3744,5.2409,5.2171,5.1774,5.0427,5.032,5.0352,5.0214,5.0112,5.0119,5.0331,5.1038,5.1667,5.1984,5.2866,5.3551,5.3754,5.3687,5.3585,5.3518,5.3518,5.3518,5.3518,5.3518,5.3518,5.3518,5.3518,5.3518,5.3518,5.4905,5.4871,5.3551,5.5006,5.4938,6.5324,6.5662,6.6136,6.7184,6.7861,6.8842,7.0838,7.1075,7.1176,7.2326,7.3409,7.4052,7.3747,7.3916,7.4153,7.4153,7.3781,7.3477,7.3477,7.3477,7.3206,7.2496,7.2124,7.1785,7.1345,7.0791,7.0309,7.009,7.0309,7.0309,7.009,7.0837,7.1312,7.1312,7.1312,7.1312,7.1312,7.0128,6.9417,6.9079,6.7861,6.7117,6.6812,6.6812,6.6072,6.4914,6.5126,6.4811,6.4184,6.4901,6.5514,6.5985,6.5985,6.5985,6.5611,6.2451,6.0799,5.9949,5.8559,5.8039,5.8039,5.8039,5.8039,5.7946,5.7465,5.7276,5.7058,5.5968,5.5439,5.5076,5.4466,5.4092,5.3871,5.3871,5.4253,5.4463,5.3999,5.3617,5.3221,5.2613,5.2314,5.195,5.1364,5.1776,5.217,5.217,5.1187,5.0589,5.1192,5.1667,5.217,5.2732,5.3213,5.3518,5.3518,5.3518,5.3518,5.3518,5.3518,5.3518,5.3518,5.3518,5.3518,5.3518,5.3518,5.3518,5.3518,5.4566,5.4532,5.3518,5.4566,5.4499,6.6102,6.6508,6.7049,6.7996,6.9214,7.0432,7.1379,7.1751,7.2259,7.3544,7.439,7.4897,7.4897,7.4897,7.4897,7.4897,7.4458,7.4086,7.4086,7.3916,7.3371,7.227,7.1955,7.1518,7.0812,7.1052,7.0882,6.9855,7.0745,7.0837,6.9822,7.0745,7.1312,7.1312,7.1312,7.1312,7.1312,6.9857,6.9113,6.9079,6.7557,6.6812,6.6812,6.6812,6.6278,6.547,6.6397,6.6278,6.5514,6.644,6.6812,6.6812,6.6812,6.6812,6.6483,6.4176,6.2508,6.1251,6.0012,5.9464,5.9302,5.9302,5.9302,5.9214,5.8902,5.8684,5.8268,5.7053,5.6541,5.621,5.5283,5.5043,5.5043,5.5043,5.5288,5.541,5.5125,5.4316,5.3642,5.3447,5.3,5.258,5.2381,5.3007,5.3518,5.3518,5.2238,5.1521,5.2241,5.2348,5.2627,5.3416,5.3518,5.3518,5.3518,5.3518,5.3518,5.3518,5.3518,5.3518,5.3518,5.3518,5.3518,5.3518,5.3518,5.3518,5.3518,5.4228,5.4228,5.3518,5.4262,5.4296,6.485,6.573,6.7184,6.8673,6.962,7.0567,7.2022,7.2902,7.3646,7.4424,7.5168,7.5676,7.5676,7.5676,7.5676,7.5676,7.5642,7.5642,7.5642,7.5033,7.383,7.1787,7.0831,7.0072,6.9331,7.0482,7.1267,7.1267,7.1267,7.1267,7.1267,7.1267,7.1312,7.1312,7.1312,7.1312,7.1312,6.9857,6.9113,6.9079,6.7557,6.6812,6.6812,6.6812,6.677,6.6728,6.677,6.677,6.677,6.677,6.6812,6.6812,6.6812,6.6812,6.6643,6.5114,6.3768,6.2628,6.1871,6.1136,6.0544,6.0544,6.0544,6.0332,5.917,5.8288,5.7584,5.6893,5.6189,5.5696,5.6053,5.6165,5.6165,5.6165,5.7001,5.7517,5.636,5.6433,5.6491,5.5746,5.5004,5.4295,5.3585,5.3484,5.3518,5.3518,5.345,5.3416,5.345,5.345,5.345,5.3518,5.3518,5.3518,5.3518,5.3518,5.3518,5.3518,5.3518,5.3518,5.3518,5.3518,5.3518,5.3518,5.3518,5.3518,5.3518,5.4228,5.4228,5.3518,5.4262,5.4566,6.5865,6.6779,6.7895,6.9451,7.0364,7.1312,7.28,7.3308,7.3713,7.4458,7.4796,7.483,7.4322,7.4627,7.4965,7.4965,7.5371,7.5709,7.5709,7.5473,7.4722,7.3016,7.2566,7.1928,7.0708,6.9394,6.8927,6.9855,6.9902,6.9902,6.9902,7.0791,7.1312,7.1312,7.1312,7.1075,7.0567,6.9586,6.8842,6.8301,6.7286,6.6812,6.6812,6.6812,6.6812,6.6812,6.6812,6.6812,6.6812,6.6812,6.6812,6.6812,6.6812,6.6812,6.6677,6.5696,6.478,6.381,6.2602,6.1998,6.1797,6.1797,6.1797,6.1716,6.1317,6.0994,6.0562,5.9299,5.8767,5.838,5.7524,5.7335,5.7335,5.7335,5.7628,5.7673,5.6768,5.6311,5.5852,5.5108,5.4363,5.3788,5.3551,5.3518,5.3518,5.3518,5.3518,5.3518,5.3518,5.3518,5.3518,5.3518,5.3518,5.3518,5.3518,5.3518,5.3518,5.3518,5.3518,5.3518,5.3518,5.3518,5.3518,5.3518,5.3518,5.3518,5.3518,5.3754,5.3754,5.3518,5.3754,5.3856,6.6406,6.7354,6.8267,6.9789,7.0737,7.1616,7.2834,7.3105,7.324,7.3713,7.3815,7.368,7.3172,7.3477,7.3984,7.4525,7.4999,7.5405,7.5676,7.5236,7.4384,7.2982,7.2284,7.158,7.0628,6.8503,6.7957,6.9775,6.9457,6.9409,6.9949,7.0791,7.1312,7.1312,7.1041,7.0669,7.0195,6.918,6.8267,6.7489,6.7049,6.6812,6.6812,6.6812,6.6812,6.6812,6.6812,6.6812,6.6812,6.6812,6.6812,6.6812,6.6812,6.6643,6.6339,6.5561,6.485,6.4072,6.3125,6.2618,6.2381,6.2381,6.2381,6.2381,6.2381,6.2009,6.1366,6.0385,5.9708,5.9099,5.8152,5.7881,5.7881,5.7881,5.7679,5.7374,5.69,5.6021,5.5175,5.4668,5.3991,5.3518,5.3518,5.3518,5.3518,5.3518,5.3518,5.3518,5.3518,5.3518,5.3518,5.3518,5.3518,5.3518,5.3518,5.3518,5.3518,5.3518,5.3518,5.3518,5.3518,5.3518,5.3518,5.3518,5.3518,5.3518,5.3518,5.3518,5.3518,5.3518,5.3518,5.3653,6.6474,6.7421,6.8335,6.9823,7.0703,7.1413,7.2157,7.2326,7.2293,7.2293,7.2293,7.2293,7.2225,7.2293,7.28,7.4255,7.4559,7.4864,7.5608,7.4492,7.3124,7.1787,7.0352,6.9412,6.9379,6.8107,6.8405,7.1098,6.9996,6.9775,7.1098,7.1267,7.1312,7.1312,7.0567,7.0161,7.0128,6.8605,6.7489,6.6812,6.6812,6.6812,6.6812,6.6812,6.6812,6.6812,6.6812,6.6812,6.6812,6.6812,6.6812,6.6812,6.6812,6.6339,6.5595,6.4884,6.414,6.3497,6.3463,6.299,6.2381,6.2381,6.2381,6.2381,6.2347,6.1298,6.0148,6.008,5.9032,5.7949,5.7915,5.7881,5.7881,5.7881,5.734,5.6799,5.6765,5.5615,5.4566,5.4532,5.3991,5.3518,5.3518,5.3518,5.3518,5.3518,5.3518,5.3518,5.3518,5.3518,5.3518,5.3518,5.3518,5.3518,5.3518,5.3518,5.3518,5.3518,5.3518,5.3518,5.3518,5.3518,5.3518,5.3518,5.3518,5.3518,5.3518,5.3518,5.3518,5.3518,5.3518,5.3856,6.7387,6.8199,6.9011,6.9958,6.9925,6.9992,7.1312,7.1142,7.0737,7.0737,7.0737,7.0567,7.0026,7.0838,7.1887,7.28,7.3883,7.4864,7.5608,7.5371,7.4837,7.3931,7.2976,7.2169,7.1631,6.9835,6.9442,7.1176,6.9996,6.9361,6.9727,7.0745,7.1312,7.1312,7.0567,6.9925,6.9383,6.7861,6.7015,6.6812,6.6812,6.6812,6.6812,6.6812,6.6812,6.6812,6.6812,6.6812,6.6812,6.6812,6.6812,6.6812,6.6812,6.6339,6.5595,6.4884,6.414,6.3429,6.2854,6.255,6.2381,6.2381,6.2381,6.2279,6.1738,6.1298,6.0757,5.9607,5.9032,5.8592,5.8017,5.7881,5.7881,5.7881,5.734,5.6664,5.6122,5.5243,5.4431,5.389,5.3619,5.3518,5.3518,5.3518,5.3518,5.3518,5.3518,5.3518,5.3518,5.3518,5.3518,5.3518,5.3518,5.3518,5.3518,5.3518,5.3518,5.3518,5.3518,5.3518,5.3518,5.3518,5.3518,5.3518,5.3518,5.3518,5.3518,5.3518,5.3518,5.3518,5.3518,5.3585,6.7793,6.8504,6.9113,6.918,6.9147,6.9214,6.9722,6.9485,6.9011,6.8335,6.8199,6.8098,6.7658,6.8808,7.0263,7.1684,7.3138,7.4492,7.554,7.5439,7.5067,7.4661,7.395,7.3206,7.2462,7.1324,7.0817,7.1222,6.9996,6.9457,7.009,7.0882,7.1176,7.0838,7.0094,6.918,6.8098,6.7252,6.6812,6.6812,6.6812,6.6812,6.6812,6.6812,6.6812,6.6812,6.6812,6.6812,6.6812,6.6812,6.6812,6.6779,6.644,6.5865,6.5121,6.441,6.3666,6.2956,6.2516,6.2381,6.2381,6.2381,6.2381,6.2245,6.1535,6.1061,6.052,5.9336,5.8795,5.8423,5.8017,5.7881,5.7881,5.7881,5.7103,5.6224,5.5818,5.4871,5.3991,5.3585,5.3518,5.3518,5.3518,5.3518,5.3518,5.3518,5.3518,5.3518,5.3518,5.3518,5.3518,5.3518,5.3518,5.3518,5.3518,5.3518,5.3518,5.3518,5.3518,5.3518,5.3518,5.3518,5.3518,5.3518,5.3518,5.3518,5.3518,5.3518,5.3518,5.3518,5.3822,5.3991,6.8199,6.8639,6.8944,6.8233,6.8436,6.8605,6.7895,6.7692,6.7218,6.5831,6.5527,6.5527,6.5527,6.6745,6.8504,7.0804,7.2394,7.3883,7.5473,7.5168,7.4762,7.4762,7.4086,7.3341,7.2631,7.2462,7.209,7.1379,7.017,6.9996,7.1222,7.1312,7.0939,7.006,6.9316,6.8267,6.6812,6.6812,6.6812,6.6812,6.6812,6.6812,6.6812,6.6812,6.6812,6.6812,6.6812,6.6812,6.6812,6.6812,6.6812,6.6745,6.5967,6.5256,6.4512,6.3768,6.3024,6.2381,6.2381,6.2381,6.2381,6.2381,6.2381,6.2245,6.14,6.0655,5.9945,5.9099,5.8389,5.7881,5.7881,5.7881,5.7881,5.7881,5.6867,5.5817,5.575,5.4566,5.3518,5.3518,5.3518,5.3518,5.3518,5.3518,5.3518,5.3518,5.3518,5.3518,5.3518,5.3518,5.3518,5.3518,5.3518,5.3518,5.3518,5.3518,5.3518,5.3518,5.3518,5.3518,5.3518,5.3518,5.3518,5.3518,5.3518,5.3518,5.3518,5.3518,5.3551,5.3653,5.4296,5.4634,6.9789,6.9451,6.9079,6.8944,6.8064,6.7184,6.7015,6.6508,6.5831,6.4952,6.4783,6.4783,6.4783,6.6,6.776,7.0026,7.1616,7.3308,7.5405,7.5574,7.5506,7.5506,7.4864,7.4119,7.3375,7.2766,7.209,7.1379,7.1052,7.1052,7.1267,7.1312,7.0703,6.9316,6.8504,6.7692,6.6812,6.6812,6.6812,6.6812,6.6812,6.6812,6.6812,6.6812,6.6812,6.6812,6.6812,6.6812,6.6812,6.6812,6.6812,6.6745,6.5967,6.5256,6.4512,6.3768,6.3024,6.2381,6.2381,6.2381,6.2381,6.2381,6.2381,6.2144,6.0723,6.0216,5.981,5.8457,5.7983,5.7881,5.7881,5.7881,5.7881,5.7881,5.7239,5.6461,5.5852,5.4566,5.3518,5.3518,5.3518,5.3518,5.3518,5.3518,5.3518,5.3518,5.3518,5.3518,5.3518,5.3518,5.3518,5.3518,5.3518,5.3518,5.3518,5.3518,5.3518,5.3518,5.3518,5.3518,5.3518,5.3518,5.3518,5.3518,5.3518,5.3518,5.3518,5.3518,5.3822,5.4397,5.4532,5.4938,6.9867,6.9148,6.8414,6.7602,6.6868,6.6199,6.5732,6.5392,6.4816,6.37,6.3463,6.3463,6.3463,6.4647,6.6271,6.8132,6.9688,7.1582,7.4187,7.4559,7.483,7.5608,7.5405,7.4728,7.3612,7.3172,7.2496,7.1413,7.1312,7.1312,7.1312,7.0939,7.0229,6.9147,6.8335,6.7557,6.6812,6.6812,6.6812,6.6812,6.6812,6.6812,6.6812,6.6812,6.6812,6.6812,6.6812,6.6812,6.6812,6.6812,6.6812,6.6711,6.5561,6.4918,6.4478,6.3328,6.2685,6.2381,6.2381,6.2381,6.2381,6.2381,6.2381,6.2178,6.1061,6.0419,5.9877,5.8795,5.8186,5.7881,5.7881,5.7881,5.7881,5.7881,5.7036,5.6055,5.5277,5.4262,5.3518,5.3518,5.3518,5.3518,5.3518,5.3518,5.3518,5.3518,5.3518,5.3518,5.3518,5.3518,5.3518,5.3518,5.3518,5.3518,5.3518,5.3518,5.3518,5.3518,5.3518,5.3518,5.3518,5.3518,5.3518,5.3518,5.3518,5.3518,5.3518,5.3518,5.389,5.46,5.5006,5.5581,6.9523,6.8516,6.7489,6.6082,6.5843,6.561,6.4472,6.4416,6.4174,6.2685,6.2381,6.2381,6.2381,6.3463,6.4918,6.6542,6.7963,6.9891,7.2834,7.3375,7.3984,7.5303,7.5473,7.4931,7.3612,7.3341,7.2699,7.1413,7.1312,7.1312,7.1312,7.0601,6.9925,6.935,6.8402,6.7624,6.7049,6.688,6.6812,6.6812,6.6812,6.6812,6.6812,6.6812,6.6812,6.6812,6.6812,6.6812,6.6812,6.6812,6.6812,6.6677,6.5189,6.4613,6.441,6.2922,6.2381,6.2381,6.2381,6.2381,6.2381,6.2381,6.2381,6.2245,6.1535,6.0757,5.9945,5.9235,5.8457,5.7881,5.7881,5.7881,5.7881,5.7881,5.6765,5.5547,5.4972,5.4126,5.3518,5.3518,5.3518,5.3518,5.3518,5.3518,5.3518,5.3518,5.3518,5.3518,5.3518,5.3518,5.3518,5.3518,5.3518,5.3518,5.3518,5.3518,5.3518,5.3518,5.3518,5.3518,5.3518,5.3518,5.3518,5.3518,5.3518,5.3518,5.3518,5.3653,5.4126,5.4837,5.5615,5.6325,6.9382,6.8159,6.6818,6.5489,6.5558,6.5383,6.3375,6.3768,6.4174,6.2685,6.2381,6.2381,6.2381,6.3057,6.4309,6.6474,6.7489,6.9045,7.209,7.3071,7.3781,7.4627,7.4728,7.439,7.3578,7.2868,7.2157,7.1379,7.1312,7.1312,7.1312,7.0601,7.0161,7.0094,6.8673,6.7861,6.7793,6.7151,6.6812,6.6812,6.6812,6.6812,6.6812,6.6812,6.6812,6.6812,6.6812,6.6812,6.6812,6.6812,6.6812,6.6677,6.5189,6.4613,6.441,6.2922,6.2381,6.2381,6.2381,6.2381,6.2381,6.2381,6.2381,6.2245,6.1535,6.0757,5.9945,5.9235,5.8457,5.7881,5.7881,5.7881,5.7881,5.7881,5.6765,5.5647,5.5615,5.4499,5.3518,5.3518,5.3518,5.3518,5.3518,5.3518,5.3518,5.3518,5.3518,5.3518,5.3518,5.3518,5.3518,5.3518,5.3518,5.3518,5.3518,5.3518,5.3518,5.3518,5.3518,5.3518,5.3518,5.3518,5.3518,5.3518,5.3518,5.3518,5.3518,5.416,5.4871,5.5649,5.6359,5.7103,6.8845,6.7894,6.6683,6.4904,6.4271,6.3829,6.2482,6.2837,6.304,6.1616,6.1877,6.2381,6.2381,6.2618,6.3429,6.5189,6.573,6.6981,6.9992,7.0669,7.1616,7.368,7.3544,7.3341,7.3477,7.2834,7.209,7.1379,7.1312,7.1312,7.1312,7.1041,7.0669,7.0195,6.9586,6.8842,6.7895,6.7624,6.7252,6.6812,6.6812,6.6812,6.6812,6.6812,6.6812,6.6812,6.6812,6.6812,6.6812,6.6812,6.6542,6.6034,6.4986,6.4343,6.3802,6.2787,6.2381,6.2381,6.2381,6.2381,6.2381,6.2381,6.2381,6.2245,6.1535,6.0757,5.9945,5.9235,5.8457,5.7881,5.7881,5.7881,5.7881,5.7881,5.6765,5.5681,5.5681,5.4566,5.3518,5.3518,5.3518,5.3518,5.3518,5.3518,5.3518,5.3518,5.3518,5.3518,5.3518,5.3518,5.3518,5.3518,5.3518,5.3518,5.3518,5.3518,5.3518,5.3518,5.3518,5.3518,5.3518,5.3518,5.3518,5.3518,5.3518,5.3518,5.3518,5.4228,5.4972,5.575,5.6461,5.7205,6.7145,6.6659,6.5822,6.3903,6.3248,6.2695,6.1558,6.1731,6.1895,6.0797,6.1276,6.1991,6.2341,6.2381,6.2821,6.4072,6.4478,6.5493,6.8064,6.8808,6.9958,7.2225,7.2056,7.2022,7.2766,7.2394,7.1853,7.1345,7.1312,7.1312,7.1312,7.1312,7.1075,7.0534,7.0297,6.9553,6.8267,6.803,6.7523,6.6812,6.6812,6.6812,6.6812,6.6812,6.6812,6.6812,6.6812,6.6812,6.6812,6.6812,6.6508,6.5933,6.4986,6.4275,6.3734,6.2753,6.2381,6.2381,6.2381,6.2381,6.2381,6.2381,6.2245,6.1907,6.1163,6.0554,5.9945,5.9235,5.8457,5.7881,5.7881,5.7881,5.7848,5.7611,5.663,5.5649,5.5446,5.4397,5.3518,5.3518,5.3518,5.3518,5.3518,5.3518,5.3518,5.3518,5.3518,5.3518,5.3518,5.3518,5.3518,5.3518,5.3518,5.3518,5.3518,5.3518,5.3518,5.3518,5.3518,5.3518,5.3518,5.3518,5.3518,5.3518,5.3518,5.3619,5.3822,5.4566,5.531,5.6055,5.6799,5.7408,6.4142,6.4092,6.3736,6.2478,6.2549,6.2434,6.0392,6.0452,6.0844,6.0627,6.0586,6.0995,6.215,6.2381,6.2651,6.3396,6.414,6.5121,6.6609,6.8132,6.9383,7.0128,7.0229,7.05,7.1278,7.1345,7.1312,7.1312,7.1312,7.1312,7.1312,7.1312,7.1312,7.1312,7.0567,6.9823,6.9079,6.8301,6.7523,6.6812,6.6812,6.6812,6.6812,6.6812,6.6812,6.6812,6.6812,6.6812,6.6812,6.6812,6.6812,6.6643,6.5189,6.4613,6.441,6.2922,6.2381,6.2381,6.2381,6.2381,6.2381,6.2381,6.1907,6.1163,6.0351,6.0114,5.9945,5.9235,5.8457,5.7881,5.7881,5.7881,5.7712,5.6968,5.6258,5.5513,5.4769,5.4025,5.3518,5.3518,5.3518,5.3518,5.3518,5.3518,5.3518,5.3518,5.3518,5.3518,5.3518,5.3518,5.3518,5.3518,5.3518,5.3518,5.3518,5.3518,5.3518,5.3518,5.3518,5.3518,5.3518,5.3518,5.3518,5.3518,5.3518,5.3856,5.4566,5.5344,5.6089,5.6799,5.7543,5.7881,6.2248,6.2739,6.2951,6.1172,6.0866,6.059,5.9047,5.9101,5.9491,5.9415,6.0032,6.0953,6.215,6.2381,6.2787,6.4038,6.4444,6.5121,6.6609,6.7658,6.8741,7.0026,7.1075,7.1616,7.1345,7.1312,7.1312,7.1312,7.1312,7.1312,7.1312,7.1312,7.1312,7.1312,7.1075,7.0364,6.9113,6.8842,6.8064,6.6812,6.6812,6.6812,6.6812,6.6812,6.6812,6.6812,6.6812,6.6812,6.6779,6.6271,6.5764,6.5222,6.4241,6.3531,6.3024,6.255,6.2381,6.2381,6.2381,6.2381,6.2313,6.1806,6.1501,6.1061,5.9776,5.937,5.9201,5.8457,5.8084,5.7881,5.7881,5.7881,5.7712,5.6968,5.6258,5.5513,5.4769,5.4025,5.3518,5.3518,5.3518,5.3518,5.3518,5.3518,5.3518,5.3518,5.3518,5.3518,5.3518,5.3518,5.3518,5.3518,5.3518,5.3518,5.3518,5.3518,5.3518,5.3518,5.3518,5.3518,5.3518,5.3518,5.3518,5.3518,5.3518,5.3856,5.46,5.5344,5.6359,5.7543,5.778,5.7881,6.0311,6.1155,6.1844,6.1345,6.0758,6.0251,5.9645,5.9601,5.9633,5.9504,6.0314,6.1326,6.2217,6.2381,6.2685,6.3599,6.4005,6.4613,6.5797,6.6846,6.8064,6.9586,7.0838,7.1379,7.0939,7.1142,7.1312,7.1312,7.1312,7.1312,7.1312,7.1312,7.1312,7.1312,7.1041,7.0297,6.9113,6.8808,6.803,6.6812,6.6812,6.6812,6.6812,6.6812,6.6812,6.6812,6.6812,6.6812,0.0,6.6,6.5425,6.4918,6.3903,6.3226,6.2787,6.2482,6.2381,6.2381,6.2381,6.2381,6.2279,6.1535,6.0926,6.0216,5.8964,5.8592,5.849,5.8017,5.7881,5.7881,5.7881,5.7881,5.7645,5.663,5.6055,5.5446,5.4397,5.3822,5.3518,5.3518,5.3518,5.3518,5.3518,5.3518,5.3518,5.3518,5.3518,5.3518,5.3518,5.3518,5.3518,5.3518,5.3518,5.3518,5.3518,5.3518,5.3518,5.3518,5.3518,5.3518,5.3518,5.3518,5.3518,5.3518,5.3788,5.4296,5.5006,5.6021,5.7002,5.7881,5.7881,5.7881,0.0,5.9531,6.0295,6.2179,6.1691,6.0932,6.1615,6.1276,0.0,6.0627,6.1155,6.179,6.2285,6.2381,6.2415,6.2448,6.3057,6.3802,6.458,6.6,6.7557,6.9079,6.9857,7.0263,7.0263,7.0906,7.1312,7.1244,7.1244,7.121,7.1176,7.121,7.121,7.1176,7.0466,6.9789,6.9113,6.8301,6.7523,6.6812,6.6812,6.6812,6.6812,6.6812,6.6812,6.6812,6.6812,6.6812,6.6745,6.5933,6.5595,6.5459,6.4005,6.3429,6.3362,6.2651,6.2381,6.2381,6.2381,6.2347,6.2178,6.14,6.0148,5.8795,5.8084,5.7881,5.7881,5.7881,5.7881,5.7881,5.7881,5.7881,5.7509,5.6055,5.5681,5.531,5.3822,5.3518,5.3518,5.3518,5.3518,5.3518,5.3518,5.3518,5.3518,5.3518,5.3518,5.3518,5.3518,5.3518,5.3518,5.3518,5.3518,5.3518,5.3518,5.3518,5.3518,5.3518,5.3518,5.3518,5.3518,5.3518,5.3518,5.3585,5.4329,5.5108,5.5784,5.7205,5.7881,5.7881,5.7881,5.7881,5.9381,0.0,5.8008,5.8916,5.9247,5.9532,0.0,6.0174,6.0187,6.0529,6.0717,6.1152,6.2183,6.2381,6.2584,6.3159,6.3396,6.3971,6.5256,6.7252,6.9113,7.0635,7.0939,7.1041,7.1041,7.121,7.1075,7.05,7.0466,7.0195,6.9654,7.0161,7.0195,6.9654,6.9451,6.9282,6.9113,6.8301,6.7523,6.6812,6.6812,6.6812,6.6812,6.6812,6.6812,6.6812,6.6812,6.6812,6.6711,6.5392,6.485,6.4715,6.3226,6.2651,6.2618,6.2448,6.2381,6.2381,6.2381,6.2009,6.1332,5.9979,5.893,5.8118,5.7949,5.7881,5.7881,5.7881,5.7881,5.7881,5.7881,5.7881,5.7509,5.6055,5.5681,5.531,5.3822,5.3518,5.3518,5.3518,5.3518,5.3518,5.3518,5.3518,5.3518,5.3518,5.3518,5.3518,5.3518,5.3518,5.3518,5.3518,5.3518,5.3518,5.3518,5.3518,5.3518,5.3518,5.3518,5.3518,5.3518,5.3518,5.3754,5.4329,5.5615,5.6359,5.6562,5.7442,5.7881,5.7881,5.7881,5.7881,5.9215,5.9317,5.9638,6.0884,6.1167,6.1384,6.2332,6.1961,6.1475,6.1409,6.1665,6.2037,6.237,6.2685,6.2922,6.299,6.3565,6.4512,6.6,6.7557,6.9113,7.0635,7.0804,7.0804,7.0804,7.0804,7.05,6.9755,6.9688,6.9519,6.9113,6.9485,6.9519,6.9113,6.8741,6.8538,6.8538,6.7793,6.7218,6.6812,6.6812,6.6812,6.6812,6.6812,6.6812,6.6812,6.6812,6.6812,6.6711,6.5222,6.4613,6.4444,6.2956,6.2381,6.2381,6.2381,6.2381,6.2347,6.2009,6.1163,6.0114,5.9268,5.849,5.7881,5.7881,5.7881,5.7881,5.7881,5.7881,5.7881,5.7881,5.7881,5.7509,5.6055,5.5681,5.531,5.3822,5.3518,5.3518,5.3518,5.3518,5.3518,5.3518,5.3518,5.3518,5.3518,5.3518,5.3518,5.3518,5.3518,5.3518,5.3518,5.3518,5.3518,5.3518,5.3518,5.3518,5.3518,5.3518,5.3518,5.3518,5.3822,5.4499,5.5581,5.6393,5.6968,5.7306,5.7712,5.7881,5.7881,5.7881,5.7881,5.9476,6.1103,6.2983,6.3998,6.3946,6.3924,6.4941,6.4241,6.3159,6.2516,6.2888,6.3159,6.2516,6.299,6.3294,6.2651,6.3802,6.529,6.6779,6.7624,6.8639,7.0195,7.0263,7.0195,7.0195,7.0094,6.9722,6.8977,6.891,6.8876,6.8741,6.8876,6.8876,6.8741,6.8199,6.7861,6.7726,6.7117,6.6812,6.6812,6.6812,6.6812,6.6812,6.6812,6.6812,6.6812,6.6812,6.6745,6.6542,6.5155,6.4546,6.4309,6.2922,6.2381,6.2381,6.2381,6.2381,6.2279,6.1434,6.0182,5.8998,5.8896,5.8423,5.7881,5.7881,5.7881,5.7881,5.7881,5.7881,5.7881,5.7881,5.7881,5.7509,5.6055,5.5681,5.531,5.3822,5.3518,5.3518,5.3518,5.3518,5.3518,5.3518,5.3518,5.3518,5.3518,5.3518,5.3518,5.3518,5.3518,5.3518,5.3518,5.3518,5.3518,5.3518,5.3518,5.3518,5.3518,5.3518,5.3551,5.3653,5.4363,5.5412,5.6765,5.69,5.7273,5.7881,5.7881,5.7881,5.7881,5.7881,5.7881,6.2609,6.4388,6.5292,6.2052,6.2144,6.2974,6.2919,6.2719,6.2516,6.2415,6.2482,6.2516,6.2415,6.299,6.3463,6.3362,6.458,6.6034,6.7523,6.8402,6.9485,7.0973,7.0567,7.0195,7.0195,6.962,6.8944,6.8132,6.8098,6.7827,6.7218,6.776,6.7793,6.7184,6.7658,6.759,6.6981,6.688,6.6812,6.6812,6.6812,6.6812,6.6812,6.6812,6.6812,6.6812,6.6812,6.644,6.5797,6.4952,6.4241,6.3599,6.2719,6.2381,6.2381,6.2381,6.2381,6.2178,6.0791,5.9742,5.8896,5.8254,5.7983,5.7881,5.7881,5.7881,5.7881,5.7881,5.7881,5.7881,5.7881,5.7881,5.7509,5.6055,5.5681,5.531,5.3822,5.3518,5.3518,5.3518,5.3518,5.3518,5.3518,5.3518,5.3518,5.3518,5.3518,5.3518,5.3518,5.3518,5.3518,5.3518,5.3518,5.3518,5.3518,5.3518,5.3518,5.3518,5.3518,5.3788,5.4397,5.5141,5.5953,5.6799,5.7408,5.778,5.7881,5.7881,5.7881,5.7881,5.7881,5.7881,6.2821,6.4512,6.5639,6.3324,6.447,6.6081,6.547,6.4749,6.3937,6.3159,6.299,6.2854,6.2448,6.3328,6.4512,6.5696,6.644,6.7286,6.8402,6.8504,6.8876,6.9992,6.9417,6.8944,6.8944,6.8639,6.8132,6.7354,6.732,6.7184,6.6846,6.7117,6.7151,6.6812,6.7151,6.7151,6.6812,6.6812,6.6812,6.6812,6.6812,6.6812,6.6812,6.6812,6.6812,6.6779,6.6373,6.6,6.5595,6.4478,6.3835,6.3429,6.2685,6.2381,6.2381,6.2381,6.1873,6.1061,6.0351,5.937,5.8355,5.8017,5.7881,5.7881,5.7881,5.7881,5.7881,5.7881,5.7881,5.7881,5.7881,5.7881,5.7611,5.6562,5.6292,5.5886,5.4397,5.4093,5.3991,5.3585,5.3518,5.3518,5.3518,5.3518,5.3518,5.3518,5.3518,5.3518,5.3518,5.3518,5.3518,5.3518,5.3518,5.3518,5.3518,5.3518,5.3518,5.3518,5.3856,5.4431,5.5175,5.5919,5.663,5.7374,5.7712,5.7881,5.7881,5.7881,5.7881,5.7881,5.7881,5.7881,6.2618,6.4005,6.5358,6.4952,6.6576,6.8199,6.776,6.6508,6.5155,6.4208,6.4038,6.3734,6.2821,6.3869,6.5459,6.7354,6.7963,6.8402,6.9011,6.8571,6.8402,6.9045,6.8402,6.7895,6.7895,6.7726,6.7421,6.6846,6.6812,6.6812,6.6812,6.6812,6.6812,6.6812,6.6812,6.6812,6.6812,6.6812,6.6812,6.6812,6.6812,6.6812,6.6812,6.6643,6.6542,6.6508,6.5764,6.5324,6.5087,6.3971,6.3429,6.3193,6.2618,6.2381,6.2381,6.2381,6.1535,6.0351,6.0182,5.9235,5.8118,5.7949,5.7881,5.7881,5.7881,5.7881,5.7881,5.7881,5.7881,5.7881,5.7881,5.7881,5.7712,5.6968,5.6799,5.6393,5.4905,5.46,5.4363,5.3653,5.3518,5.3518,5.3518,5.3518,5.3518,5.3518,5.3518,5.3518,5.3518,5.3518,5.3518,5.3518,5.3518,5.3585,5.3754,5.3754,5.3822,5.4025,5.4532,5.5209,5.5953,5.6494,5.7137,5.7881,5.7881,5.7881,5.7881,5.7881,5.7881,5.7881,5.7881,5.7881,6.3226,6.4038,6.4816,6.5459,6.5764,6.6102,6.6745,6.573,6.485,6.5425,6.5527,6.5121,6.37,6.4613,6.5899,6.6745,6.8098,6.9045,6.9079,6.9045,6.9045,6.9079,6.8402,6.7895,6.7895,6.7286,6.688,6.6812,6.6812,6.6812,6.6812,6.6812,6.6812,6.6812,6.6812,6.6812,6.6812,6.6812,6.6812,6.6812,6.6812,6.6812,6.6779,6.6102,6.5764,6.573,6.4986,6.4309,6.3666,6.3565,6.3091,6.2448,6.2415,6.2381,6.2381,6.2381,6.1907,6.1129,6.0351,5.9573,5.8829,5.8118,5.7881,5.7881,5.7881,5.7881,5.7881,5.7881,5.7881,5.7881,5.7881,5.7881,5.7712,5.6968,5.6799,5.6393,5.4905,5.46,5.4363,5.3653,5.3518,5.3518,5.3518,5.3518,5.3518,5.3518,5.3518,5.3518,5.3518,5.3518,5.3518,5.3518,5.3518,5.3788,5.4465,5.4499,5.4803,5.5513,5.5615,5.5953,5.6697,5.6765,5.7137,5.7881,5.7881,5.7881,5.7881,5.7881,5.7881,5.7881,5.7881,5.7881,6.2076,6.3024,6.4005,6.4275,6.4681,6.5459,6.7117,6.7049,6.6609,6.644,6.6373,6.5933,6.4478,6.5392,6.6474,6.6779,6.8098,6.9113,6.9113,6.8673,6.8335,6.8335,6.7692,6.7218,6.7218,6.6981,6.6812,6.6812,6.6812,6.6812,6.6812,6.6812,6.6812,6.6812,6.6812,6.6812,6.6812,6.6812,6.6812,6.6812,6.6812,6.6812,6.6779,6.6034,6.5696,6.5628,6.4444,6.3768,6.3463,6.3024,6.2651,6.2381,6.2381,6.2381,6.2381,6.2381,6.1941,6.1197,6.0385,5.9641,5.8896,5.8118,5.7881,5.7881,5.7881,5.7881,5.7881,5.7881,5.7881,5.7881,5.7881,5.7881,5.7814,5.7543,5.7476,5.707,5.5615,5.5649,5.5615,5.4431,5.4566,5.4735,5.4262,5.416,5.4025,5.3585,5.389,5.416,5.416,5.46,5.4871,5.4871,5.4871,5.4803,5.46,5.5446,5.6089,5.6393,5.6393,5.6528,5.6799,5.7239,5.7611,5.7881,5.7881,5.7881,5.7881,5.7881,5.7881,5.7881,5.7881,5.7881,6.1298,6.2212,6.3226,6.3463,6.3903,6.485,6.7049,6.7557,6.7557,6.7523,6.6948,6.6136,6.5121,6.5764,6.6542,6.6779,6.8098,6.9011,6.8774,6.8233,6.7793,6.759,6.7117,6.6812,6.6812,6.6812,6.6812,6.6812,6.6812,6.6812,6.6812,6.6812,6.6812,6.6812,6.6812,6.6812,6.6812,6.6576,6.644,6.644,6.6237,6.6373,6.6779,6.5797,6.5358,6.5256,6.3802,6.3159,6.3125,6.2618,6.2381,6.2381,6.2381,6.2381,6.2381,6.2381,6.2076,6.1501,6.0452,5.9776,5.9201,5.822,5.7881,5.7881,5.7881,5.7881,5.7881,5.7881,5.7881,5.7881,5.7881,5.7881,5.7881,5.7881,5.7881,5.7543,5.6325,5.6461,5.6427,5.5175,5.5344,5.5547,5.504,5.4735,5.4499,5.4262,5.4431,5.4668,5.4905,5.5412,5.5681,5.5681,5.5681,5.5615,5.531,5.6224,5.69,5.7137,5.7137,5.7137,5.7137,5.7611,5.7881,5.7881,5.7881,5.7881,5.7881,5.7881,5.7881,5.7881,5.7881,5.7881,6.1298,6.1806,6.255,6.3294,6.3497,6.4106,6.6305,6.6812,6.7252,6.8774,6.7286,6.5696,6.5696,6.5696,6.5933,6.6677,6.8098,6.8808,6.7996,6.7895,6.7624,6.6914,6.6812,6.6812,6.6812,6.6812,6.6812,6.6812,6.6812,6.6812,6.6812,6.6812,6.6812,6.6812,6.6812,6.6812,6.6812,6.6068,6.5696,6.5662,6.4952,6.5358,6.6745,6.5256,6.458,6.4512,6.3024,6.2381,6.2381,6.2381,6.2381,6.2381,6.2381,6.2381,6.2381,6.2381,6.2381,6.2144,6.0622,6.0114,5.9844,5.8355,5.7881,5.7881,5.7881,5.7881,5.7881,5.7881,5.7881,5.7881,5.7881,5.7881,5.7881,5.7881,5.7881,5.7679,5.6968,5.6799,5.6596,5.5852,5.575,5.575,5.5681,5.5108,5.4871,5.5615,5.5074,5.4871,5.5649,5.575,5.575,5.5681,5.575,5.6021,5.6731,5.6799,5.7137,5.7848,5.7881,5.7881,5.7881,5.7881,5.7881,5.7881,5.7881,5.7881,5.7881,5.7881,5.7881,5.7881,5.7881,5.7881,5.9844,6.0622,6.167,6.1907,6.3125,6.458,6.5764,6.644,6.7083,6.8064,6.732,6.6305,6.5797,6.6102,6.6373,6.6068,6.6846,6.7421,6.7184,6.7151,6.7049,6.6846,6.6812,6.6812,6.6812,6.6812,6.6812,6.6812,6.6812,6.6812,6.6812,6.6812,6.6812,6.6812,6.6812,6.6812,6.6812,6.6068,6.5696,6.5662,6.4952,6.485,6.5222,6.4275,6.3835,6.3768,6.2821,6.2381,6.2381,6.2381,6.2381,6.2381,6.2381,6.2381,6.2381,6.2381,6.2076,6.1467,6.0452,5.9776,5.9167,5.8186,5.7881,5.7881,5.7881,5.7881,5.7881,5.7881,5.7881,5.7881,5.7881,5.7881,5.7881,5.7881,5.7881,5.7679,5.6968,5.7205,5.734,5.663,5.69,5.707,5.6562,5.5852,5.5446,5.5683,5.5513,5.5852,5.707,5.7239,5.7036,5.6528,5.6934,5.7137,5.6833,5.7273,5.7645,5.7881,5.7881,5.7881,5.7881,5.7881,5.7881,5.7881,5.7881,5.7881,5.7881,5.7881,5.7881,5.7881,5.7881,5.7881,5.9945,6.1028,6.2245,6.255,6.3835,6.5222,6.5967,6.6711,6.7354,6.7793,6.732,6.6677,6.6203,6.6271,6.6305,6.617,6.6508,6.6812,6.6812,6.6812,6.6812,6.6812,6.6812,6.6812,6.6812,6.6812,6.6812,6.6812,6.6812,6.6812,6.6812,6.6812,6.6812,6.6812,6.6812,6.6677,6.6373,6.5628,6.5121,6.4816,6.4072,6.3734,6.37,6.3599,6.3531,6.3463,6.2719,6.2381,6.2381,6.2381,6.2381,6.2381,6.2381,6.2381,6.2381,6.2381,6.1941,6.1197,6.0385,5.9641,5.8896,5.8118,5.7881,5.7881,5.7881,5.7881,5.7881,5.7881,5.7881,5.7881,5.7881,5.7881,5.7881,5.7881,5.7881,5.778,5.734,5.7577,5.7746,5.7306,5.7577,5.7746,5.7306,5.663,5.6258,5.6528,5.6562,5.69,5.778,5.7881,5.7712,5.7273,5.7611,5.7712,5.7273,5.7645,5.7881,5.7881,5.7881,5.7881,5.7881,5.7881,5.7881,5.7881,5.7881,5.7881,5.7881,5.7881,5.7881,5.7881,5.7881,5.7881,6.096,6.2279,6.3599,6.441,6.5189,6.6008,6.6769,6.7413,6.7921,6.7793,6.7286,6.6812,6.6812,6.6237,6.6,6.6711,6.6812,6.6812,6.6812,6.6812,6.6812,6.6812,6.6812,6.6812,6.6812,6.6812,6.6812,6.6812,6.6812,6.6812,6.6812,6.6812,6.6812,6.6812,6.6812,6.644,6.5696,6.4952,6.4241,6.3497,6.2753,6.2381,6.2415,6.3091,6.3429,6.3362,6.2685,6.2381,6.2381,6.2381,6.2381,6.2381,6.2381,6.2347,6.2279,6.2279,6.1772,6.0994,6.025,5.9539,5.8795,5.8118,5.7881,5.7881,5.7881,5.7881,5.7881,5.7881,5.7881,5.7881,5.7881,5.7881,5.7881,5.7881,5.7881,5.7881,5.7881,5.7881,5.7881,5.7881,5.7881,5.7881,5.7881,5.7273,5.7036,5.7679,5.7848,5.7881,5.7881,5.7881,5.7881,5.7881,5.7881,5.7881,5.7881,5.7881,5.7881,5.7881,5.7881,5.7881,5.7881,5.7881,5.7881,5.7881,5.7881,5.7881,5.7881,5.7881,5.7881,5.7881,5.7881,5.7915,6.0148,6.1467,6.2956,6.4275,6.5595,6.6784,6.7673,6.8009,6.7908,6.7184,6.6914,6.6812,6.6812,6.6677,6.6643,6.6779,6.6812,6.6812,6.6812,6.6812,6.6812,6.6812,6.6812,6.6812,6.6812,6.6812,6.6812,6.6812,6.6812,6.6812,6.6812,6.6812,6.6812,6.6812,6.6812,6.644,6.5696,6.4952,6.4241,6.3497,6.2753,6.2381,6.2381,6.255,6.2618,6.2618,6.2448,6.2381,6.2381,6.2381,6.2381,6.2381,6.2381,6.2042,6.1535,6.1535,6.0689,5.9471,5.9302,5.8761,5.8084,5.7949,5.7881,5.7881,5.7881,5.7881,5.7881,5.7881,5.7881,5.7881,5.7881,5.7881,5.7881,5.7881,5.7881,5.7881,5.7881,5.7881,5.7881,5.7881,5.7881,5.7881,5.7881,5.7273,5.6867,5.7002,5.7509,5.7881,5.7881,5.7881,5.7881,5.7881,5.7881,5.7881,5.7881,5.7881,5.7881,5.7881,5.7881,5.7881,5.7881,5.7881,5.7881,5.7881,5.7881,5.7881,5.7881,5.7881,5.7881,5.7881,5.7881,5.822,5.981,6.1817,6.4042,6.5891,6.6879,6.7622,6.8107,6.8189,6.8068,6.7582,6.7461,6.7332,6.6896,6.6812,6.6812,6.6812,6.6812,6.6812,6.6812,6.6812,6.6812,6.6812,6.6812,6.6812,6.6812,6.6812,6.6812,6.6812,6.6812,6.6812,6.6812,6.6474,6.6271,6.6271,6.5933,6.5392,6.4647,6.4275,6.37,6.2956,6.2584,6.2381,6.2381,6.2381,6.2381,6.2381,6.2381,6.2381,6.2381,6.2381,6.2381,6.2347,6.2009,6.1637,6.1264,6.0858,6.0013,5.9032,5.9032,5.8524,5.7881,5.7881,5.7881,5.7881,5.7881,5.7881,5.7881,5.7881,5.7881,5.7881,5.7881,5.7881,5.7881,5.7881,5.7881,5.7881,5.7881,5.7881,5.7881,5.7881,5.7881,5.7881,5.7881,5.7577,5.734,5.734,5.7645,5.7881,5.7881,5.7881,5.7881,5.7881,5.7881,5.7881,5.7881,5.7881,5.7881,5.7881,5.7881,5.7881,5.7881,5.7881,5.7881,5.7881,5.7881,5.7881,5.7881,5.7881,5.7881,5.7915,5.8254,5.8626,5.9265,6.2264,6.5422,6.7461,6.8274,6.8496,6.865,6.8572,6.8458,6.8458,6.8223,6.7708,6.6946,6.6812,6.6812,6.6812,6.6812,6.6812,6.6812,6.6812,6.6812,6.6812,6.6812,6.6812,6.6812,6.6812,6.6812,6.6812,6.6812,6.6745,6.6643,6.6034,6.5628,6.5493,6.4918,6.4241,6.3531,6.3531,6.3125,6.2381,6.2381,6.2381,6.2381,6.2381,6.2381,6.2381,6.2381,6.2381,6.2381,6.2381,6.2381,6.2313,6.1603,6.1231,6.0994,6.0216,5.9438,5.8829,5.8829,5.8423,5.7881,5.7881,5.7881,5.7881,5.7881,5.7881,5.7881,5.7881,5.7881,5.7881,5.7881,5.7881,5.7881,5.7881,5.7881,5.7881,5.7881,5.7881,5.7881,5.7881,5.7881,5.7881,5.7881,5.7881,5.7881,5.7881,5.7881,5.7881,5.7881,5.7881,5.7881,5.7881,5.7881,5.7881,5.7881,5.7881,5.7881,5.7881,5.7881,5.7881,5.7881,5.7881,5.7881,5.7881,5.7881,5.7881,5.7881,5.7881,5.7881,5.7915,5.866,5.9099,5.7527,6.1478,6.5283,6.6875,6.8383,6.9708,7.0499,7.0092,6.9494,6.9494,6.8141,6.6946,6.6812,6.6812,6.6812,6.6812,6.6812,6.6812,6.6812,6.6812,6.6812,6.6812,6.6812,6.6812,6.6812,6.6812,6.6812,6.6812,6.6812,6.6542,6.5865,6.573,6.5392,6.4783,6.4647,6.4241,6.3531,6.3531,6.3125,6.2381,6.2381,6.2381,6.2381,6.2381,6.2381,6.2381,6.2381,6.2381,6.2381,6.2381,6.2381,6.2313,6.1603,6.0858,6.0182,5.9438,5.8693,5.8051,5.8051,5.7983,5.7881,5.7881,5.7881,5.7881,5.7881,5.7881,5.7881,5.7881,5.7881,5.7881,5.7881,5.7881,5.7881,5.7881,5.7881,5.7881,5.7881,5.7881,5.7881,5.7881,5.7881,5.7881,5.7881,5.7881,5.7881,5.7881,5.7881,5.7881,5.7881,5.7881,5.7881,5.7881,5.7881,5.7881,5.7881,5.7881,5.7881,5.7881,5.7881,5.7881,5.7881,5.7881,5.7881,5.7881,5.7881,5.7881,5.7881,5.7881,5.7881,5.7915,5.866,5.9336,5.8795,6.1738,6.4316,6.7195,6.8892,6.9897,7.0225,7.0023,6.9565,6.8984,6.7782,6.6812,6.6812,6.6812,6.6812,6.6812,6.6812,6.6812,6.6812,6.6812,6.6812,6.6812,6.6812,6.6812,6.6812,6.6812,6.6812,6.6812,6.6812,6.6474,6.573,6.529,6.4749,6.4005,6.3565,6.3193,6.2888,6.2888,6.2719,6.2381,6.2381,6.2381,6.2381,6.2381,6.2381,6.2381,6.2381,6.2381,6.2381,6.2381,6.2144,6.1704,6.0926,6.0148,5.9404,5.866,5.8186,5.7881,5.7881,5.7881,5.7881,5.7881,5.7881,5.7881,5.7881,5.7881,5.7881,5.7881,5.7881,5.7881,5.7881,5.7881,5.7881,5.7881,5.7881,5.7881,5.7881,5.7881,5.7881,5.7881,5.7881,5.7881,5.7881,5.7881,5.7881,5.7881,5.7881,5.7881,5.7881,5.7881,5.7881,5.7881,5.7881,5.7881,5.7881,5.7881,5.7881,5.7881,5.7881,5.7881,5.7881,5.7881,5.7881,5.7881,5.7881,5.7881,5.7881,5.7881,5.8118,5.8524,5.9268,6.0047,5.8348,6.0528,6.2369,6.6422,6.8571,6.9737,7.0036,6.9916,6.9493,6.8723,6.7622,6.6812,6.6812,6.6812,6.6812,6.6812,6.6812,6.6812,6.6812,6.6812,6.6812,6.6812,6.6812,6.6812,6.6812,6.6812,6.6812,6.6812,6.6812,6.6474,6.573,6.4986,6.4275,6.3531,6.2787,6.2381,6.2381,6.2381,6.2381,6.2381,6.2381,6.2381,6.2381,6.2381,6.2381,6.2381,6.2381,6.2381,6.2381,6.2178,6.1806,6.1197,6.0216,5.9471,5.893,5.8152,5.7881,5.7881,5.7881,5.7881,5.7881,5.7881,5.7881,5.7881,5.7881,5.7881,5.7881,5.7881,5.7881,5.7881,5.7881,5.7881,5.7881,5.7881,5.7881,5.7881,5.7881,5.7881,5.7881,5.7881,5.7881,5.7881,5.7881,5.7881,5.7881,5.7881,5.7881,5.7881,5.7881,5.7881,5.7881,5.7881,5.7881,5.7881,5.7881,5.7881,5.7881,5.7881,5.7881,5.7881,5.7881,5.7881,5.7881,5.7881,5.7881,5.7881,5.7881,5.7881,5.8287,5.9032,5.9776,6.052,5.379,5.6231,5.9045,6.3181,6.6594,6.9352,7.0851,7.0426,6.9708,6.9637,6.8102,6.6812,6.6812,6.6812,6.6812,6.6812,6.6812,6.6812,6.6812,6.6812,6.6812,6.6812,6.6812,6.6812,6.6812,6.6812,6.6812,6.6812,6.6812,6.6474,6.573,6.4986,6.4275,6.3531,6.2787,6.2381,6.2381,6.2381,6.2381,6.2381,6.2381,6.2381,6.2381,6.2381,6.2381,6.2381,6.2381,6.2381,6.2347,6.1637,6.1332,6.1163,5.9641,5.9032,5.893,5.8152,5.7881,5.7881,5.7881,5.7881,5.7881,5.7881,5.7881,5.7881,5.7881,5.7881,5.7881,5.7881,5.7881,5.7881,5.7881,5.7881,5.7881,5.7881,5.7881,5.7881,5.7881,5.7881,5.7881,5.7881,5.7881,5.7881,5.7881,5.7881,5.7881,5.7881,5.7881,5.7881,5.7881,5.7881,5.7881,5.7881,5.7881,5.7881,5.7881,5.7881,5.7881,5.7881,5.7881,5.7881,5.7881,5.7881,5.7881,5.7881,5.7881,5.7881,5.7881,5.7881,5.8287,5.9032,5.9776,6.052,5.1227,5.4058,5.7156,6.0599,6.4037,6.6825,6.7815,6.8949,6.9649,6.9034,6.8779,6.8645,6.8645,6.7656,6.6948,6.7421,6.7117,6.6981,6.7455,6.7117,6.6812,6.6812,6.6812,6.6812,6.6812,6.6812,6.6812,6.6812,6.6812,6.6474,6.573,6.5425,6.4749,6.3565,6.326,6.2888,6.2381,6.2381,6.2381,6.2381,6.2381,6.2381,6.2381,6.2381,6.2381,6.2381,6.2381,6.2381,6.2347,6.1603,6.0994,6.0419,5.9404,5.8727,5.8254,5.7983,5.7881,5.7881,5.7881,5.7881,5.7881,5.7881,5.7881,5.7881,5.7881,5.7881,5.7881,5.7881,5.7881,5.7881,5.7881,5.7881,5.7881,5.7881,5.7881,5.7881,5.7881,5.7881,5.7881,5.7881,5.7881,5.7881,5.7881,5.7881,5.7881,5.7881,5.7881,5.7881,5.7881,5.7881,5.7881,5.7881,5.7881,5.7881,5.7881,5.7881,5.7881,5.7881,5.7881,5.7881,5.7881,5.7881,5.7881,5.7881,5.7881,5.7881,5.7881,5.7881,5.8524,5.9708,5.9979,6.0791,4.8773,5.1192,5.3973,5.8183,6.1013,6.348,6.6064,6.7501,6.8418,6.8875,6.9138,6.9389,6.9637,6.8645,6.7954,6.8395,6.8332,6.8143,6.8049,6.7837,6.7467,6.6888,6.6812,6.6812,6.6812,6.6812,6.6812,6.6812,6.6812,6.6609,6.6102,6.5595,6.4647,6.3193,6.3125,6.2888,6.2381,6.2381,6.2381,6.2381,6.2381,6.2381,6.2381,6.2381,6.2381,6.2381,6.2381,6.2381,6.2313,6.1298,6.0588,6.0013,5.9032,5.8321,5.7881,5.7881,5.7881,5.7881,5.7881,5.7881,5.7881,5.7881,5.7881,5.7881,5.7881,5.7881,5.7881,5.7881,5.7881,5.7881,5.7881,5.7881,5.7881,5.7881,5.7881,5.7881,5.7881,5.7881,5.7881,5.7881,5.7881,5.7881,5.7881,5.7881,5.7881,5.7881,5.7881,5.7881,5.7881,5.7881,5.7881,5.7881,5.7881,5.7881,5.7881,5.7881,5.7881,5.7881,5.7881,5.7881,5.7881,5.7881,5.7881,5.7881,5.7881,5.7881,5.7881,5.8152,5.8896,6.0114,6.0385,6.1163,0.0,0.0,0.0,5.5821,5.7554,5.9426,6.5846,6.6177,6.5963,6.9133,6.9116,6.8751,6.9566,6.9743,6.9743,6.9778,7.0381,7.0232,6.852,6.8995,6.8848,6.7048,6.6854,6.6854,6.6812,6.6812,6.6812,6.6812,6.6812,6.6812,6.6812,6.5392,6.3937,6.2482,6.2415,6.2381,6.2381,6.2381,6.2381,6.2381,6.2381,6.2381,6.2381,6.2381,6.2381,6.2381,6.2381,6.2347,6.2245,6.0723,6.008,5.9911,5.8457,5.7881,5.7881,5.7881,5.7881,5.7881,5.7881,5.7881,5.7881,5.7881,5.7881,5.7881,5.7881,5.7881,5.7881,5.7881,5.7881,5.7881,5.7881,5.7881,5.7881,5.7881,5.7881,5.7881,5.7881,5.7881,5.7881,5.7881,5.7881,5.7881,5.7881,5.7881,5.7881,5.7881,5.7881,5.7881,5.7881,5.7881,5.7881,5.7881,5.7881,5.7881,5.7881,5.7881,5.7881,5.7881,5.7881,5.7881,5.7881,5.7881,5.7881,5.7881,5.7881,5.7881,5.7881,5.866,5.9404,6.0114,6.096,6.1704,4.4265,0.0,0.0,0.0,0.0,0.0,5.9771,6.2457,6.4927,6.6945,6.815,6.9193,7.0575,7.0866,7.1047,7.1623,7.0781,7.0061,7.0089,6.9841,6.919,6.7945,6.7827,6.7541,6.6896,6.6812,6.6812,6.6812,6.6812,6.6812,6.6812,6.5392,6.4174,6.3226,6.2685,6.2381,6.2381,6.2381,6.2381,6.2381,6.2381,6.2381,6.2381,6.2381,6.2381,6.2347,6.1839,6.1603,6.1535,6.052,5.981,5.9235,5.8254,5.7881,5.7881,5.7881,5.7881,5.7881,5.7881,5.7881,5.7881,5.7881,5.7881,5.7881,5.7881,5.7881,5.7881,5.7881,5.7881,5.7881,5.7881,5.7881,5.7881,5.7881,5.7881,5.7881,5.7881,5.7881,5.7881,5.7881,5.7881,5.7881,5.7881,5.7881,5.7881,5.7881,5.7881,5.7881,5.7881,5.7881,5.7881,5.7881,5.7881,5.7881,5.7881,5.7881,5.7881,5.7881,5.7881,5.7881,5.7881,5.7881,5.7881,5.7881,5.7881,5.7881,5.7881,5.866,5.9404,6.0148,6.1467,6.2178,4.4163,4.4864,4.6092,4.8672,0.0,0.0,5.6612,5.9288,6.1746,6.4582,6.631,6.7926,6.9887,7.0274,7.0617,7.1814,7.107,7.0629,7.1333,7.1048,7.0416,6.944,6.8667,6.799,6.7454,6.7029,6.6812,6.6812,6.6812,6.6542,6.5933,6.5087,6.414,6.3091,6.2618,6.2381,6.2381,6.2381,6.2381,6.2381,6.2381,6.2381,6.2381,6.2076,6.1941,6.1907,6.1129,6.0622,6.0317,5.9844,5.9404,5.893,5.8186,5.7881,5.7881,5.7881,5.7881,5.7881,5.7881,5.7881,5.7881,5.7881,5.7881,5.7881,5.7881,5.7881,5.7881,5.7881,5.7881,5.7881,5.7881,5.7881,5.7881,5.7881,5.7881,5.7881,5.7881,5.7881,5.7881,5.7881,5.7881,5.7881,5.7881,5.7881,5.7881,5.7881,5.7881,5.7881,5.7881,5.7881,5.7881,5.7881,5.7881,5.7881,5.7881,5.7881,5.7881,5.7881,5.7881,5.7881,5.7881,5.7881,5.7881,5.7881,5.7881,5.8051,5.8355,5.9099,6.0013,6.1061,6.1975,6.2381,4.507,4.4581,4.4808,4.9357,4.8773,0.0,5.4905,5.6304,5.7457,6.1704,6.3622,6.5267,6.7649,6.8161,6.8826,7.0478,7.0914,7.134,7.2219,7.234,7.1978,7.1019,6.9481,6.8458,6.8227,6.7454,6.6904,6.6812,6.6745,6.6068,6.4681,6.4512,6.3835,6.2415,6.2381,6.2381,6.2381,6.2381,6.2347,6.2279,6.2279,6.2212,6.211,6.1467,6.1163,6.1129,6.0317,5.9607,5.8998,5.893,5.8896,5.8829,5.8152,5.7881,5.7881,5.7881,5.7881,5.7881,5.7881,5.7881,5.7881,5.7881,5.7881,5.7881,5.7881,5.7881,5.7881,5.7881,5.7881,5.7881,5.7881,5.7881,5.7881,5.7881,5.7881,5.7881,5.7881,5.7881,5.7881,5.7881,5.7881,5.7881,5.7881,5.7881,5.7881,5.7881,5.7881,5.7881,5.7881,5.7881,5.7881,5.7881,5.7881,5.7881,5.7881,5.7881,5.7881,5.7881,5.7881,5.7881,5.7881,5.7881,5.7881,5.7881,5.7881,5.8287,5.9133,5.9776,6.0858,6.2279,6.2347,6.2381,4.5343,4.5207,4.5264,4.6265,4.7452,0.0,5.09,5.2819,5.4878,5.7009,5.928,6.1461,6.3236,6.4332,6.5466,6.7089,6.8506,7.0108,7.2167,7.2446,7.2109,7.1182,7.074,6.9918,6.8343,6.8029,6.7622,6.6854,6.6237,6.5527,6.4647,6.4038,6.3328,6.2415,6.2381,6.2381,6.2381,6.2381,6.211,6.1501,6.1501,6.1163,6.0554,6.0385,6.0317,6.0283,5.9539,5.9133,5.8964,5.8355,5.8118,5.8084,5.7949,5.7881,5.7881,5.7881,5.7881,5.7881,5.7881,5.7881,5.7881,5.7881,5.7881,5.7881,5.7881,5.7881,5.7881,5.7881,5.7881,5.7881,5.7881,5.7881,5.7881,5.7881,5.7881,5.7881,5.7881,5.7881,5.7881,5.7881,5.7881,5.7881,5.7881,5.7881,5.7881,5.7881,5.7881,5.7881,5.7881,5.7881,5.7881,5.7881,5.7881,5.7881,5.7881,5.7881,5.7881,5.7881,5.7881,5.7881,5.7881,5.7881,5.7881,5.7881,5.7881,5.8558,5.9877,6.0047,6.0588,6.1535,6.211,6.2381,4.6432,4.5869,4.5553,4.6211,4.6725,0.0,0.0,5.0495,5.2244,5.3664,5.5495,5.7312,5.8948,5.9727,6.0947,6.3474,6.4941,6.6443,6.8564,7.096,7.2461,7.2401,7.1635,7.0532,6.9095,6.8496,6.7827,6.6896,6.6102,6.5358,6.4647,6.3903,6.3159,6.2415,6.2381,6.2381,6.2381,6.2381,6.2009,6.1298,6.1298,6.0892,6.008,5.9708,5.9573,5.9505,5.8761,5.8457,5.8423,5.8051,5.7881,5.7881,5.7881,5.7881,5.7881,5.7881,5.7881,5.7881,5.7881,5.7881,5.7881,5.7881,5.7881,5.7881,5.7881,5.7881,5.7881,5.7881,5.7881,5.7881,5.7881,5.7881,5.7881,5.7881,5.7881,5.7881,5.7881,5.7881,5.7881,5.7881,5.7881,5.7881,5.7881,5.7881,5.7881,5.7881,5.7881,5.7881,5.7881,5.7881,5.7881,5.7881,5.7881,5.7881,5.7881,5.7881,5.7881,5.7881,5.7881,5.7881,5.7881,5.7881,5.7881,5.7881,5.7881,5.8423,5.9573,5.9911,6.0689,6.1839,6.2212,6.2381,4.7818,4.6815,4.6207,4.7241,4.6639,4.6194,0.0,0.0,0.0,5.1043,5.2293,5.3567,5.4953,5.5363,5.6492,5.9631,6.0877,6.2162,6.4129,6.8089,7.1132,7.2157,7.1282,7.0217,6.9282,6.8148,6.7313,6.6821,6.573,6.4918,6.4613,6.3768,6.3024,6.2415,6.2381,6.2381,6.2381,6.2381,6.1941,6.1061,6.1061,6.0588,5.9674,5.9066,5.8795,5.8761,5.8152,5.7881,5.7881,5.7881,5.7881,5.7881,5.7881,5.7881,5.7881,5.7881,5.7881,5.7881,5.7881,5.7881,5.7881,5.7881,5.7881,5.7881,5.7881,5.7881,5.7881,5.7881,5.7881,5.7881,5.7881,5.7881,5.7881,5.7881,5.7881,5.7881,5.7881,5.7881,5.7881,5.7881,5.7881,5.7881,5.7881,5.7881,5.7881,5.7881,5.7881,5.7881,5.7881,5.7881,5.7881,5.7881,5.7881,5.7881,5.7881,5.7881,5.7881,5.7881,5.7881,5.7881,5.7881,5.7881,5.7881,5.7881,5.8017,5.8457,5.9235,5.9979,6.096,6.2178,6.2313,6.2381,4.912,4.8507,4.8015,4.8133,4.7641,4.7135,4.7355,0.0,4.8517,4.8667,0.0,5.1287,5.1445,0.0,0.0,5.5256,5.6825,5.868,6.119,6.3274,6.5158,6.696,6.8174,6.8505,6.7521,6.5965,6.5515,6.6711,6.4309,6.3294,6.4546,6.326,6.2482,6.2381,6.2381,6.2381,6.2381,6.2381,6.167,6.025,6.025,5.9505,5.8152,5.8051,5.8017,5.8017,5.7915,5.7881,5.7881,5.7881,5.7881,5.7881,5.7881,5.7881,5.7881,5.7881,5.7881,5.7881,5.7881,5.7881,5.7881,5.7881,5.7881,5.7881,5.7881,5.7881,5.7881,5.7881,5.7881,5.7881,5.7881,5.7881,5.7881,5.7881,5.7881,5.7881,5.7881,5.7881,5.7881,5.7881,5.7881,5.7881,5.7881,5.7881,5.7881,5.7881,5.7881,5.7881,5.7881,5.7881,5.7881,5.7881,5.7881,5.7881,5.7881,5.7881,5.7881,5.7881,5.7881,5.7881,5.7881,5.7881,5.7881,5.7881,5.8558,5.9235,5.9979,6.0791,6.1264,6.1434,6.2076,6.2381,4.8686,4.8506,4.8207,4.7818,4.7788,4.7788,4.7399,4.7519,4.7728,4.7728,0.0,0.0,0.0,0.0,0.0,0.0,5.3236,5.477,5.6525,5.8419,6.1113,6.5182,6.623,6.66,6.6465,6.5323,6.5019,6.6068,6.3835,6.2854,6.3903,6.2956,6.2381,6.2381,6.2381,6.2381,6.2381,6.1975,6.1197,6.008,5.9674,5.893,5.7881,5.7881,5.7881,5.7881,5.7881,5.7881,5.7881,5.7881,5.7881,5.7881,5.7881,5.7881,5.7881,5.7881,5.7881,5.7881,5.7881,5.7881,5.7881,5.7881,5.7881,5.7881,5.7881,5.7881,5.7881,5.7881,5.7881,5.7881,5.7881,5.7881,5.7881,5.7881,5.7881,5.7881,5.7881,5.7881,5.7881,5.7881,5.7881,5.7881,5.7881,5.7881,5.7881,5.7881,5.7881,5.7881,5.7881,5.7881,5.7881,5.7881,5.7881,5.7881,5.7881,5.7881,5.7881,5.7881,5.7881,5.7881,5.7881,5.7881,5.7881,5.7881,5.8626,5.937,6.0114,6.0926,6.1535,6.1941,6.2245,6.2381,4.8566,4.8416,4.8177,4.7698,4.7788,4.7908,4.7429,4.7429,4.7578,4.7578,4.7728,0.0,0.0,0.0,4.8273,4.95,0.0,5.1704,5.2964,5.4465,5.724,6.2013,6.3206,6.4004,6.4907,6.4006,6.3835,6.5019,6.3024,6.2279,6.3463,6.2787,6.2381,6.2381,6.2381,6.2381,6.2381,6.1873,6.1095,6.008,5.9573,5.8829,5.7881,5.7881,5.7881,5.7881,5.7881,5.7881,5.7881,5.7881,5.7881,5.7881,5.7881,5.7881,5.7881,5.7881,5.7881,5.7881,5.7881,5.7881,5.7881,5.7881,5.7881,5.7881,5.7881,5.7881,5.7881,5.7881,5.7881,5.7881,5.7881,5.7881,5.7881,5.7881,5.7881,5.7881,5.7881,5.7881,5.7881,5.7881,5.7881,5.7881,5.7881,5.7881,5.7881,5.7881,5.7881,5.7881,5.7881,5.7881,5.7881,5.7881,5.7881,5.7881,5.7881,5.7881,5.7881,5.7881,5.7881,5.7881,5.7881,5.7881,5.7881,5.7881,5.8829,5.9573,6.0114,6.1095,6.1873,6.2381,6.2381,6.2381,4.9269,4.8775,4.8267,4.8267,4.7788,4.7339,4.7309,4.7788,4.8267,4.8267,4.8745,4.9239,4.9239,4.9239,4.9239,4.9314,4.9344,0.0,0.0,5.2027,5.3032,5.5676,5.8231,6.0477,6.2341,6.1168,6.1163,6.3429,6.1467,6.1163,6.3396,6.2787,6.2381,6.2381,6.2381,6.2381,6.2381,6.2381,6.1603,6.0114,6.008,5.9302,5.7881,5.7881,5.7881,5.7881,5.7881,5.7881,5.7881,5.7881,5.7881,5.7881,5.7881,5.7881,5.7881,5.7881,5.7881,5.7881,5.7881,5.7881,5.7881,5.7881,5.7881,5.7881,5.7881,5.7881,5.7881,5.7881,5.7881,5.7881,5.7881,5.7881,5.7881,5.7881,5.7881,5.7881,5.7881,5.7881,5.7881,5.7881,5.7881,5.7881,5.7881,5.7881,5.7881,5.7881,5.7881,5.7881,5.7881,5.7881,5.7881,5.7881,5.7881,5.7881,5.7881,5.7881,5.7881,5.7881,5.7881,5.7881,5.7881,5.7881,5.7881,5.7881,5.9336,6.008,6.0114,6.1603,6.2381,6.2381,6.2381,6.2381,4.8506,4.882,4.876,4.7848,4.8117,4.8386,4.7489,4.7818,4.8297,4.8297,4.8805,4.9299,4.9299,4.9299,4.9299,4.9299,4.9643,4.9959,0.0,5.0152,5.1083,5.354,5.6146,5.8302,5.9698,5.9811,6.0592,6.2612,6.1603,6.1434,6.2685,6.2516,6.2381,6.2381,6.2381,6.2381,6.2381,6.14,6.0622,6.008,5.9099,5.8389,5.7881,5.7881,5.7881,5.7881,5.7881,5.7881,5.7881,5.7881,5.7881,5.7881,5.7881,5.7881,5.7881,5.7881,5.7881,5.7881,5.7881,5.7881,5.7881,5.7881,5.7881,5.7881,5.7881,5.7881,5.7881,5.7881,5.7881,5.7881,5.7881,5.7881,5.7881,5.7881,5.7881,5.7881,5.7881,5.7881,5.7881,5.7881,5.7881,5.7881,5.7881,5.7881,5.7881,5.7881,5.7881,5.7881,5.7881,5.7881,5.7881,5.7881,5.7881,5.7881,5.7881,5.7881,5.8084,5.8592,5.8152,5.8118,5.8626,5.8152,5.7881,5.7881,5.8863,5.9607,6.0114,6.1163,6.1907,6.2381,6.2381,6.2381,4.8177,4.864,4.8775,4.8147,4.8626,4.909,4.8207,4.8506,4.8985,4.8985,4.9494,4.9972,4.9972,4.9972,4.9883,4.9643,4.9972,5.0002,0.0,4.9464,5.0231,5.1756,5.379,5.5698,5.7297,5.7781,5.8933,6.1214,6.0835,6.1028,6.2313,6.2381,6.2381,6.2381,6.2381,6.2381,6.2381,6.1163,6.0385,6.008,5.8863,5.8152,5.7881,5.7881,5.7881,5.7881,5.7881,5.7881,5.7881,5.7881,5.7881,5.7881,5.7881,5.7881,5.7881,5.7881,5.7881,5.7881,5.7881,5.7881,5.7881,5.7881,5.7881,5.7881,5.7881,5.7881,5.7881,5.7881,5.7881,5.7881,5.7881,5.7881,5.7881,5.7881,5.7881,5.7881,5.7881,5.7881,5.7881,5.7881,5.7881,5.7881,5.7881,5.7881,5.7881,5.7881,5.7881,5.7881,5.7881,5.7881,5.7881,5.7881,5.7881,5.7881,5.7881,5.7881,5.822,5.8964,5.8321,5.822,5.8998,5.8287,5.7881,5.7881,5.8896,5.9641,6.0114,6.1163,6.1941,6.2381,6.2381,6.2381]}]]